     2.11           OBSERVATION DATA    G (GPS)             RINEX VERSION / TYPE
teqc 2010Oct21 OPUS Account 20111027 14:14:53UTC            PGM / RUN BY / DATE
B 1524                                                      MARKER NAME
1206                                                        MARKER NUMBER
CSMIDDLETON NGS                                             OBSERVER / AGENCY
4624K01647 TRIMBLE NETR5 4.41                               REC # / TYPE / VERS
12694052 TRM41249.00 NONE                                   ANT # / TYPE
  -754609.3693 -5524003.6908  3087635.9457                  APPROX POSITION XYZ
        2.0040        0.0000        0.0000                  ANTENNA: DELTA H/E/N
     1     1                                                WAVELENGTH FACT L1/2
     5    L1    L2    C1    P1    P2                        # / TYPES OF OBSERV
    15                                                      LEAP SECONDS
  2011     8    13     0     0    0.0000000     GPS         TIME OF FIRST OBS
                                                            END OF HEADER
 11  8 13  0  0  0.0000000  0  8G09G17G10G28G02G04G12G05
 118029101.022 7  91970805.35744  22460196.453                    22460205.391
 117081341.599 7  91232229.723 7  22279819.594                    22279827.363
 112881928.305 7  87960078.45745  21480706.688                    21480714.863
 123700524.430 6  96390075.82243  23539432.969                    23539442.020
 109898012.290 8  85634953.97446  20912884.430                    20912890.184
 107386202.510 8  83677673.64146  20434892.102                    20434899.664
 119994770.644 7  93502512.202 7  22834253.469                    22834261.262
 125658187.518 7  97915577.551 6  23911967.422                    23911978.348
 11  8 13  0  0 30.0000000  0  8G09G17G10G28G02G04G12G05
 118076466.307 7  92007713.34245  22469209.867                    22469218.223
 117122254.301 7  91264109.751 7  22287605.078                    22287612.750
 112823967.785 7  87914914.46445  21469676.984                    21469685.500
 123793140.919 6  96462244.41743  23557057.172                    23557065.754
 109864073.105 8  85608507.87346  20906425.898                    20906431.555
 107437815.316 8  83717891.41146  20444713.555                    20444721.406
 119905386.133 7  93432861.984 7  22817244.391                    22817251.758
 125552441.072 7  97833177.888 6  23891844.523                    23891855.090
 11  8 13  0  1  0.0000000  0  8G09G17G10G28G02G04G12G05
 118124310.826 7  92044994.76144  22478314.156                    22478323.258
 117163268.683 7  91296069.003 7  22295410.125                    22295417.984
 112766477.346 7  87870116.77245  21458736.898                    21458745.344
 123886024.946 6  96534621.52443  23574732.352                    23574741.180
 109830500.839 8  85582347.68946  20900037.188                    20900043.258
 107489795.038 8  83758395.07546  20454605.016                    20454612.797
 119816189.523 7  93363358.174 7  22800270.656                    22800278.328
 125446706.213 7  97750787.293 6  23871723.336                    23871734.555
 11  8 13  0  1 30.0000000  0  8G09G17G10G28G02G04G12G05
 118172631.781 7  92082647.42544  22487509.391                    22487518.121
 117204384.715 7  91328107.462 7  22303233.852                    22303241.281
 112709459.449 7  87825687.28645  21447886.961                    21447895.379
 123979174.505 6  96607205.51043  23592458.180                    23592466.801
 109797294.565 8  85556472.69146  20893718.156                    20893724.020
 107542139.217 8  83799182.74046  20464565.844                    20464573.648
 119727183.122 7  93294002.554 7  22783333.023                    22783340.754
 125340985.646 7  97668407.810 6  23851605.055                    23851616.156
 11  8 13  0  2  0.0000000  0  8G09G17G10G28G02G04G12G05
 118221425.968 7  92120668.83345  22496794.523                    22496803.430
 117245602.893 7  91360225.509 7  22311077.625                    22311085.332
 112652916.799 7  87781628.11045  21437127.039                    21437135.043
 124072587.959 6  96679995.14843  23610234.313                    23610243.020
 109764453.895 8  85530882.57546  20887468.930                    20887474.555
 107594845.178 8  83840252.31446  20474595.273                    20474603.039
 119638369.284 7  93224796.985 7  22766432.367                    22766440.145
 125235281.702 6  97586041.289 6  23831490.695                    23831501.738
 11  8 13  0  2 30.0000000  0  8G09G17G10G28G02G04G12G05
 118270691.364 7  92159057.41045  22506169.414                    22506178.617
 117286923.952 7  91392423.716 7  22318940.797                    22318948.707
 112596852.435 8  87737941.63545  21426458.281                    21426466.375
 124166263.665 6  96752989.11343  23628060.133                    23628068.906
 109731978.874 8  85505577.39046  20881288.789                    20881294.820
 107647910.975 8  83881602.27246  20484693.359                    20484700.914
 119549750.405 7  93155743.325 6  22749568.820                    22749576.246
 125129597.482 7  97503690.155 7  23811379.719                    23811390.547
 11  8 13  0  3  0.0000000  0  8G09G17G10G28G02G04G12G05
 118320424.892 7  92197810.76544  22515633.320                    22515642.375
 117328348.592 7  91424702.642 7  22326823.094                    22326831.703
 112541269.125 7  87694630.00945  21415881.352                    21415889.223
 124260199.951 6  96826186.12443  23645934.867                    23645944.164
 109699869.371 8  85480557.02146  20875178.992                    20875184.398
 107701334.369 8  83923230.87846  20494859.609                    20494867.523
 119461329.316 7  93086843.789 7  22732742.977                    22732750.844
 125023935.800 6  97421356.563 7  23791272.305                    23791283.539
 11  8 13  0  3 30.0000000  0  8G09G17G10G28G02G04G12G05
 118370623.919 7  92236926.84044  22525186.156                    22525195.402
 117369877.099 7  91457062.508 7  22334726.156                    22334734.270
 112486169.570 8  87651695.33945  21405395.992                    21405404.176
 124354394.964 6  96899584.75943  23663860.406                    23663869.563
 109668125.158 8  85455821.29646  20869137.742                    20869143.734
 107755112.958 8  83965136.26746  20505094.039                    20505101.289
 119373108.760 7  93018100.498 7  22715955.430                    22715962.852
 124918299.726 7  97339042.914 7  23771170.773                    23771181.375
 11  8 13  0  4  0.0000000  0  8G09G17G10G28G02G04G12G05
 118421285.383 7  92276403.26245  22534826.656                    22534835.906
 117411510.090 7  91489503.785 7  22342648.906                    22342656.434
 112431555.852 8  87609139.24145  21395003.406                    21395011.402
 124448847.090 6  96973183.75043  23681834.461                    23681843.059
 109636745.472 8  85431369.61246  20863166.508                    20863172.480
 107809244.458 8  84007316.64346  20515394.555                    20515402.176
 119285090.732 7  92949515.034 7  22699206.188                    22699213.203
 124812691.791 7  97256751.220 7  23751073.727                    23751085.086
 11  8 13  0  4 30.0000000  0  8G09G17G10G28G02G04G12G05
 118472405.751 7  92316237.26444  22544554.398                    22544564.000
 117453247.469 7  91522026.385 7  22350591.555                    22350598.746
 112377430.366 8  87566963.59745  21384703.672                    21384711.570
 124543553.762 6  97046981.05843  23699855.969                    23699865.906
 109605729.340 8  85407201.22546  20857264.398                    20857269.965
 107863725.473 8  84049769.37846  20525761.578                    20525769.441
 119197278.063 7  92881089.580 7  22682495.813                    22682503.238
 124707114.154 7  97174483.124 6  23730983.000                    23730993.398
 11  8 13  0  5  0.0000000  0  8G09G17G10G28G02G04G12G05
 118523983.193 7  92356427.41645  22554369.398                    22554378.613
 117495090.497 7  91554631.304 7  22358553.773                    22358561.656
 112323796.366 8  87525170.91245  21374497.031                    21374505.484
 124638514.166 6  97120976.09543  23717926.766                    23717936.453
 109575077.466 8  85383316.67246  20851431.633                    20851437.355
 107918554.794 8  84092493.51146  20536195.234                    20536203.563
 119109672.537 7  92812825.561 7  22665824.633                    22665832.582
 124601570.804 7  97092241.725 6  23710898.398                    23710909.496
 11  8 13  0  5 30.0000000  0  8G09G17G10G28G02G04G12G05
 118576014.223 7  92396971.02545  22564270.953                    22564280.223
 117537039.602 7  91587318.889 7  22366536.305                    22366544.063
 112270656.181 8  87483763.02345  21364385.031                    21364393.309
 124733726.133 6  97195167.16943  23736045.281                    23736054.984
 109544789.023 8  85359715.31346  20845667.625                    20845673.633
 107973729.514 8  84135486.78846  20546694.953                    20546702.793
 119022277.055 7  92744725.209 7  22649194.281                    22649201.766
 124496064.164 7  97010028.954 6  23690820.930                    23690832.180
 11  8 13  0  6  0.0000000  0  8G09G17G10G28G02G04G12G05
 118628496.586 7  92437866.31745  22574257.852                    22574266.836
 117579095.628 7  91620089.784 7  22374539.305                    22374547.227
 112218013.194 8  87442742.57045  21354367.258                    21354375.758
 124829188.504 6  97269553.33843  23754210.773                    23754220.703
 109514864.576 8  85336397.58946  20839973.789                    20839979.242
 108029248.265 8  84178748.14246  20557259.609                    20557267.422
 118935094.933 7  92676791.105 7  22632603.656                    22632611.551
 124390597.762 7  96927847.535 6  23670751.477                    23670762.367
 11  8 13  0  6 30.0000000  0  8G09G17G10G28G02G04G12G05
 118681426.459 7  92479110.30745  22584330.328                    22584339.004
 117621258.809 7  91652944.186 7  22382562.391                    22382570.734
 112165869.015 8  87402110.78445  21344444.258                    21344452.863
 124924898.611 6  97344132.57244  23772424.563                    23772434.039
 109485302.681 8  85313362.37646  20834348.102                    20834353.609
 108085107.654 8  84222274.92846  20567889.313                    20567897.137
 118848128.116 7  92609024.778 7  22616054.531                    22616062.445
 124285173.559 7  96845698.993 6  23650689.656                    23650700.699
 11  8 13  0  7  0.0000000  0  8G09G17G10G28G02G04G12G05
 118734801.443 7  92520701.15745  22594487.023                    22594496.152
 117663529.275 7  91685882.188 7  22390606.305                    22390614.688
 112114226.551 8  87361869.95445  21334617.867                    21334625.445
 125020855.095 6  97418903.74744  23790684.352                    23790694.309
 109456103.324 8  85290609.66046  20828791.414                    20828796.945
 108141305.655 8  84266065.57246  20578583.992                    20578591.500
 118761379.143 7  92541428.222 7  22599546.813                    22599554.641
 124179794.627 7  96763585.715 6  23630636.438                    23630647.137
 11  8 13  0  7 30.0000000  0  8G09G17G10G28G02G04G12G05
 118788618.454 7  92562636.43144  22604728.398                    22604737.141
 117705907.754 7  91718904.358 7  22398671.203                    22398678.922
 112063088.106 8  87322021.86245  21324885.914                    21324893.930
 125117056.309 6  97493865.64243  23808990.555                    23809001.133
 109427266.216 8  85268139.20546  20823303.641                    20823309.789
 108197839.686 8  84310118.05246  20589341.672                    20589349.332
 118674850.453 7  92474003.319 7  22583080.898                    22583088.258
 124074463.681 7  96681509.819 6  23610592.773                    23610603.328
 11  8 13  0  8  0.0000000  0  8G09G17G10G28G02G04G12G05
 118842874.415 7  92604913.75144  22615052.805                    22615061.680
 117748394.571 7  91752010.928 7  22406755.734                    22406763.402
 112012455.987 8  87282568.31245  21315250.680                    21315259.051
 125213499.529 6  97569016.08843  23827343.195                    23827353.313
 109398790.304 8  85245950.19946  20817885.023                    20817890.492
 108254707.323 8  84354430.48646  20600163.203                    20600170.816
 118588544.561 7  92406752.024 7  22566657.102                    22566664.813
 123969183.591 7  96599473.575 6  23590557.969                    23590569.070
 11  8 13  0  8 30.0000000  0  8G09G17G10G28G02G04G12G05
 118897566.657 7  92647531.01745  22625460.688                    22625469.750
 117790990.660 7  91785202.672 7  22414861.891                    22414869.895
 111962332.860 8  87243511.36545  21305712.609                    21305720.766
 125310183.487 6  97644354.09242  23845741.500                    23845751.602
 109370675.637 8  85224042.68346  20812535.109                    20812540.859
 108311906.305 8  84399001.11946  20611047.703                    20611055.574
 118502463.967 7  92339676.289 7  22550276.641                    22550284.508
 123863957.344 7  96517479.258 6  23570533.953                    23570544.539
 11  8 13  0  9  0.0000000  0  8G09G17G10G28G02G04G12G05
 118952691.901 7  92690485.69544  22635950.352                    22635959.777
 117833696.229 7  91818479.718 7  22422988.289                    22422995.695
 111912720.974 8  87204852.79545  21296272.055                    21296280.242
 125407106.389 6  97719878.28443  23864185.570                    23864194.996
 109342921.673 8  85202416.22846  20807253.695                    20807259.414
 108369434.250 8  84443828.07746  20621995.227                    20622002.930
 118416611.280 7  92272778.137 7  22533939.344                    22533946.570
 123758787.771 7  96435529.105 6  23550520.969                    23550531.723
 11  8 13  0  9 30.0000000  0  8G09G17G10G28G02G04G12G05
 119008246.964 7  92733775.29444  22646522.023                    22646531.297
 117876512.075 7  91851842.687 7  22431136.188                    22431143.594
 111863622.799 8  87166594.51845  21286928.734                    21286937.117
 125504266.233 6  97795587.16142  23882675.211                    23882684.016
 109315527.716 8  85181070.29346  20802040.711                    20802046.551
 108427288.674 8  84488909.43846  20633004.258                    20633011.953
 118330988.997 7  92206059.523 7  22517645.813                    22517653.527
 123653677.747 7  96353625.362 6  23530519.305                    23530530.000
 11  8 13  0 10  0.0000000  0  8G09G17G10G28G02G04G12G05
 119064229.536 7  92777398.01245  22657175.141                    22657184.715
 117919438.783 7  91885292.044 7  22439304.695                    22439312.184
 111815041.729 8  87128739.17645  21277683.750                    21277692.023
 125601661.465 6  97871479.44742  23901208.703                    23901218.055
 109288493.930 8  85160005.01046  20796896.609                    20796902.027
 108485467.923 8  84534243.90246  20644075.352                    20644083.215
 118245600.301 7  92139522.934 7  22501396.391                    22501404.523
 123548630.537 7  96271770.560 6  23510529.195                    23510539.625
 11  8 13  0 10 30.0000000  0  8G09G17G10G28G02G04G12G05
 119120636.067 7  92821351.11444  22667909.125                    22667918.746
 117962476.941 7  91918828.254 7  22447494.711                    22447502.277
 111766979.209 8  87091287.90745  21268538.266                    21268546.668
 125699289.998 6  97947553.50742  23919786.492                    23919796.270
 109261819.446 8  85139219.70646  20791820.469                    20791826.410
 108543968.967 8  84579829.11346  20655207.852                    20655215.586
 118160447.010 7  92073169.785 7  22485192.898                    22485200.461
 123443648.513 7  96189966.565 6  23490551.180                    23490562.258
 11  8 13  0 11  0.0000000  0  8G09G17G10G28G02G04G12G05
 119177463.407 6  92865632.09245  22678723.117                    22678732.715
 118005627.403 7  91952451.974 7  22455706.008                    22455713.613
 111719437.398 8  87054242.37646  21259490.930                    21259499.359
 125797150.220 6  98023808.12942  23938409.242                    23938418.742
 109235503.867 8  85118714.06046  20786812.859                    20786818.652
 108602789.418 8  84625663.21246  20666401.180                    20666408.891
 118075531.827 7  92007002.156 7  22469033.711                    22469041.492
 123338734.867 7  96108215.837 6  23470586.945                    23470597.285
 11  8 13  0 11 30.0000000  0  8G09G17G10G28G02G04G12G05
 119234709.064 7  92910239.03144  22689616.398                    22689625.906
 118048890.162 7  91986163.207 7  22463938.094                    22463946.434
 111672419.441 8  87017605.03745  21250543.883                    21250552.102
 125895240.522 6  98100242.05643  23957075.063                    23957084.625
 109209547.184 8  85098488.08346  20781873.211                    20781878.816
 108661927.305 8  84671744.67446  20677654.672                    20677662.727
 117990857.718 7  91941022.390 7  22452920.500                    22452928.102
 123233892.805 7  96026520.887 7  23450636.539                    23450646.703
 11  8 13  0 12  0.0000000  0  8G09G17G10G28G02G04G12G05
 119292369.665 7  92955169.29245  22700589.383                    22700598.660
 118092265.961 7  92019962.526 7  22472193.094                    22472200.695
 111625927.309 8  86981377.42845  21241696.750                    21241705.512
 125993558.217 6  98176853.12843  23975784.289                    23975794.305
 109183948.414 8  85078541.00446  20777001.984                    20777007.813
 108721380.106 8  84718071.53546  20688968.250                    20688975.797
 117906427.427 7  91875232.588 7  22436854.242                    22436861.609
 123129124.653 7  95944883.515 7  23430699.367                    23430709.840
 11  8 13  0 12 30.0000000  0  8G09G17G10G28G02G04G12G05
 119350442.236 7  93000420.56944  22711640.531                    22711649.824
 118135755.559 7  92053850.524 7  22480468.891                    22480476.457
 111579963.629 8  86945561.60545  21232949.852                    21232958.145
 126092101.727 6  98253640.18243  23994536.250                    23994546.383
 109158707.120 8  85058872.47246  20772198.695                    20772204.781
 108781145.455 8  84764641.93846  20700341.109                    20700348.809
 117822242.719 7  91809634.133 7  22420834.406                    22420841.961
 123024433.847 7  95863306.420 7  23410777.336                    23410787.965
 11  8 13  0 13  0.0000000  0  8G09G17G10G28G02G04G12G05
 119408923.447 7  93045990.28244  22722768.539                    22722778.324
 118179359.466 7  92087827.597 7  22488765.945                    22488773.875
 111534530.098 8  86910158.87246  21224304.492                    21224312.477
 126190869.115 6  98330601.67443  24013330.734                    24013341.508
 109133822.482 8  85039481.85646  20767463.234                    20767468.820
 108841220.922 8  84811453.99046  20711773.070                    20711780.594
 117738306.352 7  91744229.205 7  22404861.773                    22404869.633
 122919822.845 7  95781791.494 7  23390870.609                    23390881.188
 11  8 13  0 13 30.0000000  0  8G09G17G10G28G02G04G12G05
 119467810.502 7  93091876.23644  22733974.523                    22733984.043
 118223077.735 7  92121893.789 7  22497085.039                    22497092.805
 111489629.151 8  86875171.15945  21215760.094                    21215768.223
 126289858.389 6  98407736.04643  24032168.391                    24032178.441
 109109294.316 8  85020369.01046  20762795.875                    20762800.910
 108901604.181 8  84858505.88046  20723263.555                    20723271.594
 117654621.219 7  91679020.042 7  22388936.656                    22388944.867
 122815294.883 7  95700341.278 7  23370979.336                    23370989.523
 11  8 13  0 14  0.0000000  0  8G09G17G10G28G02G04G12G05
 119527099.997 7  93138075.77344  22745256.914                    22745266.516
 118266911.460 7  92156049.924 7  22505426.773                    22505434.355
 111445263.105 8  86840600.25746  21207317.539                    21207325.656
 126389067.560 6  98485041.81143  24051047.258                    24051057.531
 109085121.523 8  85001533.08446  20758196.109                    20758201.805
 108962292.429 8  84905795.41746  20734811.984                    20734820.184
 117571189.326 7  91614008.191 7  22373060.711                    22373068.168
 122710852.636 7  95618957.854 6  23351104.578                    23351114.000
 11  8 13  0 14 30.0000000  0  8G09G17G10G28G02G04G12G05
 119586789.251 7  93184586.80744  22756615.750                    22756625.211
 118310861.101 7  92190296.407 7  22513789.781                    22513797.883
 111401434.769 8  86806448.33546  21198976.805                    21198985.320
 126488495.234 6  98562517.79243  24069967.813                    24069977.793
 109061304.450 8  84982974.33746  20753663.508                    20753669.164
 109023284.146 8  84953321.42246  20746418.695                    20746426.223
 117488013.963 7  91549196.256 7  22357232.414                    22357240.320
 122606499.259 7  95537643.681 6  23331246.898                    23331256.738
 11  8 13  0 15  0.0000000  0  8G09G17G10G28G02G04G12G05
 119646874.434 7  93231406.35444  22768049.195                    22768058.668
 118354927.465 7  92224633.824 7  22522175.148                    22522183.336
 111358145.768 8  86772716.68546  21190739.711                    21190747.461
 126588139.105 6  98640162.26843  24088929.898                    24088939.867
 109037841.887 8  84964691.82246  20749198.984                    20749204.383
 109084576.238 8  85001081.48246  20758082.273                    20758089.973
 117405097.550 7  91484586.079 7  22341454.922                    22341461.895
 122502237.286 7  95456400.734 6  23311405.563                    23311416.098
 11  8 13  0 15 30.0000000  0  8G09G17G10G28G02G04G12G05
 119707352.963 7  93278532.42844  22779558.172                    22779567.418
 118399110.696 7  92259062.305 7  22530583.297                    22530591.418
 111315398.482 8  86739407.13845  21182604.984                    21182613.039
 126687997.352 6  98717973.77543  24107932.000                    24107942.660
 109014733.649 8  84946685.42246  20744801.297                    20744807.027
 109146166.811 8  85049074.13046  20769802.422                    20769810.121
 117322442.656 7  91420179.679 7  22325725.555                    22325732.992
 122398070.144 7  95375231.673 6  23291583.922                    23291593.418
 11  8 13  0 16  0.0000000  0  8G09G17G10G28G02G04G12G05
 119768221.497 7  93325962.39144  22791141.430                    22791150.492
 118443411.774 7  92293582.611 7  22539013.633                    22539021.266
 111273195.258 8  86706521.55545  21174574.195                    21174582.094
 126788067.833 6  98795950.60643  24126975.609                    24126985.051
 108991979.089 8  84928954.60046  20740471.320                    20740476.984
 109208053.395 8  85097297.43046  20781578.883                    20781586.707
 117240051.729 7  91355978.971 7  22310046.719                    22310054.918
 122294000.697 7  95294138.737 6  23271779.859                    23271789.406
 11  8 13  0 16 30.0000000  0  8G09G17G10G28G02G04G12G05
 119829476.856 7  93373693.78444  22802798.023                    22802807.316
 118487831.061 7  92328195.027 7  22547466.602                    22547473.977
 111231537.868 8  86674061.28945  21166646.758                    21166654.871
 126888348.783 5  98874091.51342  24146057.547                    24146068.242
 108969577.474 8  84911498.80346  20736208.633                    20736214.277
 109270233.541 8  85145749.48446  20793411.398                    20793419.391
 117157927.343 7  91291985.964 7  22294419.516                    22294427.137
 122190031.714 7  95213124.069 6  23251994.664                    23252004.738
 11  8 13  0 17  0.0000000  0  8G09G17G10G28G02G04G12G05
 119891115.844 7  93421724.10644  22814527.102                    22814536.688
 118532368.968 7  92362899.873 7  22555941.406                    22555949.273
 111190428.371 8  86642027.94646  21158823.664                    21158831.832
 126988837.696 6  98952394.40242  24165180.078                    24165190.781
 108947527.867 8  84894317.30346  20732012.656                    20732018.418
 109332704.505 8  85194428.14446  20805299.313                    20805307.129
 117076071.962 7  91228202.565 7  22278842.898                    22278850.664
 122086166.059 7  95132189.898 6  23232230.063                    23232239.535
 11  8 13  0 17 30.0000000  0  9G30G09G17G10G28G02G04G12G05
 127987633.70616  99730688.11853  24355245.648                    24355253.836
 119953135.473 7  93470051.02444  22826329.219                    22826338.691
 118577026.092 7  92397697.603 7  22564439.430                    22564447.266
 111149869.301 8  86610423.51046  21151105.758                    21151113.953
 127089533.225 5  99030858.34742  24184340.992                    24184352.219
 108925830.041 8  84877409.91546  20727883.992                    20727889.395
 109395464.566 8  85243332.07846  20817241.953                    20817249.984
 116994488.328 7  91164630.917 7  22263317.578                    22263325.480
 121982406.812 7  95051338.653 6  23212485.336                    23212494.777
 11  8 13  0 18  0.0000000  0  9G30G09G17G10G28G02G04G12G05
 127881060.424 6  99647644.07143  24334965.156                    24334973.727
 120015532.391 7  93518671.92344  22838203.297                    22838212.500
 118621803.214 7  92432588.849 7  22572960.578                    22572968.504
 111109862.439 8  86579249.35946  21143492.258                    21143500.801
 127190433.209 6  99109481.65842  24203542.883                    24203552.500
 108904483.332 8  84860776.11946  20723821.734                    20723827.273
 109458510.954 8  85292459.11146  20829239.508                    20829246.961
 116913178.968 7  91101272.989 7  22247845.328                    22247852.496
 121878756.872 7  94970572.583 6  23192761.305                    23192771.074
 11  8 13  0 18 30.0000000  0  9G30G09G17G10G28G02G04G12G05
 127774631.393 6  99564712.38743  24314712.617                    24314720.559
 120078303.252 7  93567584.20644  22850148.078                    22850157.563
 118666700.900 7  92467574.015 7  22581504.398                    22581511.617
 111070409.857 8  86548507.11045  21135984.656                    21135993.090
 127291535.436 6  99188262.54643  24222782.555                    24222791.297
 108883487.046 8  84844415.38146  20719825.992                    20719831.648
 109521841.387 8  85341807.49346  20841290.953                    20841298.816
 116832146.643 7  91038130.945 7  22232424.953                    22232432.980
 121775219.103 7  94889893.913 7  23173058.578                    23173068.578
 11  8 13  0 19  0.0000000  0  9G30G09G17G10G28G02G04G12G05
 127668349.129 6  99481895.16343  24294487.430                    24294495.844
 120141444.859 7  93616785.38344  22862162.898                    22862173.305
 118711719.751 7  92502653.625 7  22590071.047                    22590078.500
 111031513.477 8  86518198.28546  21128583.047                    21128591.113
 127392837.931 6  99267199.41642  24242059.617                    24242068.340
 108862840.448 8  84828327.14046  20715896.984                    20715902.555
 109585453.669 8  85391375.48846  20853396.148                    20853403.766
 116751393.908 7  90975206.760 7  22217058.578                    22217066.035
 121671796.580 7  94809305.032 7  23153377.906                    23153387.926
 11  8 13  0 19 30.0000000  0  9G30G09G17G10G28G02G04G12G05
 127562216.289 6  99399194.29643  24274291.063                    24274299.828
 120204953.776 7  93666272.78344  22874249.031                    22874258.570
 118756860.374 7  92537828.086 6  22598661.000                    22598668.461
 110993175.216 8  86488324.35246  21121287.633                    21121296.082
 127494338.694 6  99346290.93842  24261374.703                    24261383.594
 108842542.852 8  84812510.84646  20712034.680                    20712040.273
 109649345.099 8  85441160.99746  20865554.359                    20865562.078
 116670923.024 7  90912502.206 7  22201745.266                    22201753.102
 121568492.098 7  94728808.138 7  23133719.836                    23133729.406
 11  8 13  0 20  0.0000000  0  9G30G09G17G10G28G02G04G12G05
 127456236.025 6  99316612.34943  24254123.406                    24254132.270
 120268827.532 7  93716044.44344  22886403.617                    22886413.480
 118802123.374 7  92573097.927 7  22607274.164                    22607281.535
 110955397.676 8  86458887.34146  21114098.828                    21114107.219
 127596036.207 6  99425535.68542  24280726.922                    24280736.813
 108822594.180 8  84796966.43746  20708238.492                    20708244.344
 109713514.050 8  85491162.77046  20877765.133                    20877773.203
 116590737.055 8  90850019.666 7  22186486.469                    22186493.676
 121465309.432 7  94648406.163 7  23114084.227                    23114094.559
 11  8 13  0 20 30.0000000  0  9G30G09G17G10G28G02G04G12G05
 127350410.851 6  99234151.25343  24233985.164                    24233994.684
 120333062.705 7  93766097.78044  22898627.180                    22898636.703
 118847509.411 7  92608463.622 7  22615911.008                    22615918.852
 110918182.695 8  86429888.68046  21107017.383                    21107025.262
 127697928.115 6  99504931.91443  24300116.500                    24300126.238
 108802993.528 8  84781693.21846  20704508.445                    20704514.496
 109777957.776 8  85541378.64846  20890028.484                    20890036.402
 116510838.649 7  90787761.193 7  22171282.133                    22171289.863
 121362250.708 7  94568100.747 7  23094473.078                    23094482.840
 11  8 13  0 21  0.0000000  0  9G30G09G17G10G28G02G04G12G05
 127244743.377 6  99151813.02743  24213877.539                    24213887.047
 120397655.768 7  93816429.96844  22910919.453                    22910928.387
 118893019.037 7  92643925.641 7  22624571.281                    22624578.824
 110881531.934 8  86401329.67446  21100042.438                    21100050.629
 127800012.624 6  99584478.23343  24319542.172                    24319552.457
 108783739.971 8  84766690.46446  20700845.289                    20700850.699
 109842673.887 8  85591806.77946  20902343.055                    20902351.293
 116431230.173 8  90725728.637 7  22156133.125                    22156141.078
 121259319.158 7  94487894.451 7  23074885.305                    23074895.602
 11  8 13  0 21 30.0000000  0  8G30G09G17G10G02G04G12G05
 127139236.698 6  99069600.09543  24193799.563                    24193809.633
 120462603.805 7  93867038.79144  22923278.109                    22923287.984
 118938653.068 7  92679484.599 7  22633255.039                    22633262.645
 110845447.755 8  86373212.16746  21093175.508                    21093183.879
 108764833.211 8  84751957.93646  20697246.516                    20697252.305
 109907660.355 8  85642445.58346  20914710.055                    20914717.793
 116351914.589 7  90663924.317 7  22141039.883                    22141047.188
 121156518.150 7  94407789.885 7  23055323.039                    23055332.754
 11  8 13  0 22  0.0000000  0  8G30G09G17G10G02G04G12G05
 127033892.856 6  98987514.05943  24173753.500                    24173763.426
 120527902.967 7  93917921.16144  22935704.477                    22935713.914
 118984411.570 7  92715140.540 7  22641962.680                    22641970.617
 110809931.449 8  86345537.14846  21086417.297                    21086425.645
 108746271.809 8  84737494.52046  20693714.813                    20693720.398
 109972914.418 8  85693292.88846  20927127.328                    20927135.137
 116272894.096 8  90602349.934 7  22126002.867                    22126010.500
 121053849.951 7  94327788.793 7  23035785.531                    23035795.680
 11  8 13  0 22 30.0000000  0  8G30G09G17G10G02G04G12G05
 126928714.693 6  98905557.08643  24153738.984                    24153748.328
 120593550.345 7  93969074.85644  22948196.961                    22948206.391
 119030295.109 7  92750893.917 7  22650694.828                    22650701.887
 110774984.759 8  86318305.98846  21079767.023                    21079775.352
 108728055.369 8  84723299.91046  20690247.969                    20690254.129
 110038433.579 8  85744346.77246  20939595.258                    20939603.055
 116194170.957 7  90541007.274 7  22111022.313                    22111029.992
 120951317.749 7  94247893.669 7  23016274.914                    23016284.445
 11  8 13  0 23  0.0000000  0  8G30G09G17G10G02G04G12G05
 126823705.082 6  98823731.43443  24133756.586                    24133765.605
 120659542.831 7  94020497.46944  22960754.883                    22960764.164
 119076304.741 7  92786745.554 7  22659449.461                    22659457.074
 110740610.136 8  86291520.59246  21073225.914                    21073233.695
 108710183.447 8  84709373.75846  20686847.375                    20686852.941
 110104215.897 8  85795605.70146  20952113.180                    20952121.023
 116115748.069 8  90479898.577 7  22096098.727                    22096106.555
 120848924.631 7  94168106.937 7  22996789.320                    22996799.434
 11  8 13  0 23 30.0000000  0  8G30G09G17G10G02G04G12G05
 126718866.354 6  98742038.94943  24113806.180                    24113815.527
 120725876.488 7  94072185.92344  22973377.867                    22973387.547
 119122440.561 7  92822695.514 7  22668228.688                    22668236.762
 110706808.531 8  86265181.71146  21066793.766                    21066801.797
 108692654.492 8  84695714.85146  20683511.680                    20683517.184
 110170258.368 8  85847067.35346  20964680.836                    20964688.738
 116037627.580 7  90419025.513 7  22081233.039                    22081240.980
 120746672.927 7  94088430.402 7  22977331.594                    22977341.582
 11  8 13  0 24  0.0000000  0  8G30G09G17G10G02G04G12G05
 126614201.755 6  98660482.12043  24093889.461                    24093898.141
 120792548.668 7  94124138.27944  22986064.844                    22986074.703
 119168703.293 7  92858744.381 7  22677031.922                    22677040.293
 110673582.535 8  86239291.34146  21060470.742                    21060479.191
 108675468.433 8  84682323.13846  20680241.156                    20680246.992
 110236559.313 8  85898730.41746  20977297.141                    20977305.074
 115959812.494 7  90358390.420 7  22066425.594                    22066432.984
 120644566.351 7  94008866.953 7  22957901.055                    22957911.133
 11  8 13  0 24 30.0000000  0  8G30G09G17G10G02G04G12G05
 126509714.093 6  98579063.18443  24074006.414                    24074015.516
 120859555.988 7  94176351.82744  22998815.891                    22998825.957
 119215093.940 7  92894892.939 7  22685860.016                    22685867.953
 110640933.910 7  86213850.86946  21054258.469                    21054266.363
 108658624.441 8  84669197.96346  20677035.625                    20677041.398
 110303116.435 8  85950593.10646  20989962.367                    20989970.625
 115882305.472 7  90297995.373 7  22051676.398                    22051684.160
 120542607.748 7  93929418.804 7  22938499.172                    22938508.949
 11  8 13  0 25  0.0000000  0  8G30G09G17G10G02G04G12G05
 126405405.776 6  98497784.01043  24054156.445                    24054165.813
 120926894.433 7  94228823.26544  23011630.375                    23011639.809
 119261612.729 7  92931141.309 7  22694712.445                    22694720.016
 110608863.895 8  86188861.27646  21048155.609                    21048163.738
 108642121.585 8  84656338.60346  20673895.883                    20673901.344
 110369927.141 8  86002653.39146  21002676.117                    21002684.770
 115805108.860 8  90237842.199 7  22036985.836                    22036993.473
 120440799.603 7  93850087.872 6  22919125.617                    22919135.203
 11  8 13  0 25 30.0000000  0  8G30G09G17G10G02G04G12G05
 126301280.082 6  98416647.10543  24034341.188                    24034350.523
 120994561.553 7  94281550.81044  23024506.766                    23024516.629
 119308260.520 7  92967490.219 7  22703589.141                    22703597.383
 110577374.819 8  86164324.36246  21042163.188                    21042171.715
 108625959.613 8  84643744.87446  20670820.102                    20670825.906
 110436989.492 8  86054909.74946  21015438.031                    21015445.980
 115728225.682 8  90177933.253 7  22022356.055                    22022363.113
 120339145.733 7  93770877.157 7  22899781.570                    22899791.199
 11  8 13  0 26  0.0000000  0  8G30G09G17G10G02G04G12G05
 126197339.469 6  98335654.44243  24014562.953                    24014571.523
 121062553.569 7  94334531.50044  23037445.063                    23037455.328
 119355037.710 7  93003939.971 7  22712490.961                    22712498.629
 110546468.344 8  86140241.41546  21036281.875                    21036289.523
 108610137.344 8  84631415.84546  20667809.078                    20667814.711
 110504300.905 8  86107360.18346  21028246.898                    21028254.902
 115651658.222 8  90118270.327 7  22007785.828                    22007792.816
 120237648.813 7  93691788.764 7  22880467.281                    22880477.223
 11  8 13  0 26 30.0000000  0  8G30G09G17G10G02G04G12G05
 126093586.468 6  98254807.97743  23994818.922                    23994827.957
 121130867.153 7  94387762.77844  23050445.172                    23050454.930
 119401944.880 7  93040490.988 7  22721416.719                    22721424.891
 110516145.738 8  86116613.43346  21030511.227                    21030519.762
 108594653.903 8  84619350.83246  20664862.641                    20664868.434
 110571858.860 8  86160002.73346  21041102.727                    21041110.672
 115575408.946 8  90058855.338 7  21993275.695                    21993282.742
 120136311.670 7  93612824.862 7  22861183.742                    22861193.180
 11  8 13  0 27  0.0000000  0  8G30G09G17G10G02G04G12G05
 125990024.007 6  98174110.01543  23975111.852                    23975121.328
 121199499.373 7  94441242.37544  23063505.539                    23063515.613
 119448982.502 7  93077143.668 7  22730367.438                    22730375.973
 110486408.794 8  86093441.80446  21024852.906                    21024860.965
 108579508.763 8  84607549.43946  20661980.695                    20661986.668
 110639661.397 8  86212835.86646  21054005.055                    21054013.129
 115499480.488 7  89999690.330 7  21978827.023                    21978834.234
 120035137.367 7  93533987.846 7  22841930.117                    22841939.988
 11  8 13  0 27 30.0000000  0  8G30G09G17G10G02G04G12G05
 125886654.495 6  98093562.36443  23955441.891                    23955450.277
 121268446.323 7  94494967.18844  23076625.602                    23076635.688
 119496151.316 7  93113898.573 6  22739343.711                    22739351.820
 110457258.833 8  86070727.58345  21019305.711                    21019313.656
 108564700.824 8  84596010.81346  20659162.742                    20659168.563
 110707705.775 8  86265857.44746  21066953.633                    21066961.711
 115423875.461 8  89940777.351 7  21964439.875                    21964447.273
 119934128.856 7  93455280.027 7  22822709.516                    22822718.805
 11  8 13  0 28  0.0000000  0  8G30G09G17G10G02G04G12G05
 125783481.422 6  98013167.80343  23935808.656                    23935817.793
 121337705.015 7  94548934.92744  23089804.914                    23089815.012
 119543452.156 7  93150756.337 7  22748344.742                    22748352.387
 110428697.931 7  86048472.36746  21013871.063                    21013878.879
 108550229.592 8  84584734.54346  20656409.039                    20656414.402
 110775990.225 8  86319066.10146  21079947.836                    21079956.055
 115348597.030 7  89882118.844 7  21950114.430                    21950122.324
 119833288.940 7  93376703.566 7  22803520.297                    22803529.254
 11  8 13  0 28 30.0000000  0  8G30G09G17G10G02G04G12G05
 125680507.166 6  97932928.14643  23916213.141                    23916222.031
 121407272.017 7  94603142.87144  23103042.875                    23103053.332
 119590885.336 6  93187717.239 7  22757370.750                    22757379.043
 110400727.335 8  86026677.12846  21008547.977                    21008556.012
 108536093.777 8  84573719.63946  20653719.289                    20653724.547
 110844512.213 8  86372459.85146  21092987.031                    21092995.199
 115273646.736 8  89823716.037 7  21935852.281                    21935859.477
 119732620.544 7  93298260.748 7  22784363.281                    22784372.418
 11  8 13  0 29  0.0000000  0  8G30G09G17G10G02G04G12G05
 125577734.639 6  97852845.68143  23896655.891                    23896665.266
 121477144.091 7  94657588.56444  23116339.484                    23116349.590
 119638451.475 7  93224781.725 7  22766422.977                    22766430.332
 110373348.879 8  86005343.28546  21003338.398                    21003345.824
 108522292.922 8  84562965.74146  20651092.891                    20651098.414
 110913269.479 8  86426036.94046  21106070.797                    21106079.199
 115199027.534 8  89765571.214 7  21921652.609                    21921659.633
 119632127.150 7  93219954.315 7  22765239.602                    22765249.520
 11  8 13  0 29 30.0000000  0  8G30G09G17G10G02G04G12G05
 125475166.203 6  97772922.27943  23877137.836                    23877146.887
 121547317.481 7  94712269.07844  23129693.219                    23129703.199
 119686151.091 7  93261950.231 7  22775498.945                    22775507.434
 110346563.151 8  85984471.30746  20998241.016                    20998249.043
 108508825.820 8  84552471.90946  20648530.258                    20648535.637
 110982259.290 8  86479795.23146  21119199.266                    21119206.887
 115124741.691 7  89707686.146 7  21907515.945                    21907523.418
 119531811.326 7  93141786.240 7  22746150.047                    22746159.633
 11  8 13  0 30  0.0000000  0  8G30G09G17G10G02G04G12G05
 125372805.341 6  97693160.61943  23857658.906                    23857667.488
 121617789.541 7  94767182.33144  23143103.383                    23143113.359
 119733985.173 7  93299223.494 6  22784601.789                    22784610.102
 110320372.542 8  85964063.07546  20993257.148                    20993264.926
 108495692.507 8  84542238.16846  20646030.977                    20646036.516
 111051480.346 8  86533733.71346  21132371.633                    21132379.613
 115050792.531 7  89650063.436 7  21893444.047                    21893452.023
 119431676.638 7  93063759.308 7  22727095.344                    22727104.699
 11  8 13  0 30 30.0000000  0  8G30G09G17G10G02G04G12G05
 125270654.020 6  97613562.25743  23838220.227                    23838229.410
 121688555.717 7  94822324.72644  23156570.188                    23156579.824
 119781953.529 7  93336601.389 6  22793729.844                    22793737.895
 110294777.597 8  85944118.98745  20988386.594                    20988394.496
 108482890.677 8  84532262.71846  20643594.719                    20643600.250
 111120929.255 8  86587849.75246  21145587.453                    21145595.398
 114977181.727 8  89592704.377 7  21879436.742                    21879444.066
 119331725.235 7  92985875.199 7  22708075.039                    22708084.145
 11  8 13  0 31  0.0000000  0  8G30G09G17G10G02G04G12G05
 125168716.059 6  97534130.09843  23818822.867                    23818831.059
 121759613.947 7  94877694.71044  23170091.586                    23170102.063
 119830057.808 7  93374085.193 7  22802883.297                    22802892.117
 110269781.204 8  85924641.30846  20983629.320                    20983637.523
 108470420.926 8  84522546.03846  20641222.109                    20641227.473
 111190604.729 8  86642142.32746  21158846.219                    21158854.391
 114903912.749 7  89535611.675 7  21865494.250                    21865501.883
 119231960.828 7  92908136.786 7  22689090.492                    22689099.695
 11  8 13  0 31 30.0000000  0  8G30G09G17G10G02G04G12G05
 125066993.733 6  97454866.01243  23799464.633                    23799473.680
 121830960.305 7  94933289.21444  23183668.406                    23183679.008
 119878298.091 7  93411674.969 7  22812064.406                    22812072.414
 110245384.157 8  85905630.64146  20978987.164                    20978994.918
 108458281.675 8  84513086.88846  20638911.961                    20638917.641
 111260504.323 8  86696609.53946  21172147.438                    21172155.512
 114830987.788 7  89478787.034 7  21851617.000                    21851624.633
 119132385.937 7  92830546.054 7  22670141.734                    22670151.559
 11  8 13  0 32  0.0000000  0  8G30G09G17G10G02G04G12G05
 124965489.639 6  97375771.96943  23780149.117                    23780158.688
 121902591.440 7  94989105.60744  23197299.992                    23197310.117
 119926674.908 7  93449371.162 7  22821269.508                    22821277.957
 110221587.251 8  85887087.63046  20974458.820                    20974466.379
 108446472.251 8  84503884.75146  20636664.758                    20636670.008
 111330625.136 8  86751249.13146  21185490.797                    21185499.191
 114758409.104 7  89422232.227 7  21837805.391                    21837813.004
 119033003.670 7  92753105.429 7  22651229.578                    22651238.988
 11  8 13  0 32 30.0000000  0  8G30G09G17G10G02G04G12G05
 124864207.282 6  97296850.71643  23760876.109                    23760885.266
 121974504.426 7  95045141.61544  23210984.453                    23210994.625
 119975189.471 7  93487174.700 7  22830502.055                    22830510.242
 110198392.830 8  85869014.07546  20970045.250                    20970052.770
 108434991.958 8  84494939.08246  20634479.898                    20634485.313
 111400965.831 8  86806060.05446  21198876.750                    21198884.453
 114686180.099 8  89365949.883 7  21824060.758                    21824068.660
 118933817.635 7  92675817.690 7  22632355.813                    22632364.699
 11  8 13  0 33  0.0000000  0  8G30G09G17G10G02G04G12G05
 124763149.373 7  97218104.33543  23741645.000                    23741654.133
 122046695.440 6  95101394.30144  23224722.633                    23224732.285
 120023842.065 7  93525085.803 7  22839760.352                    22839768.480
 110175801.975 8  85851410.83746  20965746.305                    20965754.129
 108423839.969 8  84486249.22746  20632358.117                    20632363.031
 111471524.093 7  86861040.51245  21212303.508                    21212311.066
 114614303.141 8  89309941.872 7  21810383.445                    21810390.828
 118834830.676 7  92598685.093 7  22613518.695                    22613527.895
 11  8 13  0 33 30.0000000  0  8G30G09G17G10G02G04G12G05
 124662318.204 6  97139534.59543  23722457.414                    23722466.313
 122119161.020 7  95157860.91144  23238512.102                    23238521.977
 120072632.907 7  93563104.628 7  22849045.109                    22849052.746
 110153815.515 8  85834278.56446  20961562.102                    20961570.359
 108413015.109 8  84477814.28646  20630298.117                    20630303.531
 111542297.126 8  86916188.33145  21225770.930                    21225778.914
 114542780.159 8  89254209.685 7  21796772.898                    21796780.480
 118736045.195 7  92521709.476 7  22594720.289                    22594729.539
 11  8 13  0 34  0.0000000  0  8G30G09G17G10G02G04G12G05
 124561716.856 7  97061143.99143  23703313.422                    23703322.469
 122191897.908 7  95214538.94744  23252352.992                    23252362.945
 120121562.808 7  93601231.791 7  22858355.336                    22858363.969
 110132435.181 8  85817618.58546  20957493.930                    20957501.750
 108402516.597 8  84469633.64146  20628299.859                    20628305.230
 111613282.858 8  86971501.87546  21239279.328                    21239287.086
 114471613.879 7  89198755.457 7  21783230.734                    21783238.160
 118637464.329 7  92444893.292 7  22575961.188                    22575970.418
 11  8 13  0 34 30.0000000  0  8G30G09G17G10G02G04G12G05
 124461347.842 7  96982934.38243  23684213.469                    23684222.641
 122264902.139 7  95271425.30344  23266245.258                    23266255.570
 120170632.056 7  93639467.546 7  22867693.227                    22867701.832
 110111661.419 7  85801431.25746  20953540.320                    20953548.234
 108392342.943 8  84461706.12946  20626364.055                    20626369.563
 111684478.844 8  87026979.24945  21252827.438                    21252835.320
 114400806.657 7  89143581.007 7  21769756.172                    21769763.457
 118539090.799 7  92368238.679 7  22557240.969                    22557250.488
 11  8 13  0 35  0.0000000  0  9G30G09G17G25G10G02G04G12G05
 124361214.035 7  96904908.08943  23665159.508                    23665168.020
 122338170.732 7  95328517.61944  23280187.750                    23280198.344
 120219841.243 7  93677812.337 7  22877057.836                    22877066.195
 129553310.09516 100950693.06116  24653185.531                    24653196.430
 110091495.692 8  85785717.72246  20949703.102                    20949710.988
 108382493.398 8  84454031.18246  20624489.805                    20624494.984
 111755882.881 8  87082618.75245  21266415.070                    21266423.230
 114330360.945 8  89088688.254 7  21756350.469                    21756358.480
 118440928.071 7  92291748.324 7  22538561.070                    22538570.656
 11  8 13  0 35 30.0000000  0  9G30G09G17G25G10G02G04G12G05
 124261317.658 6  96827066.79243  23646149.109                    23646158.383
 122411699.790 7  95385812.91744  23294180.508                    23294190.484
 120269190.465 7  93716266.272 7  22886448.563                    22886456.637
 129450040.618 6 100870223.385 6  24633534.195                    24633545.258
 110071938.724 8  85770478.54546  20945981.523                    20945989.313
 108372966.531 8  84446607.65546  20622676.711                    20622682.324
 111827492.160 8  87138418.16145  21280041.805                    21280049.777
 114260278.680 8  89034078.717 7  21743014.484                    21743021.879
 118342977.913 7  92215423.592 7  22519921.992                    22519931.371
 11  8 13  0 36  0.0000000  0  9G30G09G17G25G10G02G04G12G05
 124161661.790 7  96749412.91644  23627186.375                    23627195.016
 122485485.983 7  95443308.58144  23308221.883                    23308231.797
 120318680.582 7  93754829.975 7  22895866.680                    22895874.254
 129346876.833 6 100789836.072 6  24613902.430                    24613914.492
 110052991.732 8  85755714.66546  20942376.242                    20942383.766
 108363761.571 8  84439434.97746  20620925.047                    20620930.879
 111899304.678 8  87194375.94745  21293707.219                    21293715.105
 114190562.721 7  88979754.594 7  21729748.016                    21729755.328
 118245243.844 7  92139267.259 7  22501324.125                    22501333.262
 11  8 13  0 36 30.0000000  0  9G30G09G17G25G10G02G04G12G05
 124062249.759 6  96671949.05543  23608268.188                    23608276.953
 122559526.215 7  95501002.21144  23322311.070                    23322321.293
 120368312.749 7  93793504.392 7  22905310.680                    22905319.137
 129243821.665 7 100709533.380 6  24594292.313                    24594303.195
 110034656.691 8  85741427.63746  20938886.891                    20938894.793
 108354878.191 8  84432512.87846  20619235.219                    20619240.910
 111971318.764 8  87250490.79545  21307411.094                    21307419.094
 114121215.973 8  88925718.175 7  21716551.805                    21716559.000
 118147729.322 7  92063281.978 7  22482767.008                    22482776.695
 11  8 13  0 37  0.0000000  0  9G30G09G17G25G10G02G04G12G05
 123963084.533 6  96594677.49843  23589398.156                    23589406.980
 122633817.431 7  95558891.40844  23336448.305                    23336458.156
 120418087.502 7  93832289.910 7  22914783.281                    22914790.977
 129140877.717 7 100629317.355 6  24574702.492                    24574713.871
 110016934.793 8  85727618.37746  20935514.906                    20935522.508
 108346315.451 8  84425840.62346  20617605.484                    20617610.906
 112043532.291 8  87306761.05945  21321152.664                    21321160.680
 114052241.275 7  88871971.665 7  21703426.211                    21703433.699
 118050437.458 7  91987470.210 7  22464253.250                    22464262.633
 11  8 13  0 37 30.0000000  0  9G30G09G17G25G10G02G04G12G05
 123864169.057 6  96517600.56143  23570574.180                    23570583.703
 122708356.182 7  95616973.47044  23350632.203                    23350642.281
 120468005.351 7  93871186.934 7  22924281.766                    22924290.262
 129038047.496 6 100549189.971 6  24555134.070                    24555145.574
 109999826.840 8  85714287.52146  20932259.039                    20932266.730
 108338072.641 8  84419417.66946  20616036.820                    20616042.258
 112115943.290 8  87363185.19545  21334932.367                    21334939.824
 113983640.949 8  88818516.871 7  21690372.000                    21690379.688
 117953371.259 7  91911834.284 7  22445782.063                    22445791.156
 11  8 13  0 38  0.0000000  0  9G30G09G17G25G10G02G04G12G05
 123765505.941 6  96440720.28043  23551799.961                    23551808.938
 122783138.795 7  95675245.55644  23364862.945                    23364873.707
 120518067.327 6  93910196.275 6  22933808.148                    22933816.602
 128935333.386 6 100469153.044 6  24535588.266                    24535599.313
 109983333.846 8  85701435.84546  20929120.516                    20929128.168
 108330148.467 8  84413243.00246  20614528.984                    20614534.223
 112188549.243 8  87419761.23545  21348749.086                    21348756.836
 113915417.222 8  88765355.538 7  21677389.305                    21677397.121
 117856533.464 7  91836376.330 7  22427354.359                    22427363.438
 11  8 13  0 38 30.0000000  0  9G30G09G17G25G10G02G04G12G05
 123667098.076 6  96364038.89144  23533073.227                    23533082.191
 122858161.971 7  95733705.08144  23379139.117                    23379149.980
 120568273.463 7  93949317.938 7  22943361.789                    22943370.188
 128832737.951 6 100389208.581 6  24516065.258                    24516076.754
 109967456.672 8  85689064.03846  20926099.516                    20926107.082
 108322542.117 8  84407315.99246  20613081.289                    20613087.027
 112261348.083 8  87476487.58445  21362602.039                    21362609.754
 113847573.019 8  88712489.938 7  21664479.453                    21664486.867
 117759927.224 7  91761098.819 7  22408971.055                    22408980.277
 11  8 13  0 39  0.0000000  0  9G30G09G17G25G10G02G04G12G05
 123568948.333 6  96287558.63344  23514395.820                    23514404.762
 122933422.465 7  95792349.53244  23393461.172                    23393471.793
 120618624.379 7  93988552.418 6  22952943.266                    22952951.422
 128730263.604 6 100309358.485 6  24496564.492                    24496575.922
 109952196.380 8  85677172.92046  20923194.961                    20923203.039
 108315252.577 8  84401635.83946  20611694.359                    20611699.680
 112334337.624 8  87533362.51745  21376491.539                    21376499.859
 113780110.730 8  88659921.921 7  21651641.844                    21651649.219
 117663555.541 7  91686004.082 7  22390631.648                    22390640.922
 11  8 13  0 39 30.0000000  0  9G30G09G17G25G10G02G04G12G05
 123471059.374 6  96211281.57244  23495768.531                    23495777.598
 123008916.401 7  95851175.84044  23407826.820                    23407837.711
 120669121.016 6  94027900.441 6  22962553.164                    22962560.672
 128627912.747 6 100229604.641 6  24477087.563                    24477099.039
 109937553.804 7  85665763.13946  20920408.766                    20920416.574
 108308278.724 8  84396201.66846  20610366.742                    20610372.629
 112407515.544 8  87590384.23745  21390416.852                    21390424.570
 113713032.768 8  88607653.402 7  21638877.125                    21638884.828
 117567421.122 7  91611094.221 7  22372338.094                    22372346.988
 11  8 13  0 40  0.0000000  0  9G30G09G17G25G10G02G04G12G05
 123373434.229 6  96135210.07843  23477190.531                    23477199.281
 123084640.743 7  95910181.71744  23422237.813                    23422247.578
 120719763.838 6  94067362.392 6  22972189.445                    22972197.711
 128525688.032 6 100149949.090 6  24457635.383                    24457646.734
 109923530.146 8  85654835.64046  20917740.109                    20917747.949
 108301619.817 8  84391012.91046  20609099.758                    20609105.242
 112480879.961 7  87647551.27645  21404377.609                    21404385.512
 113646341.676 8  88555686.341 7  21626186.320                    21626193.660
 117471527.071 7  91536371.657 7  22354090.281                    22354099.629
 11  8 13  0 40 30.0000000  0  9G30G09G17G25G10G02G04G12G05
 123276075.740 7  96059346.36044  23458664.281                    23458673.242
 123160592.261 7  95969364.63044  23436690.328                    23436701.293
 120770552.897 6  94106938.253 6  22981854.320                    22981862.109
 128423592.022 6 100070393.815 6  24438206.141                    24438217.793
 109910126.385 8  85644391.16646  20915189.852                    20915197.641
 108295274.672 8  84386068.63946  20607892.359                    20607898.160
 112554428.732 8  87704861.96745  21418373.430                    21418381.359
 113580039.529 8  88504022.351 7  21613569.336                    21613576.434
 117375876.582 7  91461838.886 7  22335888.188                    22335897.113
 11  8 13  0 41  0.0000000  0  9G30G09G17G25G10G02G04G12G05
 123178986.546 6  95983692.47544  23440188.734                    23440197.609
 123236767.037 6  96028721.50944  23451186.594                    23451197.164
 120821489.223 6  94146628.869 6  22991546.641                    22991554.984
 128321627.053 6  99990940.623 6  24418802.953                    24418814.996
 109897343.167 8  85634430.23046  20912756.867                    20912764.906
 108289242.077 8  84381367.91646  20606744.547                    20606749.906
 112628159.286 8  87762314.31945  21432403.438                    21432412.000
 113514128.914 8  88452663.464 7  21601026.633                    21601034.254
 117280472.329 7  91387497.975 7  22317733.680                    22317742.129
 11  8 13  0 41 30.0000000  0  9G30G09G17G25G10G02G04G12G05
 123082169.601 6  95908250.71943  23421764.211                    23421773.605
 123313161.951 6  96088249.97044  23465723.359                    23465733.805
 120872573.331 6  94186434.644 6  23001268.492                    23001276.098
 128219795.649 6  99911591.527 6  24399425.703                    24399437.082
 109885181.571 8  85624953.68046  20910442.641                    20910450.531
 108283521.212 8  84376910.09946  20605655.773                    20605661.309
 112702069.784 8  87819906.87645  21446468.586                    21446476.910
 113448612.417 8  88401611.678 7  21588559.234                    21588566.617
 117185317.273 7  91313351.233 7  22299625.625                    22299634.891
 11  8 13  0 42  0.0000000  0  9G30G09G17G25G10G02G04G12G05
 122985627.527 6  95833023.17343  23403393.406                    23403402.027
 123389773.338 6  96147947.06144  23480302.617                    23480312.898
 120923805.602 6  94226355.861 6  23011016.898                    23011025.867
 128118100.148 7  99832348.329 6  24380073.563                    24380085.258
 109873641.936 8  85615961.77546  20908246.625                    20908254.664
 108278110.791 8  84372694.18446  20604626.523                    20604631.902
 112776157.750 8  87877637.73145  21460567.133                    21460575.344
 113383492.238 8  88350868.718 7  21576167.508                    21576174.684
 117090414.372 7  91239400.989 7  22281566.258                    22281574.949
 11  8 13  0 42 30.0000000  0  9G30G09G17G25G10G02G04G12G05
 122889363.630 6  95758012.32143  23385074.641                    23385083.902
 123466598.100 6  96207810.43944  23494922.117                    23494932.504
 120975186.816 7  94266393.124 6  23020795.320                    23020803.285
 128016543.517 6  99753213.341 6  24360747.930                    24360759.156
 109862725.298 8  85607455.33146  20906169.289                    20906177.484
 108273010.347 8  84368719.81646  20603656.047                    20603661.297
 112850421.544 8  87935505.59045  21474699.305                    21474707.148
 113318771.662 8  88300437.136 7  21563851.305                    21563858.555
 116995766.803 7  91165649.695 7  22263555.633                    22263564.406
 11  8 13  0 43  0.0000000  0  9G30G09G17G25G10G02G04G12G05
 122793380.317 6  95683220.15943  23366809.625                    23366818.547
 123543632.499 6  96267837.20344  23509580.898                    23509591.063
 121026717.518 7  94306546.884 7  23030601.070                    23030609.262
 127915127.969 6  99674188.260 6  24341449.430                    24341460.879
 109852432.294 8  85599434.83646  20904210.906                    20904218.852
 108268218.429 8  84364985.86346  20602744.047                    20602749.469
 112924858.761 8  87993508.57445  21488864.156                    21488872.059
 113254451.739 8  88250317.750 7  21551611.641                    21551618.879
 116901377.008 7  91092099.264 7  22245593.594                    22245602.555
 11  8 13  0 43 30.0000000  0  9G30G09G17G25G10G02G04G12G05
 122697680.737 6  95608649.04444  23348598.977                    23348607.770
 123620873.288 6  96328024.75044  23524278.727                    23524289.863
 121078398.327 7  94346817.595 6  23040436.242                    23040444.309
 127813856.292 6  99595275.278 6  24322178.227                    24322189.586
 109842763.611 8  85591900.81346  20902370.734                    20902378.727
 108263734.406 8  84361491.84046  20601890.563                    20601896.121
 112999467.453 7  88051645.18845  21503061.766                    21503069.594
 113190535.866 8  88200513.207 7  21539448.977                    21539456.426
 116807248.220 7  91018752.226 7  22227681.633                    22227690.406
 11  8 13  0 44  0.0000000  0  9G30G09G17G25G10G02G04G12G05
 122602267.690 6  95534301.22643  23330442.234                    23330451.023
 123698317.164 7  96388370.54544  23539016.664                    23539026.727
 121130229.804 7  94387205.700 7  23050299.133                    23050307.617
 127712730.981 6  99516476.355 6  24302934.344                    24302946.031
 109833720.111 8  85584853.93546  20900650.109                    20900657.832
 108259557.322 8  84358236.99346  20601095.820                    20601101.598
 113074245.419 8  88109913.70745  21517291.625                    21517299.941
 113127026.305 8  88151025.276 7  21527363.500                    21527370.512
 116713383.608 7  90945611.044 7  22209819.227                    22209828.359
 11  8 13  0 44 30.0000000  0  9G30G09G17G25G10G02G04G12G05
 122507143.756 6  95460178.69343  23312340.328                    23312349.160
 123775960.356 7  96448871.68744  23553791.539                    23553801.727
 121182212.230 7  94427711.430 7  23060191.227                    23060199.668
 127611754.290 6  99437793.249 6  24283719.125                    24283730.809
 109825302.448 8  85578294.73846  20899047.969                    20899055.680
 108255685.460 8  84355219.97046  20600358.789                    20600364.727
 113149190.553 8  88168312.46645  21531552.984                    21531561.250
 113063925.097 8  88101855.534 7  21515355.648                    21515363.297
 116619785.665 7  90872677.646 7  22192008.391                    22192017.242
 11  8 13  0 45  0.0000000  0  9G30G09G17G25G10G02G04G12G05
 122412311.982 6  95386283.82444  23294294.609                    23294303.156
 123853799.732 7  96509525.65444  23568604.273                    23568615.129
 121234346.151 7  94468335.207 7  23070111.781                    23070120.391
 127510928.993 6  99359228.079 6  24264532.758                    24264544.516
 109817511.276 8  85572223.71346  20897565.422                    20897573.168
 108252117.973 8  84352440.11246  20599679.859                    20599685.637
 113224300.566 8  88226839.72745  21545845.891                    21545854.566
 113001234.769 8  88053005.953 7  21503426.039                    21503433.379
 116526457.714 7  90799954.642 7  22174248.656                    22174257.547
 11  8 13  0 45 30.0000000  0  9G30G09G17G25G10G02G04G12G05
 122317775.322 6  95312618.88443  23276304.844                    23276313.332
 123931831.633 7  96570329.67244  23583452.391                    23583463.047
 121286632.419 7  94509077.681 7  23080062.000                    23080069.973
 127410257.746 7  99280782.980 6  24245375.914                    24245387.734
 109810347.173 8  85566641.30846  20896202.109                    20896209.668
 108248854.131 7  84349896.86546  20599058.727                    20599064.641
 113299573.856 8  88285494.20845  21560170.211                    21560178.465
 112938958.088 7  88004478.703 7  21491575.234                    21491582.688
 116433402.633 7  90727444.258 7  22156540.820                    22156549.758
 11  8 13  0 46  0.0000000  0  9G30G09G17G25G10G02G04G12G05
 122223536.432 6  95239186.01943  23258371.883                    23258380.293
 124010052.844 7  96631281.15444  23598338.914                    23598348.719
 121339071.368 7  94549939.142 7  23090040.578                    23090048.871
 127309743.047 7  99202459.868 6  24226248.086                    24226260.332
 109803810.662 8  85561547.93046  20894958.195                    20894965.887
 108245892.657 8  84347589.23346  20598495.211                    20598500.699
 113375007.926 8  88344273.98145  21574524.836                    21574533.445
 112877096.983 7  87956275.262 7  21479803.375                    21479810.531
 116340623.147 7  90655148.625 7  22138885.547                    22138894.586
 11  8 13  0 46 30.0000000  0  9G30G09G17G25G10G02G04G12G05
 122129598.120 6  95165987.38943  23240495.977                    23240504.535
 124088459.516 6  96692377.16244  23613257.852                    23613268.539
 121391663.928 7  94590920.311 7  23100048.695                    23100057.320
 127209387.354 6  99124260.664 6  24207151.906                    24207162.840
 109797902.305 8  85556944.02446  20893834.047                    20893841.676
 108243232.403 8  84345516.31046  20597989.289                    20597994.699
 113450600.776 8  88403177.47745  21588909.547                    21588917.809
 112815653.743 8  87908397.441 7  21468111.484                    21468118.598
 116248122.086 7  90583069.950 7  22121283.086                    22121291.672
 11  8 13  0 47  0.0000000  0  9G30G09G17G25G10G02G04G12G05
 122035963.437 6  95093025.33843  23222678.719                    23222686.699
 124167048.753 7  96753615.44843  23628213.406                    23628223.699
 121444410.451 7  94632021.439 7  23110085.438                    23110094.527
 127109193.503 7  99046187.542 6  24188084.570                    24188095.828
 109792622.648 8  85552830.02946  20892829.297                    20892837.305
 108240872.578 8  84343677.49746  20597540.188                    20597545.668
 113526350.646 8  88462203.31645  21603324.195                    21603332.926
 112754631.456 7  87860847.637 7  21456499.258                    21456506.852
 116155902.681 7  90511210.754 7  22103734.375                    22103743.391
 11  8 13  0 47 30.0000000  0  9G30G09G17G25G10G02G04G12G05
 121942634.985 6  95020301.92343  23204917.789                    23204926.512
 124245817.064 7  96814993.24844  23643202.344                    23643213.270
 121497311.182 7  94673242.736 7  23120152.516                    23120160.758
 127009163.806 6  98968242.353 6  24169050.523                    24169061.629
 109787971.962 7  85549206.12246  20891944.203                    20891951.805
 108238811.768 8  84342071.68146  20597148.234                    20597152.973
 113602255.038 8  88521349.56645  21617768.555                    21617776.738
 112694031.514 7  87813626.936 7  21444967.414                    21444974.566
 116063967.403 7  90439572.949 7  22086239.359                    22086248.316
 11  8 13  0 48  0.0000000  0  9G30G09G17G25G10G02G04G12G05
 121849615.893 6  94947819.58244  23187217.188                    23187226.012
 124324761.074 7  96876507.92843  23658225.195                    23658235.402
 121550366.860 7  94714584.775 7  23130248.438                    23130257.281
 126909301.086 6  98890427.294 6  24150046.531                    24150057.836
 109783951.020 7  85546072.93346  20891178.773                    20891186.773
 108237049.286 7  84340698.31046  20596812.578                    20596817.953
 113678312.178 8  88580614.84245  21632241.492                    21632249.926
 112633857.047 7  87766737.758 7  21433516.047                    21433523.535
 115972319.784 7  90368159.300 7  22068799.406                    22068808.355
 11  8 13  0 48 30.0000000  0  9G30G09G17G25G10G02G04G12G05
 121756908.899 6  94875580.42944  23169575.492                    23169584.133
 124403877.207 7  96938156.75244  23673280.758                    23673291.277
 121603578.221 7  94756048.140 7  23140373.953                    23140382.945
 126809607.936 6  98812744.381 6  24131075.297                    24131086.930
 109780560.124 7  85543430.66246  20890533.953                    20890542.074
 108235583.963 8  84339556.50246  20596533.680                    20596539.176
 113754520.131 8  88639997.63645  21646743.578                    21646751.820
 112574110.095 7  87720181.704 7  21422146.992                    21422154.289
 115880962.356 7  90296971.757 7  22051414.633                    22051423.234
 11  8 13  0 49  0.0000000  0  9G30G09G17G25G10G02G04G12G05
 121664516.527 6  94803586.42644  23151994.203                    23152002.996
 124483162.022 6  96999937.00944  23688368.813                    23688378.875
 121656945.557 7  94797633.030 7  23150530.203                    23150538.602
 126710086.616 6  98735195.335 6  24112136.992                    24112148.734
 109777799.468 7  85541279.51546  20890008.367                    20890016.367
 108234414.306 7  84338645.09246  20596311.148                    20596316.715
 113830876.556 8  88699496.12545  21661273.563                    21661282.152
 112514792.612 7  87673960.310 7  21410859.047                    21410866.598
 115789897.919 7  90226012.529 7  22034085.516                    22034093.906
 11  8 13  0 49 30.0000000  0  9G30G09G17G25G10G02G04G12G05
 121572442.100 7  94731840.16144  23134472.602                    23134481.992
 124562612.486 7  97061846.34444  23703486.555                    23703498.016
 121710469.772 7  94839340.195 7  23160715.461                    23160724.289
 126610740.225 6  98657782.587 6  24093232.148                    24093243.055
 109775669.817 7  85539620.05346  20889603.250                    20889610.594
 108233540.057 8  84337963.86746  20596144.570                    20596149.875
 113907379.772 8  88759108.98545  21675832.078                    21675840.238
 112455907.510 7  87628075.822 7  21399653.656                    21399660.676
 115699129.836 7  90155284.229 7  22016812.992                    22016821.375
 11  8 13  0 50  0.0000000  0  9G30G09G17G25G10G02G04G12G05
 121480688.193 7  94660343.64944  23117012.805                    23117021.309
 124642224.726 7  97123881.75444  23718636.977                    23718647.938
 121764150.959 7  94881169.651 6  23170930.250                    23170939.160
 126511571.130 7  98580507.998 6  24074361.039                    24074372.551
 109774171.281 8  85538452.37046  20889317.734                    20889325.586
 108232959.509 8  84337511.49746  20596034.281                    20596040.027
 113984027.737 8  88818834.64545  21690417.391                    21690425.684
 112397456.909 7  87582529.909 7  21388530.414                    21388537.965
 115608660.585 7  90084788.777 7  21999597.164                    21999605.852
 11  8 13  0 50 30.0000000  0  9G30G09G17G25G10G02G04G12G05
 121389257.668 6  94589099.10744  23099614.102                    23099622.582
 124721995.480 7  97186040.67044  23733816.688                    23733827.637
 121817989.803 7  94923121.987 6  23181175.633                    23181184.020
 126412581.901 7  98503373.559 6  24055523.945                    24055534.605
 109773304.337 7  85537776.84246  20889152.883                    20889160.695
 108232671.469 8  84337287.07046  20595979.469                    20595984.914
 114060818.220 8  88878671.35245  21705030.516                    21705038.727
 112339442.837 7  87537324.143 7  21377491.211                    21377498.633
 115518493.087 7  90014528.456 7  21982439.016                    21982447.688
 11  8 13  0 51  0.0000000  0  9G30G09G17G25G10G02G04G12G05
 121298153.181 7  94518108.63544  23082276.852                    23082285.699
 124801921.320 7  97248320.42644  23749027.047                    23749037.105
 121871986.755 7  94965197.520 6  23191451.102                    23191459.250
 126313775.119 7  98426381.248 6  24036721.195                    24036732.148
 109773069.008 7  85537593.46446  20889108.172                    20889116.012
 108232675.022 8  84337289.85046  20595980.414                    20595985.289
 114137749.354 8  88938617.66445  21719670.055                    21719678.063
 112281867.791 7  87492460.473 7  21366534.625                    21366542.414
 115428630.111 7  89944505.430 7  21965338.570                    21965347.047
 11  8 13  0 51 30.0000000  0  9G30G09G17G25G10G02G04G12G05
 121207377.696 6  94447374.53244  23065002.906                    23065011.969
 124881998.887 7  97310718.39944  23764264.734                    23764275.879
 121926142.419 7  95007396.740 6  23201756.828                    23201764.824
 126215153.426 7  98349533.179 6  24017954.344                    24017965.273
 109773465.365 7  85537902.32346  20889183.805                    20889191.543
 108232969.010 8  84337518.94146  20596036.297                    20596041.430
 114214819.002 8  88998671.88945  21734336.047                    21734343.938
 112224734.008 7  87447940.639 7  21355662.727                    21355670.172
 115339074.667 7  89874722.045 7  21948296.266                    21948305.465
 11  8 13  0 52  0.0000000  0  9G30G09G17G25G10G02G04G12G05
 121116933.961 6  94376898.91144  23047792.188                    23047801.188
 124962224.842 7  97373232.03443  23779531.211                    23779542.305
 121980457.240 7  95049719.969 6  23212092.531                    23212101.102
 126116719.422 7  98272831.375 6  23999223.344                    23999234.008
 109774494.025 7  85538703.87946  20889379.547                    20889386.945
 108233552.610 8  84337973.71546  20596147.328                    20596152.176
 114292025.511 8  89058832.76645  21749027.766                    21749035.891
 112168043.696 7  87403766.372 7  21344874.680                    21344882.590
 115249829.985 7  89805180.819 7  21931313.859                    21931322.613
 11  8 13  0 52 30.0000000  0  9G30G09G17G25G10G02G04G12G05
 121026824.995 7  94306684.15644  23030645.078                    23030653.676
 125042595.660 7  97435858.53544  23794825.789                    23794836.414
 122034931.597 7  95092167.508 6  23222458.977                    23222466.234
 126018475.812 7  98196277.948 6  23980528.578                    23980538.711
 109776155.178 7  85539998.28946  20889695.367                    20889703.688
 108234424.331 8  84338652.99646  20596313.164                    20596318.383
 114369366.496 8  89119098.43545  21763745.305                    21763753.012
 112111799.128 7  87359939.432 7  21334172.000                    21334179.355
 115160898.335 7  89735883.497 7  21914390.625                    21914399.383
 11  8 13  0 53  0.0000000  0  9G30G09G17G25G10G02G04G12G05
 120937053.100 6  94236732.05644  23013561.555                    23013570.555
 125123107.954 6  97498595.33144  23810147.188                    23810157.754
 122089566.233 7  95134739.940 6  23232855.703                    23232862.883
 125920424.911 7  98119874.643 6  23961869.773                    23961880.289
 109778448.569 7  85541785.34846  20890131.984                    20890139.707
 108235582.897 7  84339555.78846  20596533.695                    20596538.840
 114446839.999 7  89179467.36045  21778487.992                    21778496.602
 112056002.284 7  87316461.382 7  21323554.141                    21323561.426
 115072282.333 7  89666832.139 7  21897527.617                    21897536.223
 11  8 13  0 53 30.0000000  0  9G30G09G17G25G10G02G04G12G05
 120847621.708 6  94167045.26744  22996543.383                    22996552.070
 125203758.632 7  97561439.95144  23825493.547                    23825505.270
 122144361.604 7  95177437.621 6  23243282.430                    23243290.059
 125822569.863 7  98043623.985 6  23943248.531                    23943259.570
 109781374.923 7  85544065.63746  20890688.477                    20890696.316
 108237027.547 8  84340681.50446  20596808.273                    20596813.555
 114524444.428 8  89239938.30145  21793255.594                    21793264.102
 112000656.183 7  87273334.546 7  21313021.984                    21313029.184
 114983985.572 7  89598029.533 7  21880724.984                    21880733.266
 11  8 13  0 54  0.0000000  0  9G30G09G17G25G10G02G04G12G05
 120758533.409 6  94097625.83044  22979590.633                    22979599.848
 125284544.073 7  97624389.53144  23840866.961                    23840878.000
 122199318.177 7  95220260.894 6  23253740.477                    23253748.320
 125724913.148 7  97967527.885 6  23924664.586                    23924676.359
 109784934.000 7  85546838.95746  20891366.125                    20891373.969
 108238757.092 8  84342029.21446  20597137.477                    20597142.793
 114602177.775 8  89300509.71845  21808047.797                    21808056.270
 111945762.504 8  87230560.241 7  21302576.586                    21302583.191
 114896010.630 7  89529477.709 7  21863983.906                    21863992.227
 11  8 13  0 54 30.0000000  0  9G30G09G17G25G10G02G04G12G05
 120669790.936 6  94028475.88644  22962703.367                    22962712.957
 125365461.066 6  97687441.63344  23856264.508                    23856275.512
 122254436.592 7  95263210.270 6  23264228.836                    23264237.000
 125627457.313 7  97891588.321 6  23906120.469                    23906130.980
 109789125.770 7  85550105.28546  20892163.500                    20892171.656
 108240770.599 7  84343598.18646  20597520.609                    20597525.688
 114680038.066 8  89361180.03745  21822864.305                    21822872.238
 111891323.308 8  87188140.094 7  21292216.953                    21292223.992
 114808360.167 7  89461178.719 7  21847304.344                    21847313.238
 11  8 13  0 55  0.0000000  0  9G30G09G17G25G10G02G04G12G05
 120581397.351 7  93959597.78844  22945882.734                    22945891.797
 125446505.984 6  97750593.42544  23871688.109                    23871698.344
 122309717.388 7  95306286.166 6  23274748.258                    23274756.746
 125530205.241 7  97815807.539 6  23887613.047                    23887624.508
 109793950.400 7  85553864.74646  20893081.797                    20893089.535
 108243066.958 8  84345387.57046  20597957.406                    20597963.191
 114758023.572 7  89421947.94145  21837704.313                    21837712.871
 111837340.906 8  87146075.891 7  21281944.461                    21281951.543
 114721037.282 7  89393134.977 7  21830687.734                    21830696.141
 11  8 13  0 55 30.0000000  0  9G30G09G17G25G10G02G04G12G05
 120493355.208 6  93890993.55244  22929128.719                    22929137.922
 125527675.456 6  97813842.30244  23887133.469                    23887144.531
 122365160.972 7  95349488.911 6  23285299.555                    23285307.582
 125433159.356 7  97740187.454 6  23869146.391                    23869157.137
 109799407.841 7  85558117.30446  20894120.320                    20894128.063
 108245644.625 7  84347396.14746  20598447.719                    20598453.434
 114836132.144 8  89482811.73445  21852567.750                    21852576.406
 111783817.621 8  87104369.462 7  21271759.266                    21271766.859
 114634044.797 7  89325348.687 7  21814133.750                    21814142.117
 11  8 13  0 56  0.0000000  0  9G30G09G17G25G10G02G04G12G05
 120405667.408 7  93822665.43744  22912441.945                    22912451.520
 125608966.394 7  97877185.78544  23902603.141                    23902613.520
 122420768.012 7  95392819.019 6  23295880.992                    23295889.391
 125336322.372 7  97664730.140 6  23850718.078                    23850729.578
 109805498.181 8  85562863.03446  20895279.469                    20895286.984
 108248502.726 8  84349623.24246  20598992.063                    20598997.809
 114914361.815 8  89543769.89045  21867454.594                    21867463.168
 111730756.125 8  87063022.861 7  21261662.016                    21261669.426
 114547385.370 7  89257821.941 7  21797642.563                    21797651.082
 11  8 13  0 56 30.0000000  0  9G30G09G17G25G10G02G04G12G05
 120318336.607 7  93754615.49044  22895823.852                    22895833.195
 125690375.344 6  97940621.26143  23918093.820                    23918105.391
 122476538.495 7  95436276.491 6  23306493.867                    23306501.984
 125239696.794 7  97589437.568 6  23832330.867                    23832342.227
 109812221.151 8  85568101.71346  20896558.773                    20896566.230
 108251639.870 7  84352067.77446  20599588.828                    20599594.172
 114992710.687 7  89604820.93145  21882363.977                    21882372.141
 111678157.252 8  87022036.740 7  21251652.500                    21251660.023
 114461061.563 7  89190556.697 7  21781215.508                    21781224.375
 11  8 13  0 57  0.0000000  0  9G30G09G17G25G10G02G04G12G05
 120231365.791 6  93686846.05244  22879273.930                    22879283.082
 125771899.039 6  98004146.14043  23933608.445                    23933619.141
 122532473.193 7  95479861.904 6  23317137.602                    23317146.465
 125143285.506 7  97514311.957 6  23813984.883                    23813995.324
 109819576.895 8  85573833.48346  20897958.242                    20897965.848
 108255055.339 8  84354729.18046  20600238.625                    20600244.094
 115071177.091 8  89665963.55645  21897295.617                    21897303.863
 111626023.896 8  86981413.361 7  21241732.086                    21241739.621
 114375076.474 7  89123555.391 7  21764853.180                    21764861.766
 11  8 13  0 57 30.0000000  0  9G30G09G17G25G10G02G04G12G05
 120144757.579 7  93619359.16644  22862793.063                    22862802.066
 125853533.989 6  98067757.71443  23949141.781                    23949153.492
 122588572.552 7  95523575.605 7  23327813.352                    23327821.652
 125047090.886 7  97439355.172 6  23795678.875                    23795689.906
 109827565.178 8  85580058.12346  20899478.305                    20899486.191
 108258747.701 8  84357606.34846  20600941.516                    20600946.773
 115149759.005 7  89727196.19345  21912249.133                    21912257.945
 111574358.160 8  86941154.346 7  21231900.766                    21231907.836
 114289432.879 7  89056820.187 7  21748555.875                    21748564.395
 11  8 13  0 58  0.0000000  0  9G30G09G17G25G10G02G04G12G05
 120058514.982 7  93552157.19844  22846381.273                    22846390.305
 125935276.976 7  98131453.45843  23964697.617                    23964708.770
 122644837.209 7  95567418.150 6  23338519.953                    23338528.707
 124951115.926 7  97364569.569 6  23777415.164                    23777427.379
 109836186.036 8  85586775.68746  20901118.695                    20901126.547
 108262716.002 8  84360698.52546  20601697.039                    20601702.188
 115228454.649 7  89788517.44845  21927224.563                    21927233.207
 111523162.378 8  86901261.536 7  21222158.070                    21222165.219
 114204133.808 7  88990353.440 7  21732323.328                    21732332.438
 11  8 13  0 58 30.0000000  0  9G30G09G17G25G10G02G04G12G05
 119972640.542 7  93485242.10144  22830040.016                    22830048.910
 126017124.461 7  98195230.64244  23980272.891                    23980284.000
 122701267.629 6  95611389.810 6  23349258.500                    23349267.047
 124855363.116 7  97289957.063 6  23759194.133                    23759205.762
 109845439.010 8  85593985.81046  20902879.742                    20902887.371
 108266958.872 8  84364004.65546  20602504.289                    20602509.410
 115307262.145 7  89849925.86845  21942221.055                    21942229.691
 111472438.373 8  86861736.353 7  21212505.914                    21212512.465
 114119181.791 7  88924157.124 7  21716158.000                    21716166.590
 11  8 13  0 59  0.0000000  0  9G30G09G17G25G10G02G04G12G05
 119887137.070 7  93418616.07644  22813769.289                    22813778.414
 126099073.251 7  98259086.78343  23995867.383                    23995878.020
 122757864.089 7  95655490.901 6  23360028.555                    23360037.758
 124759835.052 7  97215519.664 6  23741016.477                    23741027.324
 109855323.984 8  85601688.38546  20904760.633                    20904768.145
 108271475.200 8  84367523.86346  20603363.305                    20603368.574
 115386179.656 7  89911420.01445  21957238.609                    21957246.773
 111422188.358 8  86822580.510 7  21202942.742                    21202950.156
 114034579.317 7  88858233.188 7  21700058.805                    21700067.270
 11  8 13  0 59 30.0000000  0  9G30G09G17G25G10G02G04G12G05
 119802007.205 7  93352281.16844  22797570.086                    22797578.598
 126181119.742 7  98323019.05043  24011480.422                    24011491.707
 122814627.049 6  95699721.716 6  23370830.625                    23370838.895
 124664534.405 7  97141259.449 6  23722880.734                    23722891.852
 109865840.796 8  85609883.31946  20906761.602                    20906769.914
 108276263.599 8  84371255.07746  20604274.586                    20604279.930
 115465205.139 7  89972998.27845  21972277.031                    21972285.090
 111372414.121 8  86783795.409 7  21193471.391                    21193478.770
 113950329.367 8  88792583.932 7  21684026.023                    21684034.625
 11  8 13  1  0  0.0000000  0  9G30G09G17G25G10G02G04G12G05
 119717254.150 7  93286239.87444  22781442.063                    22781450.602
 126263260.978 6  98387025.14443  24027111.391                    24027122.156
 122871557.315 7  95744082.908 6  23381663.523                    23381672.176
 124569464.098 7  97067178.727 6  23704789.844                    23704800.598
 109876989.362 8  85618570.51446  20908883.773                    20908891.000
 108281323.762 8  84375198.06346  20605237.664                    20605242.949
 115544337.155 7  90034659.58845  21987335.055                    21987343.203
 111323118.441 8  86745383.206 7  21184090.938                    21184097.938
 113866434.801 8  88727211.605 7  21668061.445                    21668070.250
 11  8 13  1  0 30.0000000  0  9G30G09G17G25G10G02G04G12G05
 119632880.221 7  93220493.98544  22765386.008                    22765394.551
 126345493.251 6  98451102.19544  24042760.047                    24042771.137
 122928655.216 6  95788574.722 6  23392528.766                    23392538.273
 124474626.561 7  96993279.342 6  23686742.688                    23686753.199
 109888769.024 8  85627749.47346  20911125.125                    20911133.039
 108286653.832 8  84379351.35846  20606251.828                    20606257.273
 115623573.686 7  90096402.31045  22002413.203                    22002421.449
 111274302.602 8  86707344.898 7  21174802.031                    21174808.855
 113782898.472 7  88662118.420 7  21652165.141                    21652174.000
 11  8 13  1  1  0.0000000  0  9G30G09G17G25G10G02G04G12G05
 119548888.420 7  93155045.89544  22749402.805                    22749411.453
 126427813.767 7  98515247.97243  24058424.781                    24058436.293
 122985921.059 6  95833197.419 6  23403426.750                    23403434.926
 124380024.663 7  96919563.580 6  23668740.406                    23668751.742
 109901180.122 8  85637420.47246  20913486.563                    20913494.066
 108292253.017 8  84383714.35446  20607317.148                    20607322.953
 115702912.997 7  90158225.12445  22017511.055                    22017519.625
 111225969.084 8  86669682.431 7  21165603.609                    21165611.125
 113699722.867 8  88597306.323 7  21636337.289                    21636345.750
 11  8 13  1  1 30.0000000  0  9G30G09G17G25G10G02G04G12G05
 119465281.424 7  93089897.66244  22733492.602                    22733501.500
 126510218.928 6  98579459.73443  24074105.492                    24074117.156
 123043355.301 7  95877951.350 6  23414356.070                    23414364.031
 124285660.958 7  96846033.434 6  23650783.586                    23650794.723
 109914221.930 8  85647582.91746  20915968.492                    20915976.348
 108298119.995 8  84388286.01046  20608433.438                    20608438.660
 115782353.410 7  90220126.73145  22032628.031                    22032636.699
 111178119.658 8  86632397.178 7  21156498.438                    21156505.996
 113616910.749 8  88532777.450 7  21620578.555                    21620587.355
 11  8 13  1  2  0.0000000  0  9G30G09G17G25G10G02G04G12G05
 119382061.855 7  93025051.31144  22717656.508                    22717665.008
 126592705.344 7  98643734.77943  24089802.547                    24089814.063
 123100958.482 7  95922836.911 6  23425317.703                    23425325.984
 124191538.111 7  96772690.955 6  23632873.117                    23632883.934
 109927894.167 8  85658236.59446  20918570.188                    20918577.969
 108304253.641 8  84393065.46446  20609600.914                    20609606.293
 115861892.705 7  90282105.38145  22047763.906                    22047772.293
 111130756.499 8  86595490.833 7  21147485.836                    21147492.980
 113534464.667 8  88468533.816 7  21604889.258                    21604897.969
 11  8 13  1  2 30.0000000  0  9G30G09G17G25G10G02G04G12G05
 119299232.243 7  92960508.80844  22701895.031                    22701903.352
 126675269.459 6  98708070.37343  24105513.438                    24105525.375
 123158730.924 7  95967854.371 6  23436311.836                    23436318.918
 124097658.645 7  96699538.130 6  23615008.383                    23615018.598
 109942196.040 8  85669380.91845  20921292.109                    20921299.391
 108310652.368 8  84398051.48046  20610818.141                    20610824.281
 115941529.312 7  90344159.86845  22062918.617                    22062926.770
 111083881.386 8  86558964.792 7  21138565.922                    21138572.723
 113452387.350 8  88404577.519 7  21589270.563                    21589278.969
 11  8 13  1  3  0.0000000  0  9G30G09G17G25G10G02G04G12G05
 119216795.528 7  92896272.45044  22686207.102                    22686215.871
 126757908.259 6  98772464.14743  24121239.484                    24121251.270
 123216673.006 7  96013004.046 6  23447337.227                    23447344.867
 124004025.380 7  96626577.153 6  23597190.219                    23597201.035
 109957127.342 8  85681015.70546  20924133.023                    20924141.148
 108317315.273 8  84403243.34846  20612086.594                    20612092.043
 116021261.520 7  90406288.84645  22078090.578                    22078098.980
 111037496.668 8  86522820.870 7  21129738.617                    21129746.078
 113370681.842 8  88340910.949 7  21573722.570                    21573730.871
 11  8 13  1  3 30.0000000  0  9G30G09G17G25G10G02G04G12G05
 119134754.138 7  92832344.14444  22670595.617                    22670603.750
 126840618.406 6  98836913.52343  24136978.789                    24136990.254
 123274785.159 7  96058286.263 6  23458395.547                    23458403.668
 123910640.743 7  96553809.914 6  23579419.938                    23579430.352
 109972687.085 8  85693140.17046  20927094.578                    20927101.930
 108324240.706 8  84408639.78246  20613404.469                    20613410.176
 116101087.032 7  90468490.52545  22093281.203                    22093289.879
 110991603.261 8  86487059.789 7  21121005.289                    21121012.688
 113289350.042 8  88277535.577 7  21558245.633                    21558254.113
 11  8 13  1  4  0.0000000  0  9G30G09G17G25G10G02G04G12G05
 119053111.083 7  92768726.22244  22655059.211                    22655067.738
 126923396.811 6  98901416.09743  24152730.945                    24152743.125
 123333067.753 7  96103701.268 6  23469486.750                    23469494.633
 123817507.663 7  96481238.728 6  23561696.469                    23561707.926
 109988875.622 7  85705754.62546  20930174.461                    20930182.516
 108331428.261 8  84414240.48446  20614772.539                    20614777.746
 116181004.714 7  90530764.02745  22108488.664                    22108496.902
 110946203.982 8  86451683.750 7  21112366.453                    21112373.359
 113208395.212 8  88214453.944 7  21542840.742                    21542849.133
 11  8 13  1  4 30.0000000  0  9G30G09G17G25G10G02G04G12G05
 118971868.991 7  92705420.73244  22639599.070                    22639607.102
 127006239.908 6  98965969.08243  24168496.500                    24168507.484
 123391521.526 7  96149249.658 6  23480609.648                    23480618.012
 123724628.854 6  96408865.679 6  23544022.195                    23544033.441
 110005692.016 8  85718858.30446  20933374.789                    20933382.617
 108338876.694 8  84420044.45846  20616189.680                    20616195.137
 116261012.713 7  90593107.90045  22123714.000                    22123722.473
 110901301.258 8  86416694.635 7  21103821.734                    21103829.113
 113127820.099 8  88151668.205 7  21527507.633                    21527516.012
 11  8 13  1  5  0.0000000  0  9G30G09G17G25G10G02G04G12G05
 118891030.710 7  92642429.87644  22624216.578                    22624224.395
 127089144.741 6  99030570.16143  24184272.023                    24184283.785
 123450146.555 6  96194931.497 6  23491765.602                    23491773.770
 123632007.108 7  96336692.945 6  23526396.844                    23526407.867
 110023135.883 7  85732450.93246  20936694.313                    20936701.551
 108346584.579 8  84426050.60746  20617656.219                    20617661.863
 116341109.230 7  90655520.74345  22138956.055                    22138964.254
 110856896.114 8  86382093.236 7  21095371.578                    21095378.785
 113047627.202 8  88089180.290 7  21512247.281                    21512255.680
 11  8 13  1  5 30.0000000  0  9G30G09G17G25G10G02G04G12G05
 118810598.724 7  92579755.61044  22608910.484                    22608919.109
 127172107.698 6  99095216.50343  24200059.023                    24200070.824
 123508943.353 7  96240747.199 6  23502954.102                    23502962.941
 123539644.855 7  96264722.423 6  23508820.445                    23508831.844
 110041206.491 8  85746531.92246  20940132.781                    20940140.699
 108354550.679 8  84432257.94946  20619172.055                    20619177.445
 116421292.601 7  90718001.27145  22154214.438                    22154223.004
 110812990.309 8  86347880.935 7  21087016.578                    21087023.688
 112967819.044 8  88026992.178 7  21497060.484                    21497068.258
 11  8 13  1  6  0.0000000  0  9G30G09G17G25G10G02G04G12G05
 118730575.649 7  92517399.97444  22593683.156                    22593691.543
 127255125.797 6  99159905.78043  24215857.953                    24215869.477
 123567912.231 7  96286696.985 6  23514176.031                    23514184.180
 123447544.770 7  96192956.184 6  23491295.016                    23491305.809
 110059903.367 7  85761100.92146  20943690.602                    20943698.617
 108362773.885 8  84438665.63746  20620736.844                    20620742.301
 116501561.122 7  90780548.15445  22169488.648                    22169497.527
 110769586.070 8  86314059.452 7  21078756.992                    21078764.289
 112888398.289 8  87965105.918 7  21481947.297                    21481954.832
 11  8 13  1  6 30.0000000  0  9G30G09G17G25G10G02G04G12G05
 118650964.345 7  92455365.19944  22578533.250                    22578541.570
 127338195.602 6  99224635.41143  24231665.469                    24231677.008
 123627053.746 6  96332781.280 6  23525429.922                    23525438.297
 123355709.740 7  96121396.495 6  23473819.727                    23473830.371
 110079225.763 8  85776157.33946  20947367.789                    20947375.840
 108371253.188 8  84445272.88246  20622350.578                    20622355.660
 116581913.092 7  90843160.06345  22184779.164                    22184787.598
 110726685.585 8  86280630.476 7  21070593.438                    21070600.371
 112809367.691 8  87903523.702 7  21466908.125                    21466916.512
 11  8 13  1  7  0.0000000  0  9G30G09G17G25G10G02G04G12G05
 118571767.216 7  92393653.16344  22563462.063                    22563470.820
 127421313.730 6  99289402.66743  24247482.961                    24247493.910
 123686368.434 6  96379000.487 6  23536717.211                    23536726.082
 123264142.166 7  96050045.194 6  23456394.945                    23456405.922
 110099173.062 7  85791700.68946  20951163.531                    20951171.289
 108379987.131 8  84452078.55746  20624012.922                    20624017.660
 116662346.465 7  90905835.39345  22200085.211                    22200093.781
 110684290.262 8  86247595.119 7  21062525.836                    21062533.207
 112730729.784 8  87842247.465 7  21451943.438                    21451951.762
 11  8 13  1  7 30.0000000  0  9G30G09G17G25G10G02G04G12G05
 118492987.183 7  92332266.14344  22548470.766                    22548479.227
 127504477.202 6  99354205.25243  24263308.602                    24263319.754
 123745856.539 6  96425354.842 6  23548037.328                    23548045.988
 123172845.008 7  95978904.604 6  23439021.359                    23439032.117
 110119744.959 8  85807730.73646  20955078.586                    20955086.160
 108388974.893 8  84459082.01246  20625723.016                    20625728.617
 116742860.167 7  90968573.30945  22215406.945                    22215415.184
 110642402.218 8  86214955.125 7  21054554.828                    21054562.293
 112652487.258 8  87781279.315 7  21437054.320                    21437062.730
 11  8 13  1  8  0.0000000  0  9G30G09G17G25G10G02G04G12G05
 118414626.962 7  92271206.25144  22533558.773                    22533567.992
 127587682.756 6  99419040.65943  24279141.141                    24279153.766
 123805518.244 7  96471844.486 6  23559390.758                    23559398.895
 123081820.939 7  95907976.819 6  23421700.195                    23421711.051
 110140940.351 7  85824246.64446  20959111.531                    20959119.180
 108398215.217 8  84466282.26746  20627481.273                    20627486.566
 116823452.151 7  91031372.23445  22230742.625                    22230751.332
 110601023.349 8  86182711.875 7  21046680.531                    21046687.777
 112574642.633 8  87720621.219 7  21422240.539                    21422249.117
 11  8 13  1  8 30.0000000  0  9G30G09G17G25G10G02G04G12G05
 118336688.783 7  92210475.22444  22518728.555                    22518736.438
 127670926.945 7  99483906.19444  24294982.273                    24294994.355
 123865353.935 6  96518469.683 6  23570777.461                    23570785.176
 122991072.300 7  95837263.639 6  23404431.258                    23404442.164
 110162758.101 8  85841247.49046  20963263.500                    20963271.047
 108407706.510 8  84473678.09546  20629286.773                    20629293.016
 116904120.692 7  91094230.81045  22246093.516                    22246102.316
 110560154.790 8  86150866.251 7  21038903.859                    21038911.102
 112497198.204 8  87660274.975 7  21407503.477                    21407512.063
 11  8 13  1  9  0.0000000  0  9G30G09G17G25G10G02G04G12G05
 118259175.202 7  92150075.05244  22503977.680                    22503986.594
 127754206.563 6  99548799.34044  24310829.773                    24310841.684
 123925364.137 7  96565230.875 6  23582196.898                    23582205.586
 122900601.758 7  95766767.169 6  23387215.180                    23387226.297
 110185197.561 8  85858732.77946  20967533.828                    20967541.309
 108417447.439 8  84481268.43246  20631141.336                    20631146.520
 116984863.999 7  91157147.66045  22261458.547                    22261467.512
 110519798.565 8  86119419.864 7  21031224.039                    21031231.145
 112420156.664 8  87600242.649 7  21392843.141                    21392851.262
 11  8 13  1  9 30.0000000  0  9G30G09G17G25G10G02G04G12G05
 118182089.293 7  92090008.14044  22489308.813                    22489317.641
 127837518.576 6  99613717.69743  24326683.172                    24326695.414
 123985549.331 7  96612128.454 6  23593649.461                    23593658.063
 122810412.390 7  95696489.787 6  23370052.313                    23370063.465
 110208258.452 7  85876702.30446  20971921.844                    20971929.656
 108427437.641 8  84489053.02546  20633042.266                    20633047.645
 117065680.922 7  91220121.87045  22276837.523                    22276846.066
 110479956.804 8  86088374.358 7  21023642.203                    21023649.840
 112343520.799 8  87540526.455 7  21378260.094                    21378267.859
 11  8 13  1 10  0.0000000  0  9G30G09G17G25G10G02G04G12G05
 118105433.323 7  92030276.21944  22474721.875                    22474730.949
 127920859.658 6  99678658.70943  24342543.117                    24342554.625
 124045909.781 7  96659162.562 6  23605136.039                    23605144.316
 122720506.571 7  95626433.344 6  23352944.273                    23352954.863
 110231939.382 8  85895154.98846  20976428.336                    20976435.777
 108437675.356 8  84497030.47846  20634990.008                    20634995.973
 117146569.328 7  91283151.77444  22292229.414                    22292238.141
 110440631.052 8  86057730.926 7  21016159.242                    21016166.016
 112267292.867 8  87481128.114 7  21363754.102                    21363762.336
 11  8 13  1 10 30.0000000  0  9G30G09G17G25G10G02G04G12G05
 118029210.186 7  91970881.59944  22460216.891                    22460225.691
 128004226.773 6  99743620.05443  24358407.375                    24358419.309
 124106445.839 7  96706333.524 6  23616654.922                    23616663.824
 122630887.144 7  95556600.034 6  23335890.461                    23335900.770
 110256239.923 8  85914090.47746  20981052.406                    20981059.762
 108448159.823 8  84505200.20146  20636985.359                    20636991.035
 117227527.907 7  91346236.35045  22307635.445                    22307644.289
 110401823.151 8  86027491.004 7  21008774.227                    21008781.578
 112191475.608 8  87422049.782 7  21349326.477                    21349334.707
 11  8 13  1 11  0.0000000  0  9G30G09G17G25G10G02G04G12G05
 117953422.266 7  91911826.11744  22445794.594                    22445803.578
 128087616.632 6  99808599.10343  24374275.398                    24374287.617
 124167157.736 7  96753641.508 6  23628208.344                    23628216.660
 122541556.749 7  95486991.958 6  23318891.664                    23318901.855
 110281158.846 8  85933507.82245  20985794.461                    20985802.461
 108458889.518 8  84513561.01446  20639027.094                    20639032.590
 117308555.196 7  91409374.46445  22323055.070                    22323063.555
 110363534.740 8  85997655.891 7  21001488.086                    21001495.047
 112116071.498 8  87363293.381 7  21334977.844                    21334985.770
 11  8 13  1 11 30.0000000  0  9G30G09G17G25G10G02G04G12G05
 117878072.135 7  91853111.74945  22431456.414                    22431465.133
 128171026.081 6  99873593.46943  24390148.281                    24390159.941
 124228045.831 7  96801086.780 6  23639795.563                    23639803.281
 122452518.014 7  95417611.143 6  23301947.797                    23301958.848
 110306695.510 7  85953406.54046  20990653.781                    20990661.098
 108469863.323 8  84522112.04046  20641115.578                    20641120.539
 117389649.206 7  91472564.57844  22338486.305                    22338495.242
 110325767.320 8  85968226.731 7  20994300.961                    20994308.465
 112041082.922 8  87304860.781 7  21320707.641                    21320716.070
 11  8 13  1 12  0.0000000  0  9G30G09G17G25G10G02G04G12G05
 117803162.421 7  91794740.58545  22417201.594                    22417210.441
 128254451.771 6  99938600.46043  24406023.586                    24406035.883
 124289110.485 6  96848669.624 6  23651415.617                    23651423.754
 122363773.663 7  95348459.726 6  23285060.531                    23285071.051
 110332848.992 7  85973785.87446  20995630.461                    20995638.180
 108481080.098 8  84530852.39346  20643249.383                    20643255.578
 117470808.726 7  91535805.75444  22353930.977                    22353938.988
 110288522.644 8  85939204.909 7  20987213.891                    20987221.008
 111966512.412 8  87246753.946 7  21306517.195                    21306525.773
 11  8 13  1 12 30.0000000  0  9G30G09G17G25G10G02G04G12G05
 117728695.345 7  91736714.31145  22403030.680                    22403039.375
 128337890.457 6 100003617.56843  24421901.109                    24421913.488
 124350352.065 6  96896390.376 6  23663068.836                    23663077.938
 122275326.147 7  95279539.595 6  23268228.977                    23268239.859
 110359617.810 8  85994644.69645  21000724.383                    21000732.285
 108492538.310 8  84539780.87946  20645430.305                    20645435.699
 117552031.824 7  91599096.46444  22369387.141                    22369394.898
 110251802.090 8  85910591.483 7  20980226.289                    20980233.406
 111892362.175 8  87188974.605 7  21292406.914                    21292415.109
 11  8 13  1 13  0.0000000  0  9G30G09G17G25G10G02G04G12G05
 117654673.885 7  91679035.26944  22388945.234                    22388953.164
 128421339.111 6 100068642.47643  24437781.750                    24437793.273
 124411771.160 6  96944249.402 6  23674757.141                    23674765.367
 122187178.402 7  95210853.055 7  23251454.930                    23251465.953
 110387001.545 7  86015982.67046  21005935.516                    21005943.332
 108504237.197 8  84548896.90246  20647656.414                    20647661.785
 117633317.001 7  91662435.54644  22384855.078                    22384863.273
 110215607.828 8  85882388.157 7  20973338.234                    20973345.512
 111818635.108 8  87131524.990 7  21278377.031                    21278385.305
 11  8 13  1 13 30.0000000  0  9G30G09G17G25G10G02G04G12G05
 117581100.493 7  91621705.38745  22374944.344                    22374953.004
 128504794.828 6 100133672.83643  24453662.695                    24453673.996
 124473367.879 6  96992246.897 6  23686478.656                    23686486.254
 122099333.179 7  95142402.244 7  23234738.648                    23234749.547
 110414999.104 7  86037798.96446  21011263.547                    21011271.273
 108516175.672 8  84558199.61546  20649928.078                    20649933.742
 117714662.935 7  91725821.98444  22400334.602                    22400342.465
 110179941.396 8  85854596.126 7  20966551.328                    20966558.660
 111745333.412 8  87074406.836 7  21264428.266                    21264436.570
 11  8 13  1 14  0.0000000  0  9G30G09G17G25G10G02G04G12G05
 117507977.862 7  91564726.73845  22361029.422                    22361038.227
 128588254.488 6 100198706.27043  24469544.352                    24469555.230
 124535142.823 6  97040383.245 6  23698232.773                    23698241.363
 122011793.198 7  95074189.299 6  23218080.188                    23218091.664
 110443609.722 7  86060092.95246  21016707.875                    21016715.164
 108528352.443 8  84567688.01246  20652245.719                    20652250.906
 117796067.996 7  91789254.47944  22415826.055                    22415833.566
 110144804.429 8  85827216.666 7  20959864.883                    20959871.918
 111672459.986 8  87017622.394 7  21250560.844                    21250568.711
 11  8 13  1 14 30.0000000  0  9G30G09G17G25G10G02G04G12G05
 117435308.022 7  91508100.91545  22347201.070                    22347209.574
 128671714.649 6 100263740.12743  24485425.641                    24485438.172
 124597095.909 6  97088658.408 6  23710022.250                    23710030.844
 121924560.737 7  95006215.954 7  23201481.023                    23201491.836
 110472831.523 8  86082863.18546  21022268.359                    21022276.016
 108540765.901 8  84577360.83746  20654607.898                    20654613.297
 117877530.406 7  91852731.65744  22431327.000                    22431335.363
 110110197.940 8  85800250.567 7  20953279.805                    20953286.953
 111600016.708 8  86961173.143 7  21236775.273                    21236783.234
 11  8 13  1 15  0.0000000  0  9G30G09G17G25G10G02G04G12G05
 117363093.687 7  91451830.02544  22333459.039                    22333467.934
 128755172.135 6 100328771.84543  24501307.891                    24501319.715
 124659227.320 6  97137072.509 6  23721845.594                    23721853.723
 121837638.550 7  94938484.382 7  23184940.070                    23184951.145
 110502663.849 7  86106109.16246  21027945.492                    21027952.871
 108553415.319 8  84587217.53646  20657014.828                    20657020.359
 117959048.883 7  91916252.52144  22446839.695                    22446848.160
 110076124.162 8  85773699.572 7  20946795.891                    20946802.633
 111528006.260 8  86905061.161 7  21223072.273                    21223080.320
 11  8 13  1 15 30.0000000  0  9G30G09G17G25G10G02G04G12G05
 117291337.310 7  91395915.99745  22319804.313                    22319812.547
 128838623.706 6 100393798.97243  24517188.469                    24517199.914
 124721537.534 6  97185625.967 6  23733702.883                    23733711.078
 121751029.452 7  94870996.784 7  23168458.813                    23168469.746
 110533105.691 7  86129830.07446  21033738.164                    21033746.105
 108566299.328 8  84597257.02746  20659466.617                    20659471.926
 118040621.755 7  91979815.77144  22462362.859                    22462370.934
 110042584.257 8  85747564.587 7  20940413.391                    20940420.273
 111456431.084 8  86849288.337 7  21209452.117                    21209459.699
 11  8 13  1 16  0.0000000  0  9G30G09G17G25G10G02G04G12G05
 117220041.339 7  91340360.70745  22306237.172                    22306245.703
 128922066.445 6 100458819.23743  24533066.703                    24533078.734
 124784026.940 6  97234319.014 6  23745594.820                    23745602.473
 121664735.924 7  94803755.094 7  23152037.547                    23152048.668
 110564155.610 8  86154024.82645  21039646.477                    21039654.504
 108579416.874 8  84607478.49846  20661962.672                    20661968.113
 118122247.528 7  92043420.24944  22477895.492                    22477903.918
 110009579.599 8  85721846.691 7  20934132.648                    20934139.910
 111385293.248 8  86793856.315 7  21195914.922                    21195922.879
 11  8 13  1 16 30.0000000  0  9G30G09G17G25G10G02G04G12G05
 117149208.162 7  91285166.03445  22292757.953                    22292766.164
 129005497.204 6 100523830.12043  24548943.164                    24548954.508
 124846695.605 6  97283151.751 6  23757519.781                    23757528.070
 121578760.633 7  94736761.391 7  23135677.469                    23135688.273
 110595812.501 8  86178692.53846  21045670.898                    21045678.973
 108592766.568 8  84617880.86346  20664503.469                    20664508.699
 118203924.691 7  92107064.77344  22493438.281                    22493446.734
 109977111.917 8  85696547.203 7  20927954.117                    20927961.203
 111314594.798 8  86738766.653 7  21182461.148                    21182468.898
 11  8 13  1 17  0.0000000  0  9G30G09G17G25G10G02G04G12G05
 117078840.291 7  91230333.93545  22279367.992                    22279376.063
 129088912.870 6 100588829.28143  24564817.375                    24564828.051
 124909544.056 6  97332124.569 6  23769480.070                    23769487.496
 121493106.263 7  94670017.745 7  23119377.188                    23119388.215
 110628075.145 8  86203832.27645  21051810.430                    21051818.020
 108606347.302 8  84628463.26846  20667087.445                    20667092.789
 118285651.620 7  92170748.07544  22508990.586                    22508998.801
 109945182.671 8  85671667.294 7  20921878.492                    20921885.398
 111244338.688 8  86684021.692 7  21169091.852                    21169099.715
 11  8 13  1 17 30.0000000  0  9G30G09G17G25G10G02G04G12G05
 117008940.295 7  91175866.42345  22266066.156                    22266074.168
 129172310.369 6 100653814.29043  24580687.008                    24580698.578
 124972572.359 6  97381237.532 6  23781473.250                    23781482.102
 121407775.539 7  94603526.294 7  23103139.688                    23103150.414
 110660942.260 7  86229443.01645  21058064.883                    21058072.613
 108620158.028 8  84639224.88046  20669715.352                    20669720.871
 118367427.056 7  92234469.17944  22524551.133                    22524560.242
 109913793.205 8  85647207.994 7  20915904.922                    20915912.398
 111174527.215 8  86629623.185 7  21155807.016                    21155815.086
 11  8 13  1 18  0.0000000  0  9G30G09G17G25G10G02G04G12G05
 116939510.266 7  91121765.10045  22252853.633                    22252862.422
 129255686.565 6 100718782.65243  24596553.352                    24596564.809
 125035780.981 6  97430491.010 6  23793501.844                    23793510.094
 121322770.922 7  94537288.952 7  23086964.016                    23086974.809
 110694412.680 8  86255523.87346  21064433.773                    21064441.719
 108634197.413 8  84650164.67446  20672386.914                    20672392.480
 118449249.451 7  92298226.87144  22540122.305                    22540130.391
 109882945.114 8  85623170.532 7  20910034.719                    20910042.094
 111105162.390 8  86575572.717 7  21142607.305                    21142614.949
 11  8 13  1 18 30.0000000  0  9G30G09G17G25G10G02G04G12G05
 116870552.797 7  91068032.01945  22239731.039                    22239740.156
 129339038.268 6 100783731.94643  24612415.188                    24612426.527
 125099169.792 6  97479884.869 6  23805564.781                    23805572.598
 121238095.121 7  94471307.833 7  23070850.852                    23070861.512
 110728484.816 8  86282073.60046  21070917.359                    21070925.832
 108648464.332 8  84661281.75346  20675102.156                    20675107.254
 118531117.270 7  92362019.94244  22555700.688                    22555709.418
 109852639.716 8  85599555.957 8  20904267.867                    20904275.094
 111036246.455 8  86521872.038 7  21129493.164                    21129500.672
 11  8 13  1 19  0.0000000  0  9G30G09G17G25G10G02G04G12G05
 116802070.462 7  91014669.16845  22226699.641                    22226708.973
 129422362.660 6 100848659.96843  24628270.211                    24628282.984
 125162739.448 6  97529419.629 6  23817661.563                    23817669.203
 121153751.038 7  94405585.189 7  23054800.641                    23054811.406
 110763157.897 8  86309091.60345  21077515.570                    21077523.453
 108662957.723 8  84672575.31346  20677859.875                    20677865.285
 118613029.368 7  92425847.53644  22571287.992                    22571297.230
 109822878.812 8  85576365.669 7  20898604.375                    20898611.699
 110967782.292 8  86468523.392 7  21116464.820                    21116472.582
 11  8 13  1 19 30.0000000  0  9G30G09G17G25G10G02G04G12G05
 116734065.234 7  90961678.09545  22213759.477                    22213767.746
 129505656.358 6 100913564.07743  24644120.906                    24644133.152
 125226489.963 6  97579095.341 6  23829792.281                    23829801.113
 121069740.822 7  94340122.690 6  23038813.680                    23038824.223
 110798430.136 8  86336576.46846  21084227.648                    21084235.398
 108677676.103 8  84684044.19346  20680660.734                    20680666.262
 118694983.862 7  92489708.15344  22586883.320                    22586892.816
 109793662.788 8  85553599.960 7  20893044.719                    20893051.926
 110899771.635 8  86415528.119 7  21103522.719                    21103530.824
 11  8 13  1 20  0.0000000  0  9G30G09G17G25G10G02G04G12G05
 116666539.777 7  90909060.83845  22200909.445                    22200917.688
 129588916.397 6 100978441.93943  24659964.719                    24659977.191
 125290421.679 6  97628912.235 6  23841958.125                    23841966.887
 120986067.307 7  94274922.563 6  23022891.172                    23022901.770
 110834300.204 8  86364527.17946  21091053.484                    21091061.441
 108692618.495 8  84695687.62446  20683504.336                    20683509.891
 118776979.450 7  92553600.79044  22602486.859                    22602495.543
 109764993.581 8  85531260.342 7  20887589.352                    20887596.313
 110832216.705 8  86362887.956 7  21090667.477                    21090674.957
 11  8 13  1 20 30.0000000  0  9G30G09G17G25G10G02G04G12G05
 116599496.239 7  90856819.11745  22188150.609                    22188159.465
 129672139.962 6 101043291.37643  24675801.383                    24675813.895
 125354534.945 6  97678870.563 6  23854159.203                    23854167.270
 120902733.129 7  94209986.865 6  23007033.406                    23007043.547
 110870767.113 8  86392942.96046  21097992.930                    21098000.688
 108707783.798 8  84707504.74946  20686389.945                    20686395.480
 118859014.774 7  92617524.39844  22618097.883                    22618106.711
 109736872.606 8  85509347.910 7  20882238.172                    20882245.188
 110765119.730 8  86310604.652 7  21077899.406                    21077907.336
 11  8 13  1 21  0.0000000  0  9G30G09G17G25G10G02G04G12G05
 116532937.203 7  90804954.96345  22175485.078                    22175494.117
 129755323.741 6 101108109.79243  24691631.039                    24691643.266
 125418829.778 6  97728970.378 6  23866393.563                    23866402.383
 120819740.958 7  94145317.676 7  22991240.281                    22991251.277
 110907829.310 8  86421822.62046  21105045.727                    21105053.344
 108723170.781 8  84719494.62246  20689318.016                    20689323.199
 118941088.591 7  92681478.00144  22633716.297                    22633724.969
 109709301.108 8  85487863.637 7  20876991.336                    20876998.340
 110698483.425 8  86258680.301 7  21065218.750                    21065226.332
 11  8 13  1 21 30.0000000  0  9G30G09G17G25G10G02G04G12G05
 116466864.794 7  90753469.97645  22162912.617                    22162920.762
 129838464.737 6 101172894.87043  24707452.688                    24707465.352
 125483306.605 6  97779212.015 6  23878663.398                    23878672.125
 120737093.357 7  94080916.984 7  22975513.102                    22975523.645
 110945484.999 8  86451164.74046  21112211.602                    21112219.180
 108738778.072 8  84731656.15146  20692288.359                    20692293.586
 119023199.214 7  92745460.28844  22649341.352                    22649349.559
 109682280.104 8  85466808.321 7  20871849.484                    20871856.383
 110632309.694 8  86207116.405 7  21052626.000                    21052633.961
 11  8 13  1 22  0.0000000  0  9G30G09G17G25G10G02G04G12G05
 116401281.384 7  90702366.03545  22150431.883                    22150440.137
 129921560.170 6 101237644.48443  24723264.953                    24723277.121
 125547965.384 6  97829595.485 6  23890967.516                    23890976.230
 120654792.874 7  94016786.758 6  22959851.750                    22959862.441
 110983732.969 8  86480968.38046  21119489.711                    21119497.535
 108754604.570 8  84743988.49446  20695299.836                    20695305.043
 119105345.447 7  92809470.31844  22664973.594                    22664981.613
 109655811.514 8  85446183.456 7  20866812.547                    20866819.668
 110566600.660 8  86155914.609 7  21040122.273                    21040129.949
 11  8 13  1 22 30.0000000  0  9G30G09G17G25G10G02G04G12G05
 116336189.130 7  90651644.82745  22138045.516                    22138054.152
 130004606.783 6 101302356.04443  24739068.953                    24739080.285
 125612806.268 6  97880120.817 6  23903306.750                    23903315.328
 120572842.037 7  93952928.971 6  22944256.773                    22944267.555
 111022571.568 8  86511232.24046  21126880.172                    21126887.852
 108770648.729 8  84756490.44746  20698353.070                    20698358.145
 119187525.734 7  92873506.89744  22680611.906                    22680619.566
 109629895.384 8  85425989.083 7  20861880.828                    20861888.180
 110501358.375 8  86105076.512 7  21027706.797                    21027714.680
 11  8 13  1 23  0.0000000  0  9G30G09G17G25G10G02G04G12G05
 116271590.542 7  90601308.29445  22125752.758                    22125761.383
 130087601.695 6 101367027.32943  24754861.438                    24754873.570
 125677829.814 6  97930788.473 6  23915679.563                    23915688.492
 120491243.657 7  93889345.850 7  22928729.547                    22928740.352
 111061999.434 8  86541955.27245  21134383.086                    21134390.855
 108786910.151 8  84769161.70046  20701447.555                    20701452.629
 119269738.892 7  92937569.05544  22696255.727                    22696264.848
 109604533.841 8  85406226.854 7  20857054.594                    20857061.773
 110436585.204 8  86054603.956 7  21015380.453                    21015389.070
 11  8 13  1 23 30.0000000  0  9G30G09G17G25G10G02G04G12G05
 116207487.845 7  90551358.15945  22113554.625                    22113562.586
 130170541.890 6 101431655.99643  24770644.875                    24770657.172
 125743036.031 6  97981598.529 6  23928088.656                    23928096.594
 120410000.304 7  93826039.358 7  22913269.406                    22913279.816
 111102015.195 8  86573136.39145  21141997.930                    21142005.762
 108803387.435 8  84782001.14746  20704583.172                    20704588.148
 119351983.633 7  93001655.84344  22711906.805                    22711915.734
 109579728.133 8  85386897.737 7  20852334.508                    20852341.727
 110372283.483 8  86004498.763 7  21003144.891                    21003152.574
 11  8 13  1 24  0.0000000  0  9G30G09G17G25G10G02G04G12G05
 116143883.166 7  90501796.09745  22101450.844                    22101459.133
 130253424.385 6 101496239.72643  24786416.477                    24786429.129
 125808425.090 7  98032551.020 6  23940531.305                    23940539.684
 120329114.423 7  93763011.419 7  22897876.977                    22897887.652
 111142617.006 8  86604774.16545  21149724.320                    21149732.027
 108820079.336 8  84795007.82146  20707759.344                    20707764.699
 119434258.369 7  93065766.00144  22727563.078                    22727571.770
 109555479.305 8  85368002.564 7  20847719.969                    20847727.535
 110308455.100 8  85954762.411 7  20990998.633                    20991006.582
 11  8 13  1 24 30.0000000  0  9G30G09G17G25G10G02G04G12G05
 116080778.905 7  90452623.98545  22089442.461                    22089450.902
 130336246.233 6 101560776.22643  24802177.188                    24802189.383
 125873997.381 6  98083646.264 6  23953008.930                    23953017.254
 120248588.814 7  93700264.222 6  22882553.477                    22882563.914
 111183803.560 8  86636867.57945  21157561.656                    21157569.441
 108836984.966 8  84808181.04846  20710976.094                    20710981.523
 119516561.986 7  93129898.66244  22743225.133                    22743234.063
 109531788.671 8  85349542.330 7  20843211.383                    20843218.926
 110245102.229 8  85905396.579 8  20978943.281                    20978951.004
 11  8 13  1 25  0.0000000  0  9G30G09G17G25G10G02G04G12G05
 116018177.068 7  90403843.36945  22077529.969                    22077538.438
 130419004.296 6 101625262.95343  24817924.852                    24817938.109
 125939752.919 6  98134884.327 6  23965522.359                    23965530.332
 120168425.860 7  93637799.620 7  22867299.000                    22867309.633
 111225572.977 8  86669415.17445  21165510.063                    21165517.875
 108854102.685 8  84821519.53046  20714233.477                    20714238.410
 119598893.032 7  93194052.69744  22758891.969                    22758901.176
 109508657.129 8  85331517.760 7  20838809.859                    20838816.750
 110182226.743 8  85856402.747 8  20966978.148                    20966986.027
 11  8 13  1 25 30.0000000  0  9G30G09G17G25G10G02G04G12G05
 115956079.991 7  90355456.07345  22065712.922                    22065721.359
 130501695.732 6 101689697.84343  24833661.625                    24833673.902
 126005692.104 6  98186265.501 6  23978070.258                    23978078.645
 120088628.184 7  93575619.630 7  22852113.836                    22852124.426
 111267923.647 8  86702415.69645  21173569.023                    21173577.445
 108871431.605 8  84835022.59446  20717531.133                    20717536.496
 119681250.167 7  93258227.03944  22774564.211                    22774572.988
 109486085.988 8  85313929.870 7  20834514.648                    20834522.008
 110119830.908 8  85807782.653 7  20955104.719                    20955112.316
 11  8 13  1 26  0.0000000  0  9G30G09G17G25G10G02G04G12G05
 115894489.755 7  90307463.74145  22053993.031                    22054001.289
 130584317.735 6 101754078.53643  24849384.273                    24849396.027
 126071814.541 6  98237789.442 6  23990652.148                    23990661.406
 120009198.254 7  93513726.201 6  22836999.047                    22837008.836
 111310853.701 8  86735867.68245  21181738.711                    21181746.617
 108888970.338 8  84848689.15746  20720868.352                    20720874.215
 119763632.208 7  93322420.82844  22790240.859                    22790249.645
 109464075.875 8  85296779.146 7  20830326.344                    20830333.469
 110057916.729 8  85759537.885 8  20943322.531                    20943330.695
 11  8 13  1 26 30.0000000  0  8G30G17G25G10G02G04G12G05
 115833408.874 7  90259868.29545  22042369.336                    22042377.598
 126138121.147 6  98289456.903 6  24003270.672                    24003279.633
 119930138.998 7  93452121.599 7  22821953.984                    22821965.145
 111354362.118 7  86769770.33745  21190018.336                    21190025.555
 108906718.466 8  84862518.87146  20724246.172                    20724251.137
 119846038.036 7  93386633.15844  22805921.820                    22805931.004
 109442628.350 8  85280066.804 7  20826245.016                    20826252.230
 109996486.344 8  85711670.099 7  20931632.914                    20931640.660
 11  8 13  1 27  0.0000000  0  8G30G17G25G10G02G04G12G05
 115772839.567 7  90212671.48945  22030843.625                    22030851.309
 126204611.957 6  98341267.883 6  24015922.266                    24015931.813
 119851453.001 7  93390807.861 7  22806980.977                    22806991.742
 111398447.185 7  86804122.34345  21198407.234                    21198415.039
 108924674.665 8  84876510.72546  20727663.188                    20727668.027
 119928466.487 7  93450863.10944  22821607.531                    22821616.789
 109421744.461 8  85263793.654 7  20822271.141                    20822278.410
 109935542.024 8  85664181.065 7  20920035.148                    20920043.211
 11  8 13  1 27 30.0000000  0  8G30G17G25G10G02G04G12G05
 115712783.556 7  90165874.62445  22019415.109                    22019423.391
 126271286.512 6  98393222.039 5  24028611.227                    24028619.148
 119773142.498 7  93329786.705 7  22792078.922                    22792089.332
 111443106.844 7  86838922.08146  21206905.273                    21206913.066
 108942837.263 8  84890663.40446  20731119.234                    20731124.164
 120010915.914 7  93515109.38644  22837297.414                    22837306.832
 109401425.106 8  85247960.396 7  20818404.086                    20818411.563
 109875085.553 8  85617072.179 7  20908531.086                    20908538.656
 11  8 13  1 28  0.0000000  0  8G30G17G25G10G02G04G12G05
 115653242.894 7  90119479.35145  22008084.852                    22008093.246
 126338145.228 6  98445319.710 6  24041334.664                    24041342.305
 119695209.909 7  93269060.055 7  22777248.727                    22777259.574
 111488339.292 8  86874168.13845  21215512.727                    21215520.711
 108961205.374 8  84904976.22646  20734614.195                    20734619.816
 120093384.978 7  93579370.97444  22852990.563                    22852999.848
 109381671.426 8  85232567.916 7  20814645.461                    20814652.109
 109815118.572 8  85570344.713 8  20897119.859                    20897127.344
 11  8 13  1 28 30.0000000  0  8G30G17G25G10G02G04G12G05
 115594219.642 7  90073487.26045  21996853.109                    21996861.770
 126405188.189 6  98497560.957 6  24054091.609                    24054100.008
 119617657.779 7  93208629.846 7  22762491.047                    22762502.160
 111534142.615 8  86909859.04345  21224229.219                    21224237.082
 108979777.508 8  84919448.02346  20738148.531                    20738154.289
 120175872.373 7  93643646.84444  22868687.469                    22868696.754
 109362483.949 8  85217616.632 7  20810994.094                    20811001.145
 109755643.237 8  85524000.341 8  20885801.742                    20885809.293
 11  8 13  1 29  0.0000000  0  8G30G17G25G10G02G04G12G05
 115535716.027 7  90027900.06545  21985720.055                    21985728.477
 126472415.514 6  98549945.864 5  24066885.383                    24066893.438
 119540488.728 7  93148498.162 7  22747805.992                    22747816.730
 111580515.551 8  86945993.79945  21233053.578                    21233061.523
 108998552.756 8  84934078.08546  20741721.664                    20741726.914
 120258376.989 7  93707936.13744  22884387.828                    22884396.324
 109343863.733 8  85203107.382 7  20807450.539                    20807457.637
 109696661.419 8  85478040.547 8  20874577.750                    20874585.223
 11  8 13  1 29 30.0000000  0  8G30G17G25G10G02G04G12G05
 115477733.920 7  89982719.24045  21974686.375                    21974694.828
 126539827.175 6  98602474.425 6  24079712.414                    24079720.758
 119463705.060 7  93088666.761 7  22733195.016                    22733205.527
 111627455.874 7  86982570.68745  21241986.070                    21241993.902
 109017529.550 8  84948865.19846  20745332.617                    20745338.219
 120340897.324 6  93772237.66344  22900090.461                    22900099.703
 109325811.484 8  85189040.699 7  20804015.406                    20804023.023
 109638175.036 8  85432466.791 7  20863448.078                    20863455.859
 11  8 13  1 30  0.0000000  0  8G30G17G25G10G02G04G12G05
 115420275.569 7  89937946.55345  21963752.688                    21963760.809
 126607423.433 6  98655146.776 6  24092576.023                    24092584.227
 119387309.541 7  93029137.823 7  22718657.492                    22718668.176
 111674961.960 7  87019588.42845  21251025.992                    21251033.523
 109036707.470 8  84963809.02946  20748982.266                    20748987.387
 120423432.431 7  93836550.72644  22915796.914                    22915805.586
 109308328.471 8  85175417.571 7  20800688.789                    20800695.629
 109580186.215 8  85387280.749 8  20852413.367                    20852420.840
 11  8 13  1 30 30.0000000  0  8G30G17G25G10G02G04G12G05
 115363342.987 8  89893583.53245  21952918.969                    21952926.898
 126675204.059 6  98707962.831 6  24105473.703                    24105482.262
 119311304.506 7  92969913.151 7  22704194.203                    22704204.387
 111723031.693 8  87057045.36245  21260173.461                    21260181.398
 109056085.004 8  84978908.40246  20752669.344                    20752674.938
 120505981.277 7  93900874.52744  22931505.680                    22931514.137
 109291415.514 8  85162238.631 7  20797470.414                    20797477.141
 109522696.759 8  85342483.827 8  20841473.078                    20841481.121
 11  8 13  1 31  0.0000000  0  8G30G17G25G10G02G04G12G05
 115306937.998 7  89849631.63445  21942185.422                    21942193.090
 126743169.449 6  98760922.819 6  24118407.305                    24118415.637
 119235692.453 7  92910994.703 7  22689805.266                    22689816.441
 111771663.277 8  87094940.11545  21269427.617                    21269435.488
 109075661.180 8  84994162.55446  20756394.813                    20756400.098
 120588542.607 7  93965208.03744  22947216.508                    22947224.965
 109275073.469 8  85149504.565 7  20794360.438                    20794367.621
 109465708.374 8  85298077.347 8  20830628.578                    20830636.277
 11  8 13  1 31 30.0000000  0  8G30G17G25G10G02G04G12G05
 115251062.717 8  89806092.47745  21931552.609                    21931560.344
 126811319.680 6  98814026.883 6  24131376.586                    24131384.500
 119160475.844 7  92852384.409 7  22675491.930                    22675502.789
 111820854.717 8  87133271.11345  21278788.609                    21278795.957
 109095434.690 8  85009570.46946  20760157.734                    20760162.918
 120671114.828 7  94029550.05544  22962928.898                    22962938.082
 109259302.770 8  85137215.706 7  20791359.836                    20791366.250
 109409222.759 8  85254062.631 8  20819879.883                    20819887.520
 11  8 13  1 32  0.0000000  0  8G30G17G25G10G02G04G12G05
 115195718.985 8  89762967.50145  21921020.672                    21921028.656
 126879654.676 6  98867274.888 6  24144379.680                    24144388.395
 119085657.185 7  92794084.210 7  22661254.414                    22661265.383
 111870604.142 7  87172036.89945  21288255.563                    21288263.484
 109115404.330 8  85025131.22046  20763957.406                    20763962.883
 120753696.945 7  94093899.75344  22978644.266                    22978652.434
 109244104.776 8  85125373.117 7  20788467.305                    20788474.379
 109353241.887 8  85210441.226 8  20809226.945                    20809234.395
 11  8 13  1 32 30.0000000  0  8G30G17G25G10G02G04G12G05
 115140908.988 7  89720258.42745  21910590.930                    21910599.406
 126948174.838 6  98920667.195 6  24157418.500                    24157427.293
 119011239.149 7  92736096.191 7  22647093.258                    22647104.137
 111920909.826 7  87211236.14345  21297828.609                    21297836.211
 109135569.594 8  85040844.39546  20767795.148                    20767800.488
 120836287.919 7  94158256.35444  22994360.719                    22994369.602
 109229480.426 8  85113977.512 7  20785684.570                    20785691.531
 109297767.968 8  85167214.845 7  20798670.992                    20798678.359
 11  8 13  1 33  0.0000000  0  8G30G17G25G10G02G04G12G05
 115086634.526 7  89677966.66545  21900262.609                    21900270.922
 127016880.106 6  98974203.734 6  24170492.898                    24170501.723
 118937223.944 8  92678422.068 7  22633008.758                    22633019.289
 111971769.877 8  87250867.35045  21307506.375                    21307514.074
 109155928.610 8  85056708.55046  20771669.125                    20771674.301
 120918886.609 6  94222618.96644  23010078.797                    23010087.266
 109215430.017 8  85103029.143 7  20783010.563                    20783017.738
 109242802.360 8  85124384.536 7  20788211.336                    20788218.625
 11  8 13  1 33 30.0000000  0  8G30G17G25G10G02G04G12G05
 115032897.535 8  89636093.70045  21890036.977                    21890045.113
 127085770.354 6  99027884.435 6  24183602.492                    24183611.480
 118863614.070 7  92621063.773 7  22619001.352                    22619011.582
 112023182.226 8  87290928.92045  21317289.797                    21317297.777
 109176480.628 8  85072723.10446  20775580.180                    20775585.535
 121001491.667 7  94286986.54744  23025797.797                    23025806.504
 109201954.100 8  85092528.437 7  20780446.750                    20780453.500
 109188346.833 8  85081951.714 8  20777848.578                    20777855.781
 11  8 13  1 34  0.0000000  0  8G30G17G25G10G02G04G12G05
 114979699.914 7  89594641.02445  21879913.484                    21879921.988
 127154845.588 6  99081709.240 6  24196746.383                    24196755.867
 118790411.955 7  92564023.216 7  22605071.078                    22605081.867
 112075144.516 7  87331419.01045  21327178.391                    21327186.223
 109197224.534 8  85088887.18446  20779527.570                    20779533.059
 121084102.151 6  94351358.37044  23041517.813                    23041526.973
 109189053.570 8  85082476.078 7  20777991.336                    20777998.520
 109134403.333 8  85039917.861 8  20767582.953                    20767590.879
 11  8 13  1 34 30.0000000  0  8G30G17G25G10G02G04G12G05
 114927043.536 8  89553610.09945  21869893.578                    21869901.813
 127224106.175 6  99135678.475 6  24209927.102                    24209935.613
 118717620.095 7  92507302.350 7  22591219.461                    22591229.590
 112127655.046 7  87372336.30545  21337170.750                    21337178.383
 109218159.305 8  85105199.98946  20783511.320                    20783516.809
 121166716.869 6  94415733.49744  23057238.938                    23057247.699
 109176729.426 8  85072872.851 7  20775646.258                    20775653.336
 109080973.398 8  84998284.191 8  20757416.055                    20757423.332
 11  8 13  1 35  0.0000000  0  8G30G17G25G10G02G04G12G05
 114874930.324 8  89513002.42945  21859976.492                    21859985.105
 127293551.865 6  99189791.954 6  24223142.344                    24223151.434
 118645240.859 7  92450903.000 7  22577446.070                    22577456.430
 112180711.906 7  87413679.30445  21347267.336                    21347274.914
 109239283.771 7  85121660.60746  20787531.148                    20787536.219
 121249334.805 6  94480111.14544  23072960.430                    23072969.367
 109164982.207 8  85063719.186 7  20773411.031                    20773418.059
 109028058.987 8  84957052.229 8  20747346.547                    20747354.699
 11  8 13  1 35 30.0000000  0  8G30G17G25G10G02G04G12G05
 114823361.990 8  89472819.33145  21850163.602                    21850171.469
 127363182.659 6  99244049.674 6  24236392.508                    24236400.949
 118573276.633 7  92394827.020 7  22563751.805                    22563762.133
 112234312.846 7  87455446.26945  21357467.008                    21357474.582
 109260596.760 7  85138268.12746  20791587.078                    20791591.992
 121331954.652 7  94544490.25344  23088682.625                    23088691.320
 109153812.238 8  85055015.325 7  20771285.273                    20771292.246
 108975661.543 8  84916223.088 7  20737375.695                    20737382.805
 11  8 13  1 36  0.0000000  0  9G30G29G17G25G10G02G04G12G05
 114772340.611 8  89433062.43545  21840454.227                    21840462.707
 129610345.33416 100995050.50616  24664017.938                    24664028.109
 127432998.838 6  99298451.889 6  24249677.492                    24249686.023
 118501729.978 7  92339076.422 7  22550136.219                    22550147.203
 112288455.853 7  87497635.62445  21367770.469                    21367778.027
 109282097.393 7  85155021.87446  20795678.336                    20795683.855
 121414575.552 7  94608870.15744  23104405.195                    23104413.824
 109143220.495 8  85046762.027 7  20769269.594                    20769277.039
 108923782.930 8  84875798.241 7  20727503.438                    20727511.016
 11  8 13  1 36 30.0000000  0  9G30G29G17G25G10G02G04G12G05
 114721867.609 7  89393732.85845  21830849.516                    21830858.145
 129530644.833 6 100932946.290 6  24648851.875                    24648862.055
 127503000.183 6  99352998.356 6  24262998.422                    24263007.492
 118430603.039 7  92283652.876 7  22536601.563                    22536611.930
 112343138.721 7  87540245.66545  21378176.055                    21378183.363
 109303784.251 8  85171920.72446  20799805.234                    20799811.012
 121497196.064 6  94673249.75944  23120128.055                    23120136.188
 109133207.562 8  85038959.759 7  20767364.203                    20767371.438
 108872424.687 8  84835778.874 8  20717729.805                    20717737.445
 11  8 13  1 37  0.0000000  0  9G30G29G17G25G10G02G04G12G05
 114671945.113 8  89354832.24745  21821349.250                    21821358.020
 129450870.015 6 100870784.160 6  24633670.633                    24633680.203
 127573186.824 6  99407689.185 6  24276354.352                    24276363.410
 118359898.504 7  92228558.466 7  22523146.719                    22523157.660
 112398359.469 7  87583274.82945  21388684.117                    21388691.848
 109325656.520 8  85188964.06246  20803967.242                    20803972.145
 121579815.599 7  94737628.61044  23135850.047                    23135858.164
 109123773.797 8  85031608.787 7  20765569.055                    20765576.223
 108821588.621 8  84796166.403 8  20708056.445                    20708063.984
 11  8 13  1 37 30.0000000  0  9G30G29G17G25G10G02G04G12G05
 114622574.840 8  89316361.92445  21811955.039                    21811963.359
 129371021.152 6 100808564.340 6  24618475.508                    24618485.953
 127643558.660 6  99462524.311 6  24289746.602                    24289755.031
 118289618.627 7  92173794.964 7  22509772.992                    22509783.902
 112454116.089 7  87626721.55745  21399294.109                    21399301.727
 109347713.231 8  85206151.12046  20808164.695                    20808169.633
 121662432.927 7  94802005.75644  23151571.125                    23151580.152
 109114919.951 8  85024709.692 7  20763884.531                    20763891.613
 108771276.110 8  84756961.902 8  20698482.266                    20698489.738
 11  8 13  1 38  0.0000000  0  9G30G29G17G25G10G02G04G12G05
 114573758.340 8  89278323.12745  21802664.867                    21802673.590
 129291098.678 6 100746287.151 6  24603266.805                    24603277.160
 127714115.714 6  99517503.776 6  24303172.539                    24303181.848
 118219765.758 7  92119364.190 7  22496480.383                    22496491.121
 112510406.497 7  87670584.22845  21410005.523                    21410013.262
 109369952.921 8  85223480.76446  20812396.930                    20812402.066
 121745047.015 7  94866380.37643  23167292.047                    23167300.570
 109106646.178 8  85018262.612 7  20762309.969                    20762316.824
 108721488.814 8  84718166.653 8  20689008.000                    20689015.750
 11  8 13  1 38 30.0000000  0  9G30G29G17G25G10G02G04G12G05
 114525497.390 8  89240717.23845  21793481.555                    21793489.898
 129211103.258 6 100683953.076 6  24588045.133                    24588054.766
 127784857.831 6  99572627.483 6  24316634.875                    24316643.625
 118150342.136 7  92065267.876 7  22483269.531                    22483279.813
 112567228.196 7  87714860.88245  21420819.141                    21420826.359
 109392374.670 8  85240952.27646  20816663.195                    20816668.508
 121827656.402 7  94930751.33244  23183011.945                    23183020.777
 109098953.367 8  85012268.217 8  20760846.023                    20760853.406
 108672228.384 8  84679781.955 8  20679633.977                    20679641.484
 11  8 13  1 39  0.0000000  0  9G30G29G17G25G10G02G04G12G05
 114477793.525 8  89203545.43145  21784404.016                    21784412.031
 129131035.227 6 100621562.460 6  24572807.836                    24572818.285
 127855785.174 6  99627895.516 6  24330131.672                    24330140.926
 118081350.123 7  92011507.900 7  22470141.000                    22470151.352
 112624579.263 7  87759550.03845  21431731.945                    21431739.605
 109414977.556 8  85258564.93146  20820964.477                    20820970.180
 121910260.420 7  94995118.08444  23198730.906                    23198739.488
 109091841.812 8  85006726.763 8  20759492.859                    20759499.426
 108623496.280 8  84641808.938 8  20670361.016                    20670367.879
 11  8 13  1 39 30.0000000  0  9G30G29G17G25G10G02G04G12G05
 114430648.594 7  89166809.15345  21775432.398                    21775440.004
 129050895.194 6 100559115.718 6  24557558.523                    24557567.496
 127926897.599 6  99683307.775 6  24343663.883                    24343672.875
 118012792.029 7  91958086.028 7  22457094.500                    22457104.848
 112682457.456 7  87804649.93545  21442746.484                    21442753.691
 109437760.378 8  85276317.79146  20825300.219                    20825305.320
 121992857.969 7  95059479.80544  23214449.047                    23214457.281
 109085312.071 8  85001638.664 7  20758250.117                    20758257.035
 108575293.971 8  84604248.751 8  20661188.016                    20661194.973
 11  8 13  1 40  0.0000000  0  9G30G29G17G25G10G02G04G12G05
 114384064.249 7  89130509.70045  21766567.625                    21766575.844
 128970683.651 6 100496613.260 6  24542294.203                    24542303.629
 127998195.016 6  99738864.233 6  24357231.961                    24357240.371
 117944670.296 7  91905004.190 7  22444131.797                    22444142.063
 112740860.666 7  87850158.94445  21453859.609                    21453867.527
 109460721.953 8  85294209.95546  20829669.203                    20829674.637
 122075448.163 7  95123835.78844  23230165.547                    23230173.488
 109079363.994 8  84997003.821 7  20757117.938                    20757125.109
 108527622.983 8  84567102.571 8  20652116.313                    20652123.855
 11  8 13  1 40 30.0000000  0  9G30G29G17G25G10G02G04G12G05
 114338041.780 7  89094648.07345  21757809.695                    21757817.820
 128890401.380 6 100434055.653 6  24527017.313                    24527027.129
 128069677.357 6  99794564.765 5  24370833.969                    24370842.727
 117876986.963 7  91852263.963 7  22431251.617                    22431262.055
 112799786.169 7  87896074.92645  21465072.961                    21465080.816
 109483861.051 8  85312240.44646  20834072.547                    20834077.672
 122158029.671 7  95188184.97444  23245880.039                    23245888.523
 109073998.134 8  84992822.643 7  20756097.250                    20756104.195
 108480484.681 8  84530371.471 8  20643146.352                    20643153.852
 11  8 13  1 41  0.0000000  0  9G30G29G17G25G10G02G04G12G05
 114292582.896 8  89059225.59445  21749159.375                    21749167.016
 128810048.841 6 100371443.299 6  24511726.133                    24511736.156
 128141344.696 6  99850409.545 5  24384471.414                    24384479.688
 117809744.383 7  91799867.188 7  22418455.625                    22418466.246
 112859231.812 7  87942396.21945  21476384.930                    21476392.797
 109507177.059 7  85330408.78346  20838509.500                    20838514.941
 122240601.491 6  95252526.62644  23261592.922                    23261602.098
 109069215.018 7  84989095.556 7  20755186.789                    20755193.840
 108433880.477 8  84494056.553 8  20634277.758                    20634285.285
 11  8 13  1 41 30.0000000  0  9G30G29G17G25G10G02G04G12G05
 114247689.434 8  89024243.70145  21740616.266                    21740624.285
 128729626.758 6 100308776.741 6  24496422.102                    24496432.180
 128213196.683 6  99906398.140 5  24398145.234                    24398153.242
 117742945.023 7  91747815.790 7  22405744.430                    22405754.625
 112919195.575 7  87989121.24245  21487795.945                    21487803.629
 109530668.890 8  85348714.13746  20842979.977                    20842985.098
 122323162.904 7  95316860.20244  23277303.492                    23277312.086
 109065015.070 8  84985822.885 7  20754387.547                    20754394.508
 108387812.036 8  84458159.104 8  20625511.156                    20625518.543
 11  8 13  1 42  0.0000000  0  9G30G29G17G25G10G02G04G12G05
 114203362.933 8  88989703.60045  21732181.203                    21732189.387
 128649135.624 6 100246056.384 5  24481105.453                    24481114.895
 128285233.416 6  99962530.755 5  24411853.445                    24411860.793
 117676591.204 7  91696111.559 7  22393117.242                    22393127.555
 112979675.101 7  88036248.15745  21499304.359                    21499312.129
 109554335.371 8  85367155.58046  20847483.461                    20847488.664
 122405713.007 6  95381184.91243  23293012.961                    23293021.227
 109061398.658 7  84983004.909 8  20753699.391                    20753706.770
 108342280.810 8  84422680.268 8  20616846.773                    20616854.547
 11  8 13  1 42 30.0000000  0  9G30G29G17G25G10G02G04G12G05
 114159604.891 8  88955606.45645  21723854.141                    21723862.598
 128568575.972 6 100183282.630 5  24465776.078                    24465785.488
 128357454.857 6 100018807.255 5  24425596.367                    24425603.613
 117610684.971 7  91644756.092 7  22380576.313                    22380586.262
 113040668.113 7  88083775.19045  21510911.102                    21510918.762
 109578175.579 8  85385732.39046  20852019.914                    20852024.949
 122488250.708 6  95445500.00043  23308719.398                    23308727.527
 109058365.996 8  84980641.821 7  20753122.125                    20753129.652
 108297287.976 8  84387620.966 8  20608284.906                    20608292.797
 11  8 13  1 43  0.0000000  0  9G30G29G17G25G10G02G04G12G05
 114116416.634 8  88921953.30545  21715635.461                    21715644.176
 128487948.510 6 100120456.057 5  24450432.555                    24450442.594
 128429860.723 6 100075227.503 5  24439374.328                    24439381.551
 117545228.614 7  91593751.189 7  22368119.992                    22368130.395
 113102172.316 7  88131700.54045  21522614.781                    21522622.766
 109602188.213 8  85404443.55346  20856589.344                    20856594.672
 122570775.132 6  95509804.71443  23324423.023                    23324431.262
 109055917.516 8  84978733.921 7  20752656.016                    20752663.230
 108252835.192 8  84352982.468 8  20599826.055                    20599833.609
 11  8 13  1 43 30.0000000  0  9G30G29G17G25G10G02G04G12G05
 114073799.938 8  88888745.53245  21707526.016                    21707534.605
 128407253.861 6 100057577.116 5  24435076.664                    24435086.398
 128502451.033 6 100131791.364 5  24453187.969                    24453195.844
 117480224.540 7  91543098.713 7  22355750.352                    22355760.875
 113164185.549 7  88180022.55045  21534415.906                    21534423.602
 109626372.467 8  85423288.45246  20861191.352                    20861196.789
 122653285.356 6  95574098.37643  23340123.438                    23340132.070
 109054053.246 8  84977281.257 7  20752301.773                    20752308.801
 108208923.483 8  84318765.590 8  20591469.742                    20591477.020
 11  8 13  1 44  0.0000000  0  9G30G29G17G25G10G02G04G12G05
 114031756.209 8  88855984.21545  21699525.336                    21699533.656
 128326492.799 6  99994646.443 6  24419707.969                    24419717.926
 128575225.606 6 100188498.782 5  24467036.516                    24467044.566
 117415674.910 7  91492800.350 7  22343467.133                    22343477.059
 113226705.282 7  88228739.22045  21546312.516                    21546320.566
 109650727.478 8  85442266.40646  20865826.242                    20865831.113
 122735780.370 6  95638380.19643  23355822.000                    23355830.516
 109052773.323 8  84976283.924 7  20752057.938                    20752065.090
 108165554.375 8  84284971.522 8  20583216.750                    20583224.066
 11  8 13  1 44 30.0000000  0  9G30G29G17G25G10G02G04G12G05
 113990286.784 7  88823670.39745  21691634.039                    21691642.258
 128245665.711 6  99931664.346 6  24404327.586                    24404338.059
 128648184.629 6 100245350.036 5  24480920.211                    24480928.145
 117351581.843 7  91442857.760 7  22331270.117                    22331280.168
 113289729.127 7  88277848.70845  21558306.016                    21558313.258
 109675251.927 8  85461376.39346  20870492.672                    20870497.855
 122818259.203 6  95702649.38643  23371517.477                    23371525.598
 109052077.805 8  84975741.971 7  20751925.531                    20751932.598
 108122728.963 8  84251601.102 8  20575067.758                    20575074.754
 11  8 13  1 45  0.0000000  0  9G30G29G17G25G10G02G04G12G05
 113949393.150 8  88791805.25145  21683852.484                    21683860.414
 128164773.425 6  99868631.475 6  24388933.961                    24388944.973
 128721327.740 7 100302344.746 6  24494838.766                    24494847.258
 117287947.529 7  91393272.634 7  22319160.828                    22319171.090
 113353254.627 7  88327349.10245  21570394.336                    21570402.078
 109699945.208 8  85480617.93346  20875191.688                    20875197.340
 122900720.909 6  95766905.25743  23387209.242                    23387217.473
 109051966.966 8  84975655.604 8  20751904.391                    20751911.832
 108080448.711 8  84218655.491 8  20567021.430                    20567028.840
 11  8 13  1 45 30.0000000  0  8G30G29G25G10G02G04G12G05
 113909075.982 8  88760389.30745  21676180.352                    21676188.344
 128083815.885 6  99805547.755 6  24373528.516                    24373539.031
 117224773.529 7  91344046.185 7  22307139.445                    22307149.516
 113417278.807 7  88377238.08045  21582577.805                    21582585.492
 109724805.300 8  85499989.46246  20879922.578                    20879927.750
 122983164.230 6  95831146.77443  23402898.039                    23402906.035
 109052440.946 8  84976024.959 7  20751995.211                    20752002.074
 108038714.268 8  84186135.180 8  20559079.695                    20559087.363
 11  8 13  1 46  0.0000000  0  8G30G29G25G10G02G04G12G05
 113869336.843 7  88729423.77145  21668618.234                    21668626.023
 128002794.145 7  99742414.025 6  24358111.336                    24358120.121
 117162062.132 7  91295180.204 7  22295205.969                    22295215.961
 113481799.481 7  88427513.93745  21594855.664                    21594863.402
 109749831.375 8  85519490.31046  20884684.563                    20884690.125
 123065588.102 6  95895373.18843  23418582.859                    23418591.387
 109053499.080 8  84976849.483 7  20752195.992                    20752202.820
 107997526.824 8  84154041.109 8  20551241.758                    20551249.363
 11  8 13  1 46 30.0000000  0  8G30G29G25G10G02G04G12G05
 113830177.556 8  88698910.04445  21661166.344                    21661174.449
 127921708.949 6  99679230.838 6  24342680.797                    24342690.039
 117099815.947 8  91246676.717 7  22283360.219                    22283371.242
 113546814.910 7  88478175.31045  21607227.766                    21607235.711
 109775022.803 8  85539120.01246  20889478.766                    20889483.719
 123147992.244 6  95959584.20644  23434263.914                    23434272.320
 109055141.952 8  84978129.667 7  20752508.789                    20752515.672
 107956888.168 8  84122374.654 8  20543508.648                    20543516.172
 11  8 13  1 47  0.0000000  0  8G30G29G25G10G02G04G12G05
 113791599.765 8  88668849.42845  21653825.094                    21653833.207
 127840561.444 6  99615999.069 6  24327238.672                    24327248.414
 117038037.448 7  91198537.673 7  22271604.570                    22271614.859
 113612322.740 7  88529220.37045  21619693.648                    21619700.969
 109800379.156 8  85558878.21946  20894303.781                    20894308.980
 123230376.117 6  96023779.42143  23449939.906                    23449949.551
 109057370.513 8  84979866.232 8  20752932.742                    20752940.234
 107916799.724 8  84091136.938 8  20535880.266                    20535887.508
 11  8 13  1 47 30.0000000  0  8G30G29G25G10G02G04G12G05
 113753604.475 7  88639242.71845  21646595.195                    21646602.957
 127759352.076 7  99552719.099 6  24311785.320                    24311795.082
 116976728.508 8  91150764.520 7  22259937.797                    22259948.453
 113678320.138 7  88580646.92445  21632252.492                    21632259.859
 109825898.861 8  85578763.71246  20899159.727                    20899165.426
 123312738.451 6  96087957.81743  23465613.656                    23465622.160
 109060184.248 8  84982058.773 7  20753468.164                    20753475.316
 107877262.554 8  84060328.787 8  20528356.516                    20528363.551
 11  8 13  1 48  0.0000000  0  8G30G29G25G10G02G04G12G05
 113716192.901 7  88610090.83845  21639475.641                    21639483.695
 127678081.511 6  99489391.452 6  24296319.188                    24296329.363
 116915891.152 7  91103358.830 7  22248361.094                    22248371.328
 113744804.887 7  88632453.22245  21644904.094                    21644911.586
 109851581.104 8  85598775.85346  20904047.422                    20904052.313
 123395078.534 6  96152118.91344  23481282.836                    23481290.770
 109063582.954 8  84984707.137 7  20754115.242                    20754122.031
 107838277.542 8  84029950.889 8  20520937.773                    20520945.027
 11  8 13  1 48 30.0000000  0  8G30G29G25G10G02G04G12G05
 113679366.575 7  88581395.00745  21632467.688                    21632475.809
 127596750.896 6  99426016.969 6  24280843.453                    24280852.281
 116855527.698 8  91056322.409 7  22236873.969                    22236884.141
 113811774.600 7  88684637.41345  21657647.633                    21657655.586
 109877425.123 8  85618914.06246  20908964.953                    20908970.105
 123477395.672 7  96216262.14843  23496946.648                    23496955.875
 109067567.032 8  84987811.645 8  20754872.961                    20754880.109
 107799845.888 7  84000004.176 8  20513624.234                    20513631.793
 11  8 13  1 49  0.0000000  0  8G30G29G25G10G02G04G12G05
 113643126.436 7  88553155.94345  21625571.523                    21625579.504
 127515360.367 6  99362595.867 6  24265354.602                    24265364.285
 116795639.917 8  91009656.639 7  22225478.266                    22225488.273
 113879226.562 7  88737197.39245  21670483.313                    21670491.180
 109903429.601 8  85639177.29346  20913913.070                    20913918.504
 123559688.806 6  96280386.65543  23512606.563                    23512615.957
 109072135.746 8  84991371.711 7  20755742.516                    20755749.586
 107761968.681 8  83970489.537 8  20506416.594                    20506424.078
 11  8 13  1 49 30.0000000  0  8G30G29G25G10G02G04G12G05
 113607473.926 7  88525374.77345  21618786.891                    21618795.391
 127433911.188 7  99299129.021 6  24249855.828                    24249864.902
 116736230.195 8  90963363.369 7  22214172.750                    22214182.797
 113947158.250 7  88790131.17145  21683410.805                    21683418.398
 109929593.829 8  85659565.00346  20918892.352                    20918897.359
 123641957.107 6  96344491.85444  23528262.094                    23528270.910
 109077289.487 8  84995387.637 7  20756723.203                    20756730.418
 107724647.346 7  83941408.064 8  20499314.469                    20499321.871
 11  8 13  1 50  0.0000000  0  8G30G29G25G10G02G04G12G05
 113572410.142 8  88498052.35545  21612114.961                    21612122.500
 127352403.844 6  99235616.859 6  24234344.773                    24234354.898
 116677300.451 8  90917444.110 7  22202958.492                    22202968.914
 114015567.288 7  88843436.92745  21696428.180                    21696436.637
 109955916.984 8  85680076.54946  20923901.688                    20923906.520
 123724199.950 6  96408577.18243  23543912.234                    23543920.871
 109083028.212 8  84999859.397 8  20757815.070                    20757821.984
 107687882.497 8  83912760.192 8  20492318.055                    20492325.656
 11  8 13  1 50 30.0000000  0  8G30G29G25G10G02G04G12G05
 113537936.100 8  88471189.47945  21605554.344                    21605562.426
 127270839.130 6  99172059.999 6  24218824.055                    24218833.418
 116618852.660 8  90871900.396 7  22191836.359                    22191846.332
 114084451.142 7  88897112.66045  21709536.070                    21709544.102
 109982397.791 8  85700710.95246  20928940.922                    20928946.012
 123806416.383 6  96472641.89444  23559557.773                    23559566.563
 109089351.704 8  85004786.822 7  20759018.391                    20759026.004
 107651675.082 8  83884546.678 8  20485428.320                    20485435.578
 11  8 13  1 51  0.0000000  0  8G30G29G25G10G02G04G12G05
 113504053.141 7  88444787.17645  21599107.188                    21599114.957
 127189217.820 6  99108459.059 6  24203291.383                    24203301.840
 116560888.900 8  90826733.835 7  22180805.773                    22180816.406
 114153807.312 7  88951156.43545  21722734.438                    21722742.406
 110009035.480 8  85721467.59546  20934009.766                    20934014.973
 123888605.674 6  96536685.46843  23575197.969                    23575206.473
 109096260.184 8  85010170.065 7  20760332.969                    20760339.891
 107616026.233 7  83856768.389 8  20478644.625                    20478651.598
 11  8 13  1 51 30.0000000  0  8G30G29G25G10G02G04G12G05
 113470761.957 7  88418846.00945  21592771.727                    21592779.832
 127107540.439 6  99044814.428 6  24187749.375                    24187758.508
 116503410.920 8  90781945.819 7  22169868.125                    22169878.727
 114223632.992 7  89005566.05645  21736022.086                    21736029.664
 110035828.621 8  85742345.36446  20939108.328                    20939113.523
 123970766.776 6  96600707.11643  23590832.891                    23590840.945
 109103752.301 8  85016008.094 7  20761758.586                    20761765.754
 107580936.800 7  83829426.005 8  20471967.406                    20471974.672
 11  8 13  1 52  0.0000000  0  8G30G29G25G10G02G04G12G05
 113438063.956 7  88393367.06145  21586549.477                    21586557.188
 127025807.850 6  98981126.759 6  24172195.516                    24172205.145
 116446420.945 8  90737538.061 7  22159023.539                    22159033.789
 114293925.701 7  89060339.59845  21749397.984                    21749405.355
 110062776.800 8  85763343.94746  20944236.422                    20944241.895
 124052899.174 6  96664706.35443  23606461.789                    23606470.668
 109111828.481 8  85022301.230 7  20763295.641                    20763302.688
 107546408.053 8  83802520.529 8  20465396.797                    20465403.805
 11  8 13  1 52 30.0000000  0  8G30G29G25G10G02G04G12G05
 113405960.168 8  88368351.14445  21580440.359                    21580447.918
 126944020.814 6  98917396.690 6  24156632.328                    24156642.090
 116389920.894 8  90693512.060 7  22148271.914                    22148281.961
 114364682.899 7  89115475.07545  21762862.672                    21762870.688
 110089878.777 8  85784462.36046  20949393.719                    20949398.563
 124135002.084 6  96728682.68844  23622084.852                    23622094.809
 109120488.753 8  85029049.500 7  20764943.617                    20764950.727
 107512440.628 8  83776052.424 8  20458932.766                    20458939.977
 11  8 13  1 53  0.0000000  0  8G30G29G25G10G02G04G12G05
 113374451.543 7  88343799.00045  21574444.430                    21574452.324
 126862180.333 6  98853624.943 6  24141057.859                    24141068.531
 116333912.740 8  90649869.354 7  22137613.805                    22137624.156
 114435901.916 7  89170970.39745  21776415.297                    21776423.000
 110117133.857 8  85805700.08046  20954579.914                    20954585.367
 124217074.815 7  96792635.45543  23637703.438                    23637712.766
 109129732.518 8  85036252.436 7  20766702.398                    20766709.691
 107479035.350 8  83750022.363 8  20452575.898                    20452583.086
 11  8 13  1 53 30.0000000  0  8G30G29G25G10G02G04G12G05
 113343539.164 7  88319711.46645  21568561.742                    21568569.734
 126780287.141 6  98789812.137 6  24125474.430                    24125483.949
 116278398.356 8  90606611.390 7  22127049.828                    22127060.090
 114507580.197 7  89226823.59045  21790055.453                    21790062.512
 110144540.986 8  85827056.28046  20959795.188                    20959800.984
 124299116.477 6  96856564.03943  23653315.805                    23653324.688
 109139559.617 8  85043909.919 7  20768572.727                    20768579.789
 107446193.246 8  83724431.143 8  20446326.281                    20446333.523
 11  8 13  1 54  0.0000000  0  8G30G29G25G10G02G04G12G05
 113313223.928 8  88296089.23046  21562793.227                    21562800.887
 126698342.333 6  98725959.094 6  24109881.102                    24109889.992
 116223379.698 8  90563739.715 7  22116580.266                    22116590.211
 114579715.133 7  89283032.63145  21803782.383                    21803789.453
 110172099.230 8  85848530.23646  20965039.797                    20965044.875
 124381126.250 6  96920467.75243  23668920.797                    23668929.648
 109149969.687 8  85052021.654 7  20770553.555                    20770560.652
 107413915.220 8  83699279.447 8  20440183.750                    20440190.902
 11  8 13  1 54 30.0000000  0  8G30G29G25G10G02G04G12G05
 113283506.917 7  88272933.15745  21557138.156                    21557146.570
 126616346.583 6  98662066.354 6  24094277.656                    24094287.246
 116168858.844 8  90521255.921 7  22106204.578                    22106215.539
 114652304.375 7  89339595.68645  21817595.141                    21817602.883
 110199807.925 8  85870121.43246  20970312.055                    20970317.613
 124463103.673 7  96984346.27943  23684521.086                    23684529.852
 109160962.604 8  85060587.567 7  20772645.383                    20772652.543
 107382202.299 8  83674568.108 8  20434149.102                    20434156.246
 11  8 13  1 55  0.0000000  0  8G30G29G25G10G02G04G12G05
 113254388.750 8  88250243.70945  21551597.250                    21551605.219
 126534300.410 6  98598134.313 6  24078664.305                    24078674.332
 116114837.326 8  90479161.242 7  22095925.109                    22095935.688
 114725344.921 7  89396510.37045  21831494.680                    21831502.422
 110227665.868 8  85891828.91846  20975613.898                    20975618.648
 124545047.959 7  97048198.95943  23700114.859                    23700124.039
 109172537.677 8  85069607.110 7  20774848.133                    20774854.992
 107351054.699 8  83650297.273 8  20428222.109                    20428228.953
 11  8 13  1 55 30.0000000  0  8G30G29G25G10G02G04G12G05
 113225870.495 8  88228021.72945  21546170.313                    21546178.395
 126452204.894 6  98534163.781 6  24063042.602                    24063052.629
 116061317.202 8  90437457.250 7  22085740.797                    22085750.824
 114798834.203 7  89453774.74745  21845478.922                    21845486.844
 110255672.285 7  85913652.10846  20980942.930                    20980948.332
 124626958.268 7  97112025.18943  23715702.031                    23715710.797
 109184694.885 8  85079080.249 7  20777161.414                    20777168.680
 107320473.445 7  83626467.730 8  20422402.281                    20422409.723
 11  8 13  1 56  0.0000000  0  8G30G29G25G10G02G04G12G05
 113197953.038 7  88206267.89645  21540857.500                    21540865.566
 126370060.865 6  98470155.442 6  24047410.852                    24047420.469
 116008300.322 8  90396145.404 7  22075651.656                    22075661.867
 114872769.536 7  89511386.67045  21859548.219                    21859555.832
 110283826.069 8  85935590.12146  20986300.750                    20986305.816
 124708833.802 7  97175824.30343  23731282.133                    23731291.566
 109197433.293 8  85089006.288 7  20779585.625                    20779592.563
 107290459.146 8  83603079.981 8  20416691.000                    20416698.063
 11  8 13  1 56 30.0000000  0  8G30G29G25G10G02G04G12G05
 113170637.399 8  88184983.01745  21535659.414                    21535667.418
 126287869.310 7  98406110.078 6  24031770.141                    24031780.176
 115955788.700 8  90355227.268 7  22065659.273                    22065669.563
 114947148.494 7  89569344.28445  21873702.180                    21873710.055
 110312126.824 8  85957642.66746  20991686.109                    20991691.316
 124790674.325 6  97239596.17843  23746855.766                    23746864.273
 109210752.726 8  85099385.056 7  20782120.148                    20782126.645
 107261012.970 8  83580134.918 8  20411087.617                    20411094.605
 11  8 13  1 57  0.0000000  0  8G30G29G25G10G02G04G12G05
 113143923.982 7  88164167.40445  21530576.375                    21530584.023
 126205630.913 7  98342028.235 6  24016120.984                    24016130.047
 115903783.718 8  90314703.932 7  22055763.055                    22055773.047
 115021968.094 7  89627645.25745  21887940.133                    21887947.531
 110340572.996 8  85979808.52546  20997099.453                    20997105.082
 124872478.650 7  97303339.80643  23762422.813                    23762431.051
 109224652.333 8  85110215.923 7  20784765.234                    20784772.551
 107232135.188 7  83557632.775 8  20405591.953                    20405599.266
 11  8 13  1 57 30.0000000  0  8G30G29G25G10G02G04G12G05
 113117813.674 8  88143821.74346  21525607.719                    21525615.906
 126123346.594 7  98277910.576 6  24000462.758                    24000471.195
 115852287.320 8  90274576.898 7  22045963.523                    22045973.629
 115097225.697 7  89686287.53045  21902261.352                    21902268.871
 110369163.888 8  86002087.16346  21002540.031                    21002545.047
 124954246.229 7  97367054.83043  23777982.016                    23777990.961
 109239132.154 8  85121498.896 7  20787520.750                    20787527.613
 107203826.459 8  83535574.052 8  20400205.258                    20400212.145
 11  8 13  1 58  0.0000000  0  8G30G29G25G10G02G04G12G05
 113092307.470 8  88123946.81545  21520753.797                    21520762.098
 126041017.141 7  98213757.736 6  23984796.352                    23984804.629
 115801301.519 8  90234847.721 7  22036261.156                    22036271.441
 115172919.010 7  89745269.34445  21916664.688                    21916672.883
 110397898.852 8  86024478.05446  21008008.133                    21008012.734
 125035976.560 6  97430740.79643  23793535.875                    23793543.930
 109254191.265 8  85133233.267 7  20790386.281                    20790393.500
 107176087.708 8  83513959.461 8  20394926.867                    20394934.242
 11  8 13  1 58 30.0000000  0  8G30G29G25G10G02G04G12G05
 113067406.074 7  88104543.17245  21516015.375                    21516023.090
 125958644.205 6  98149571.065 6  23969121.242                    23969130.148
 115750828.025 8  90195517.760 7  22026656.242                    22026666.438
 115249044.960 7  89804588.26645  21931150.930                    21931158.957
 110426777.095 8  86046980.59546  21013503.180                    21013508.906
 125117668.803 6  97494397.09443  23809080.227                    23809089.379
 109269829.260 8  85145418.713 7  20793362.180                    20793369.188
 107148919.406 8  83492789.376 8  20389756.609                    20389763.816
 11  8 13  1 59  0.0000000  0  8G30G29G25G10G02G04G12G05
 113043109.990 7  88085611.18445  21511391.914                    21511399.711
 125876227.671 6  98085350.430 6  23953437.484                    23953447.203
 115700868.394 8  90156588.222 7  22017149.242                    22017159.477
 115325600.700 7  89864242.08645  21945719.914                    21945727.000
 110455797.564 8  86069593.96246  21019025.477                    21019030.672
 125199322.592 6  97558023.40643  23824618.328                    23824627.785
 109286045.459 8  85158054.710 7  20796448.461                    20796454.805
 107122322.240 8  83472064.357 8  20384695.344                    20384702.477
 11  8 13  1 59 30.0000000  0  8G30G29G25G10G02G04G12G05
 113019419.845 8  88067151.36945  21506883.359                    21506891.871
 125793769.528 7  98021097.349 6  23937746.688                    23937755.762
 115651424.303 8  90118060.391 7  22007740.336                    22007750.578
 115402583.688 7  89924228.82545  21960368.906                    21960376.574
 110484959.376 8  86092317.47346  21024574.828                    21024580.527
 125280936.962 6  97621619.01143  23840149.492                    23840158.262
 109302839.552 8  85171141.006 7  20799643.820                    20799651.113
 107096296.405 8  83451784.521 8  20379742.922                    20379750.168
 11  8 13  2  0  0.0000000  0  8G30G29G25G10G02G04G12G05
 112996336.627 7  88049164.48746  21502490.891                    21502498.992
 125711269.871 6  97956811.949 6  23922047.336                    23922056.230
 115602497.744 8  90079935.856 7  21998430.070                    21998440.563
 115479991.609 7  89984546.67945  21975098.898                    21975106.750
 110514261.937 8  86115150.66346  21030151.164                    21030156.410
 125362511.443 6  97685183.54043  23855673.188                    23855682.082
 109320210.784 8  85184677.041 8  20802949.602                    20802956.664
 107070842.916 8  83431950.674 8  20374899.445                    20374906.332
 11  8 13  2  0 30.0000000  0  8G30G29G25G10G02G04G12G05
 112973860.976 8  88031651.02245  21498214.055                    21498222.438
 125628730.147 6  97892495.305 6  23906340.180                    23906349.605
 115554090.452 8  90042215.942 7  21989218.391                    21989228.645
 115557821.366 7  90045193.24345  21989909.781                    21989917.273
 110543704.373 8  86138092.83146  21035753.344                    21035758.938
 125444045.720 6  97748716.74243  23871187.516                    23871197.313
 109338158.791 8  85198662.499 7  20806364.547                    20806371.566
 107045962.404 8  83412563.304 8  20370164.727                    20370171.539
 11  8 13  2  1  0.0000000  0  8G30G29G25G10G02G04G12G05
 112951994.300 7  88014612.08746  21494053.016                    21494061.008
 125546152.089 6  97828148.804 6  23890626.219                    23890635.430
 115506204.954 8  90004902.626 7  21980106.148                    21980116.371
 115636071.176 7  90106167.11745  22004799.961                    22004807.176
 110573286.486 8  86161143.85646  21041382.930                    21041388.250
 125525539.860 6  97812218.66043  23886696.008                    23886704.457
 109356683.362 8  85213097.227 7  20809889.961                    20809896.582
 107021656.065 8  83393623.352 8  20365539.039                    20365546.305
 11  8 13  2  1 30.0000000  0  8G30G29G25G10G02G04G12G05
 112930735.933 8  87998047.15245  21490007.781                    21490015.566
 125463535.589 6  97763772.338 6  23874904.547                    23874913.953
 115458841.624 8  89967996.207 7  21971093.094                    21971103.070
 115714736.834 7  90167465.04145  22019769.758                    22019777.367
 110603006.524 8  86184302.34846  21047038.195                    21047044.102
 125606992.175 6  97875687.96943  23902195.477                    23902205.121
 109375782.669 8  85227979.814 7  20813524.680                    20813531.328
 106997922.973 8  83375130.092 8  20361022.844                    20361029.875
 11  8 13  2  2  0.0000000  0  8G30G29G25G10G02G04G12G05
 112910086.292 8  87981956.54345  21486078.164                    21486086.414
 125380881.631 6  97699366.680 6  23859176.188                    23859185.535
 115412001.952 8  89931497.833 7  21962179.789                    21962189.734
 115793816.015 7  90229085.17745  22034817.703                    22034825.613
 110632863.387 8  86207567.45846  21052719.984                    21052725.516
 125688401.847 6  97939124.05643  23917687.531                    23917696.426
 109395456.488 8  85243310.055 7  20817268.227                    20817275.160
 106974763.685 8  83357083.951 8  20356615.781                    20356623.043
 11  8 13  2  2 30.0000000  0  8G30G29G25G10G02G04G12G05
 112890046.483 7  87966341.14945  21482264.586                    21482272.523
 125298191.637 6  97634932.971 6  23843440.523                    23843450.633
 115365688.190 8  89895409.259 7  21953366.219                    21953376.605
 115873306.460 7  90291025.77745  22049944.398                    22049951.613
 110662856.874 8  86230939.02646  21058427.352                    21058432.938
 125769768.811 6  98002526.89943  23933170.414                    23933180.004
 109415703.863 8  85259087.243 7  20821121.117                    20821128.566
 106952179.168 8  83339485.694 8  20352318.078                    20352325.090
 11  8 13  2  3  0.0000000  0  8G30G29G25G10G02G04G12G05
 112870616.779 8  87951201.16045  21478567.164                    21478575.133
 125215466.127 6  97570471.570 6  23827698.289                    23827707.781
 115319901.544 8  89859731.428 7  21944653.234                    21944663.398
 115953204.826 7  90353284.24245  22065148.172                    22065156.176
 110692986.007 8  86254416.28346  21064161.234                    21064166.145
 125851092.395 7  98065895.93443  23948646.758                    23948656.121
 109436523.678 8  85275310.489 7  20825082.914                    20825089.973
 106930169.701 8  83322335.508 8  20348129.359                    20348136.656
 11  8 13  2  3 30.0000000  0  8G30G29G25G10G02G04G12G05
 112851797.409 8  87936536.74045  21474985.727                    21474993.902
 125132706.008 6  97505983.214 6  23811950.031                    23811959.723
 115274643.467 8  89824465.462 7  21936041.039                    21936050.980
 116033508.035 7  90415858.15045  22080429.617                    22080437.488
 110723249.686 8  86277998.38446  21069919.992                    21069925.500
 125932371.718 7  98129230.43443  23964114.383                    23964122.426
 109457915.019 8  85291979.082 7  20829153.695                    20829160.895
 106908735.282 8  83305633.404 8  20344050.906                    20344057.508
 11  8 13  2  4  0.0000000  0  8G30G29G25G10G02G04G12G05
 112833588.939 8  87922348.35746  21471521.031                    21471528.777
 125049912.537 6  97441468.858 6  23796194.180                    23796204.066
 115229915.666 8  89789612.696 7  21927529.742                    21927538.965
 116114213.612 7  90478745.60345  22095787.344                    22095794.863
 110753647.204 8  86301684.77646  21075704.156                    21075709.996
 126013606.409 6  98192530.19943  23979572.063                    23979580.965
 109479877.523 8  85309092.749 7  20833333.133                    20833339.883
 106887876.163 8  83289379.593 8  20340081.609                    20340088.531
 11  8 13  2  4 30.0000000  0  8G30G29G25G10G02G04G12G05
 112815991.883 7  87908636.40345  21468172.570                    21468179.605
 124967086.934 6  97376929.484 6  23780433.758                    23780442.676
 115185719.675 8  89755174.319 7  21919119.031                    21919129.543
 116195318.715 7  90541944.38344  22111221.516                    22111229.047
 110784177.885 8  86325474.92746  21081514.211                    21081519.289
 126094795.771 6  98255794.62443  23995020.883                    23995031.000
 109502410.055 8  85326650.583 7  20837620.789                    20837627.512
 106867593.002 8  83273574.569 8  20336221.266                    20336228.262
 11  8 13  2  5  0.0000000  0  8G30G29G25G10G02G04G12G05
 112799006.384 8  87895400.99445  21464939.930                    21464948.258
 124884229.517 7  97312365.347 6  23764665.727                    23764675.465
 115142056.870 8  89721151.412 7  21910810.508                    21910820.617
 116276820.591 7  90605452.32145  22126730.273                    22126738.043
 110814840.759 8  86349368.08046  21087348.695                    21087354.457
 126175939.504 6  98319023.48943  24010462.922                    24010472.230
 109525511.793 8  85344651.957 7  20842016.773                    20842023.793
 106847885.919 8  83258218.434 8  20332471.555                    20332478.539
 11  8 13  2  5 30.0000000  0  8G30G29G25G10G02G04G12G05
 112782632.591 7  87882642.22945  21461824.477                    21461832.293
 124801341.825 7  97247777.646 6  23748892.719                    23748902.508
 115098928.485 8  89687544.920 7  21902603.133                    21902613.070
 116358716.134 7  90669267.02245  22142314.883                    22142322.441
 110845634.865 8  86373363.49046  21093209.273                    21093213.969
 126257036.571 6  98382215.99843  24025895.469                    24025903.961
 109549181.458 8  85363095.870 7  20846521.422                    20846528.156
 106828754.966 7  83243311.233 8  20328831.039                    20328838.047
 11  8 13  2  6  0.0000000  0  8G30G29G25G10G02G04G12G05
 112766870.920 8  87870360.44246  21458824.750                    21458832.918
 124718424.844 7  97183167.131 6  23733114.445                    23733123.676
 115056336.129 8  89654356.119 7  21894498.195                    21894508.371
 116441002.601 7  90733386.35145  22157973.188                    22157981.113
 110876559.554 8  86397460.65446  21099093.281                    21099098.805
 126338086.848 6  98445372.06743  24041319.109                    24041327.512
 109573418.510 8  85381981.901 7  20851132.727                    20851139.887
 106810200.549 8  83228853.280 8  20325300.352                    20325307.113
 11  8 13  2  6 30.0000000  0  8G30G29G25G10G02G04G12G05
 112751721.995 8  87858556.12346  21455942.078                    21455949.863
 124635480.056 7  97118534.962 6  23717330.250                    23717339.422
 115014281.542 8  89621586.348 7  21886495.836                    21886505.668
 116523677.479 7  90797808.34444  22173706.047                    22173713.430
 110907614.483 8  86421659.30746  21105003.617                    21105008.477
 126419089.836 6  98508491.30543  24056733.016                    24056741.965
 109598222.024 8  85401309.332 7  20855853.008                    20855860.367
 106792223.190 8  83214844.980 8  20321879.273                    20321886.074
 11  8 13  2  7  0.0000000  0  8G30G29G25G10G02G04G12G05
 112737186.209 8  87847229.57046  21453175.781                    21453183.879
 124552508.251 7  97053881.725 6  23701541.688                    23701550.414
 114972766.242 8  89589236.793 7  21878595.297                    21878605.840
 116606737.972 7  90862530.80744  22189511.695                    22189518.836
 110938798.719 8  86445958.70546  21110937.531                    21110942.535
 126500045.437 6  98571573.59043  24072138.398                    24072147.598
 109623590.988 8  85421077.380 7  20860680.227                    20860687.453
 106774822.606 8  83201286.114 8  20318567.922                    20318574.754
 11  8 13  2  7 30.0000000  0  8G30G29G25G10G02G04G12G05
 112723263.682 8  87836380.85945  21450526.563                    21450534.570
 124469510.779 7  96989208.533 6  23685747.742                    23685756.395
 114931791.641 8  89557308.553 7  21870798.641                    21870808.305
 116690181.233 7  90927551.54444  22205390.406                    22205397.891
 110970111.826 8  86470358.51246  21116896.094                    21116901.305
 126580952.890 6  98634618.32243  24087533.477                    24087542.891
 109649524.519 8  85441285.338 7  20865615.594                    20865622.590
 106757999.299 8  83188177.074 8  20315366.523                    20315373.617
 11  8 13  2  8  0.0000000  0  8G30G29G25G10G02G04G12G05
 112709954.825 8  87826010.34646  21447994.203                    21448001.781
 124386488.783 7  96924516.184 6  23669948.664                    23669957.578
 114891359.191 8  89525802.780 7  21863104.195                    21863113.996
 116774004.617 7  90992868.48144  22221341.672                    22221349.309
 111001553.102 8  86494858.21446  21122879.320                    21122884.520
 126661811.928 6  98697625.31643  24102921.742                    24102930.695
 109676021.742 8  85461932.550 7  20870657.742                    20870665.156
 106741753.894 8  83175518.339 8  20312275.273                    20312282.242
 11  8 13  2  8 30.0000000  0  8G30G29G25G10G02G04G12G05
 112697259.634 7  87816118.00945  21445578.117                    21445585.906
 124303443.171 7  96859805.431 6  23654146.141                    23654154.535
 114851470.105 8  89494720.400 7  21855513.445                    21855523.453
 116858205.342 7  91058479.42744  22237364.398                    22237372.090
 111033121.335 8  86519456.84246  21128886.297                    21128891.672
 126742621.638 6  98760593.94043  24118299.539                    24118307.605
 109703081.236 8  85483017.889 8  20875807.242                    20875814.027
 106726086.035 8  83163309.645 8  20309293.695                    20309300.609
 11  8 13  2  9  0.0000000  0  8G30G29G25G10G02G04G12G05
 112685178.075 7  87806703.83245  21443279.156                    21443286.902
 124220375.012 7  96795077.105 6  23638338.563                    23638346.777
 114812125.620 8  89464062.393 7  21848026.781                    21848036.371
 116942780.234 7  91124381.92744  22253458.703                    22253465.563
 111064815.835 8  86544153.87446  21134918.211                    21134923.078
 126823381.709 6  98823523.85143  24133666.664                    24133676.215
 109730702.096 8  85504540.643 7  20881063.055                    20881070.086
 106710995.596 8  83151550.888 8  20306422.070                    20306429.027
 11  8 13  2  9 30.0000000  0  8G30G29G25G10G02G04G12G05
 112673710.302 8  87797767.92045  21441097.219                    21441104.980
 124137285.467 7  96730332.103 6  23622527.039                    23622535.496
 114773327.069 8  89433829.767 7  21840643.625                    21840653.184
 117027726.482 7  91190573.81144  22269623.602                    22269630.445
 111096635.869 8  86568948.70846  21140972.727                    21140978.027
 126904091.818 6  98886414.84543  24149026.008                    24149035.027
 109758883.030 8  85526499.827 7  20886425.805                    20886432.352
 106696482.810 8  83140242.251 8  20303660.406                    20303667.207
 11  8 13  2 10  0.0000000  0  8G30G29G25G10G02G04G12G05
 112662856.677 8  87789310.57146  21439031.656                    21439039.070
 124054175.734 7  96665571.410 6  23606711.008                    23606719.918
 114735075.991 8  89404023.753 7  21833364.508                    21833374.238
 117113041.483 7  91257053.01644  22285858.172                    22285865.875
 111128581.137 7  86593841.14246  21147051.961                    21147057.742
 126984751.579 6  98949266.63143  24164374.461                    24164384.340
 109787623.202 8  85548894.776 7  20891894.531                    20891901.684
 106682548.058 8  83129384.025 8  20301008.836                    20301015.664
 11  8 13  2 10 30.0000000  0  8G30G29G25G10G02G04G12G05
 112652617.297 7  87781331.84546  21437083.320                    21437090.508
 123971047.202 7  96600796.052 6  23590893.000                    23590901.590
 114697373.638 8  89374645.324 7  21826190.117                    21826200.016
 117198722.138 7  91323817.17244  22302162.813                    22302170.086
 111160650.774 7  86618830.49646  21153154.344                    21153159.645
 127065360.417 6  99012078.73043  24179713.586                    24179723.402
 109816921.170 7  85571724.374 7  20897469.813                    20897477.031
 106669191.043 8  83118975.983 8  20298466.523                    20298473.953
 11  8 13  2 11  0.0000000  0  8G30G29G25G10G02G04G12G05
 112642992.011 8  87773831.63546  21435251.461                    21435259.086
 123887900.793 7  96536006.742 6  23575070.258                    23575078.957
 114660221.102 8  89345695.322 7  21819119.977                    21819129.621
 117284765.487 7  91390863.93144  22318536.203                    22318543.281
 111192843.756 7  86643915.95946  21159280.609                    21159285.617
 127145917.962 6  99074850.85443  24195043.273                    24195052.980
 109846775.641 7  85594987.606 7  20903150.969                    20903158.039
 106656411.884 8  83109018.223 8  20296035.172                    20296042.094
 11  8 13  2 11 30.0000000  0  8G30G29G25G10G02G04G12G05
 112633980.883 8  87766809.99145  21433536.609                    21433544.012
 123804737.497 7  96471204.275 6  23559245.031                    23559253.035
 114623619.678 8  89317174.763 7  21812155.219                    21812165.137
 117371168.774 7  91458191.16544  22334978.258                    22334985.293
 111225159.637 8  86669097.18646  21165430.359                    21165435.402
 127226423.857 6  99137582.68843  24210363.797                    24210373.121
 109877185.857 8  85618683.889 7  20908937.984                    20908944.652
 106644210.538 8  83099510.700 8  20293713.125                    20293720.289
 11  8 13  2 12  0.0000000  0  8G30G29G25G10G02G04G12G05
 112625584.106 8  87760267.05646  21431938.633                    21431946.105
 123721559.031 7  96406389.965 6  23543416.219                    23543424.723
 114587570.795 8  89289084.752 7  21805295.031                    21805304.750
 117457929.483 7  91525796.89944  22351487.773                    22351495.688
 111257597.934 8  86694373.82446  21171602.914                    21171608.105
 127306877.678 6  99200274.00843  24225673.945                    24225682.688
 109908150.311 8  85642812.043 7  20914830.164                    20914837.234
 106632587.101 8  83090453.505 8  20291501.398                    20291508.094
 11  8 13  2 12 30.0000000  0  8G30G29G25G10G02G04G12G05
 112617801.258 8  87754202.51046  21430457.742                    21430465.227
 123638365.879 7  96341564.229 6  23527584.703                    23527593.340
 114552075.210 8  89261425.873 7  21798540.227                    21798550.098
 117545044.393 7  91593678.62344  22368065.188                    22368073.078
 111290157.590 8  86719745.01346  21177798.836                    21177804.266
 127387278.832 6  99262924.22443  24240972.586                    24240982.398
 109939667.845 8  85667371.165 7  20920827.867                    20920834.824
 106621541.034 8  83081846.215 8  20289398.719                    20289406.031
 11  8 13  2 13  0.0000000  0  8G30G29G25G10G02G04G12G05
 112610632.219 7  87748616.26445  21429093.648                    21429101.293
 123555159.557 6  96276728.194 6  23511751.344                    23511760.645
 114517134.104 8  89234199.071 7  21791891.563                    21791901.375
 117632510.296 7  91661833.84944  22384709.570                    22384717.367
 111322837.729 8  86745210.08246  21184017.484                    21184022.801
 127467626.848 6  99325533.10143  24256263.359                    24256271.715
 109971736.946 8  85692360.099 7  20926930.531                    20926937.090
 106611072.051 8  83073688.595 8  20287406.844                    20287414.051
 11  8 13  2 13 30.0000000  0  8G30G29G25G10G02G04G12G05
 112604077.343 8  87743508.58146  21427846.070                    21427853.887
 123471941.662 7  96211883.150 6  23495914.758                    23495924.555
 114482749.019 8  89207405.526 7  21785348.078                    21785357.523
 117720324.956 7  91730260.84344  22401420.273                    22401427.785
 111355638.369 8  86770769.04246  21190258.773                    21190264.332
 127547921.815 6  99388100.62443  24271542.984                    24271550.859
 110004356.648 8  85717778.072 7  20933138.227                    20933144.738
 106601180.673 8  83065981.054 8  20285524.781                    20285531.891
 11  8 13  2 14  0.0000000  0  8G30G29G25G10G02G04G12G05
 112598136.324 8  87738879.24046  21426715.602                    21426723.074
 123388713.151 7  96147029.809 6  23480077.813                    23480086.457
 114448920.982 8  89181046.047 7  21778910.844                    21778920.328
 117808485.453 7  91798957.31244  22418197.031                    22418204.859
 111388558.713 8  86796421.27946  21196523.945                    21196529.371
 127628163.141 6  99450626.30742  24286811.875                    24286820.109
 110037525.400 8  85743623.853 7  20939449.703                    20939456.395
 106591866.595 8  83058723.361 8  20283752.258                    20283758.996
 11  8 13  2 14 30.0000000  0  9G30G29G26G25G10G02G04G12G05
 112592808.703 8  87734727.85846  21425701.664                    21425709.371
 123305475.191 7  96082169.080 6  23464238.070                    23464246.637
 130469355.19316 101664334.06552  24827459.203                    24827469.316
 114415650.821 8  89155121.268 7  21772579.602                    21772589.684
 117896988.742 7  91867920.90244  22435038.133                    22435046.602
 111421597.672 7  86822165.94146  21202811.180                    21202816.262
 127708350.219 6  99513109.77242  24302070.180                    24302079.977
 110071241.734 8  85769896.351 7  20945865.375                    20945872.805
 106583129.293 8  83051915.110 8  20282089.922                    20282096.887
 11  8 13  2 15  0.0000000  0  9G30G29G26G25G10G02G04G12G05
 112588095.436 7  87731055.19245  21424804.898                    21424812.504
 123222229.950 7  96017302.685 6  23448396.703                    23448406.176
 130376127.647 6 101591689.20342  24809718.297                    24809728.539
 114382940.576 8  89129632.800 7  21766354.883                    21766364.977
 117985832.601 7  91937149.87744  22451944.922                    22451953.016
 111454755.633 7  86848003.33446  21209120.664                    21209125.953
 127788483.720 6  99575551.43042  24317319.375                    24317328.496
 110105505.544 8  85796595.456 7  20952385.766                    20952392.586
 106574969.575 8  83045556.912 8  20280537.063                    20280543.766
 11  8 13  2 15 30.0000000  0  9G30G29G26G25G10G02G04G12G05
 112583996.652 7  87727861.34046  21424024.750                    21424032.730
 123138978.950 7  95952431.759 6  23432554.633                    23432563.785
 130282772.384 6 101518944.88242  24791953.719                    24791962.688
 114350791.663 7  89104581.728 7  21760237.102                    21760246.953
 118075014.675 7  92006642.38344  22468915.539                    22468924.055
 111488032.418 8  86873933.32346  21215452.734                    21215458.336
 127868563.486 6  99637951.34742  24332558.375                    24332566.223
 110140315.448 8  85823720.107 7  20959009.773                    20959017.035
 106567387.706 8  83039648.998 8  20279094.133                    20279101.105
 11  8 13  2 16  0.0000000  0  9G30G29G26G25G10G02G04G12G05
 112580510.526 7  87725144.89545  21423361.391                    21423369.203
 123055722.235 7  95887556.372 6  23416711.969                    23416720.391
 130189290.509 6 101446101.96943  24774164.578                    24774173.777
 114319203.624 8  89079967.689 7  21754226.391                    21754236.059
 118164530.523 7  92076394.95244  22485950.039                    22485957.805
 111521426.076 7  86899954.37546  21221807.422                    21221812.707
 127948587.947 6  99700308.01842  24347787.383                    24347794.766
 110175668.338 7  85851267.873 7  20965737.289                    20965744.117
 106560381.868 8  83034189.935 8  20277760.820                    20277767.559
 11  8 13  2 16 30.0000000  0  9G30G29G26G25G10G02G04G12G05
 112577636.691 7  87722905.54645  21422814.609                    21422822.324
 122972460.884 7  95822677.386 6  23400867.352                    23400876.137
 130095684.981 6 101373162.63543  24756352.414                    24756361.324
 114288177.358 8  89055791.403 7  21748322.227                    21748331.887
 118254377.135 7  92146405.27444  22503047.609                    22503055.117
 111554935.580 7  86926065.70946  21228184.234                    21228189.602
 128028556.531 6  99762621.22042  24363004.055                    24363012.098
 110211563.179 7  85879237.933 7  20972567.633                    20972574.523
 106553951.596 8  83029179.351 8  20276537.148                    20276544.270
 11  8 13  2 17  0.0000000  0  9G30G29G26G25G10G02G04G12G05
 112575374.918 7  87721143.14745  21422384.031                    21422391.695
 122889196.067 7  95757795.675 6  23385022.516                    23385031.672
 130001958.838 6 101300129.38843  24738516.859                    24738525.391
 114257713.942 8  89032053.700 7  21742524.930                    21742535.301
 118344551.715 7  92216671.15744  22520206.961                    22520215.121
 111588560.295 7  86952266.81946  21234582.695                    21234588.215
 128108469.039 6  99824890.74243  24378210.648                    24378219.125
 110247998.414 8  85907629.088 7  20979500.820                    20979508.039
 106548096.566 8  83024617.021 8  20275422.977                    20275429.555
 11  8 13  2 17 30.0000000  0  9G30G29G26G25G10G02G04G12G05
 112573725.208 7  87719857.67945  21422070.195                    21422077.918
 122805929.511 7  95692912.636 6  23369178.063                    23369186.441
 129908114.842 6 101227004.24242  24720658.930                    24720667.785
 114227814.592 8  89008755.521 7  21736835.711                    21736845.684
 118435051.755 7  92287190.65244  22537428.359                    22537436.883
 111622299.942 7  86978557.48446  21241003.117                    21241008.352
 128188325.330 6  99887116.44143  24393407.383                    24393415.461
 110284972.459 8  85936440.075 7  20986536.820                    20986544.012
 106542816.771 8  83020502.919 8  20274418.156                    20274425.254
 11  8 13  2 18  0.0000000  0  9G30G29G26G25G10G02G04G12G05
 112572686.984 7  87719048.69945  21421872.633                    21421880.559
 122722662.252 7  95628029.061 6  23353332.031                    23353341.020
 129814156.071 6 101153789.72943  24702778.352                    24702787.809
 114198480.035 8  88985897.439 7  21731253.047                    21731263.270
 118525874.212 7  92357961.37844  22554711.633                    22554719.445
 111656153.896 7  87004937.21546  21247445.219                    21247450.633
 128268124.924 7  99949297.95943  24408591.797                    24408599.980
 110322483.652 8  85965669.612 7  20993675.258                    20993681.793
 106538111.870 8  83016836.789 8  20273523.359                    20273530.063
 11  8 13  2 18 30.0000000  0  9G30G29G26G25G10G02G04G12G05
 112572260.035 8  87718716.02245  21421791.430                    21421798.961
 122639395.871 6  95563146.200 6  23337487.164                    23337495.984
 129720085.315 6 101080487.91743  24684878.008                    24684886.352
 114169711.342 8  88963480.295 7  21725778.750                    21725788.609
 118617016.303 7  92428981.17944  22572055.523                    22572063.285
 111690121.517 7  87031405.52146  21253908.977                    21253914.660
 128347867.800 7 100011435.26743  24423767.070                    24423775.168
 110360530.930 8  85995316.884 7  21000915.359                    21000922.047
 106533981.395 8  83013618.256 8  20272736.891                    20272743.664
 11  8 13  2 19  0.0000000  0  9G30G29G26G25G10G02G04G12G05
 112572443.693 7  87718859.16145  21421826.313                    21421833.969
 122556131.612 7  95498265.006 6  23321642.164                    23321651.473
 129625905.652 6 101007101.29743  24666956.266                    24666965.195
 114141509.217 7  88941504.634 7  21720412.125                    21720422.219
 118708474.888 7  92500247.59844  22589459.125                    22589467.230
 111724202.130 7  87057961.85446  21260394.555                    21260399.785
 128427553.182 6 100073527.77143  24438931.172                    24438938.500
 110399112.440 8  86025380.435 7  21008257.008                    21008263.941
 106530424.596 8  83010846.750 8  20272060.305                    20272067.027
 11  8 13  2 19 30.0000000  0  9G30G29G26G25G10G02G04G12G05
 112573237.571 7  87719477.78246  21421977.375                    21421984.738
 122472870.998 6  95433386.682 6  23305798.305                    23305806.961
 129531619.679 6 100933631.78043  24649013.148                    24649022.996
 114113874.470 8  88919971.071 7  21715153.602                    21715163.371
 118800247.142 6  92571758.44444  22606923.430                    22606930.934
 111758395.290 7  87084605.88146  21266901.078                    21266906.281
 128507181.043 7 100135575.42843  24454084.000                    24454091.398
 110438226.793 8  86055859.184 7  21015700.203                    21015707.246
 106527441.163 8  83008522.011 8  20271492.484                    20271499.285
 11  8 13  2 20  0.0000000  0  9G30G29G26G25G10G02G04G12G05
 112574641.702 8  87720571.92746  21422244.578                    21422252.004
 122389615.245 6  95368512.176 6  23289955.281                    23289964.422
 129437231.013 6 100860082.30543  24631052.125                    24631060.836
 114086808.507 8  88898880.729 7  21710002.805                    21710012.941
 118892330.348 7  92643511.58444  22624445.641                    22624453.379
 111792700.522 7  87111337.23446  21273429.281                    21273434.344
 128586751.442 6 100197578.34643  24469225.219                    24469233.383
 110477872.492 8  86086751.958 7  21023244.539                    21023251.207
 106525031.635 8  83006644.476 8  20271033.875                    20271041.051
 11  8 13  2 20 30.0000000  0  9G30G29G26G25G10G02G04G12G05
 112576654.963 7  87722140.69845  21422627.609                    21422635.848
 122306365.780 6  95303642.572 6  23274113.539                    23274122.508
 129342742.260 6 100786454.80943  24613070.844                    24613080.375
 114060311.634 8  88878233.843 7  21704960.430                    21704970.828
 118984721.359 6  92715504.58544  22642027.492                    22642034.906
 111827117.350 7  87138155.54546  21279978.344                    21279983.824
 128666263.908 6 100259536.11143  24484356.273                    24484364.531
 110518047.987 8  86118057.551 7  21030889.766                    21030896.195
 106523194.648 8  83005213.078 8  20270684.336                    20270690.871
 11  8 13  2 21  0.0000000  0  9G30G29G26G25G10G02G04G12G05
 112579277.251 8  87724184.04046  21423126.750                    21423133.805
 122223124.107 6  95238779.081 6  23258272.641                    23258281.773
 129248156.253 6 100712751.50043  24595071.805                    24595081.211
 114034384.816 8  88858031.153 7  21700026.680                    21700036.281
 119077417.504 6  92787735.33544  22659667.086                    22659674.828
 111861645.131 8  87165060.30346  21286548.977                    21286554.234
 128745718.107 6 100321448.51843  24499475.555                    24499484.352
 110558750.959 8  86149774.150 7  21038635.023                    21038641.602
 106521929.805 8  83004227.512 8  20270443.578                    20270450.422
 11  8 13  2 21 30.0000000  0  9G30G29G26G25G10G02G04G12G05
 112582508.072 7  87726701.61446  21423741.344                    21423749.195
 122139891.496 6  95173922.649 6  23242433.906                    23242443.535
 129153476.318 6 100638974.99043  24577054.969                    24577064.102
 114009029.023 8  88838273.419 7  21695201.586                    21695211.461
 119170416.053 6  92860201.74044  22677363.930                    22677371.898
 111896283.754 8  87192051.43946  21293140.602                    21293145.695
 128825113.826 6 100383315.26543  24514584.469                    24514593.012
 110599980.329 8  86181900.937 7  21046481.219                    21046487.555
 106521236.889 8  83003687.611 8  20270311.609                    20270318.480
 11  8 13  2 22  0.0000000  0  9G30G29G26G25G10G02G04G12G05
 112586346.522 8  87729692.64446  21424471.664                    21424479.371
 122056669.223 6  95109074.294 6  23226597.320                    23226606.520
 129058705.223 6 100565127.45343  24559020.898                    24559029.648
 113984244.716 8  88818961.009 7  21690485.648                    21690495.668
 119263713.753 6  92932901.24044  22695117.352                    22695125.262
 111931032.028 8  87219128.02046  21299753.281                    21299758.410
 128904450.885 6 100445136.37043  24529681.430                    24529689.711
 110641734.628 8  86214436.748 7  21054426.523                    21054433.031
 106521114.875 8  83003592.559 8  20270288.305                    20270295.434
 11  8 13  2 22 30.0000000  0  9G30G29G26G25G10G02G04G12G05
 112590792.286 7  87733156.91345  21425317.313                    21425325.141
 121973458.772 6  95044235.136 6  23210762.422                    23210771.559
 128963846.049 7 100491211.25043  24540969.789                    24540978.496
 113960032.744 8  88800094.578 7  21685877.781                    21685887.758
 119357308.092 6  93005831.89144  22712927.727                    22712936.047
 111965889.311 8  87246289.53946  21306386.273                    21306391.012
 128983729.026 6 100506911.56243  24544767.008                    24544776.258
 110684011.608 8  86247379.838 7  21062471.844                    21062478.594
 106521563.425 8  83003942.114 8  20270373.898                    20270380.680
 11  8 13  2 23  0.0000000  0  9G30G29G26G25G10G02G04G12G05
 112595844.551 7  87737093.77545  21426279.164                    21426286.820
 121890261.676 7  94979406.382 6  23194930.797                    23194939.395
 128868901.831 7 100417228.79843  24522902.328                    24522911.426
 113936393.783 8  88781674.654 7  21681379.641                    21681389.867
 119451196.000 6  93078991.29944  22730794.250                    22730802.316
 112000855.531 8  87273535.93646  21313040.180                    21313044.461
 129062947.953 6 100568640.61443  24559842.758                    24559851.336
 110726809.810 8  86280729.091 7  21070615.625                    21070622.383
 106522582.238 8  83004736.007 8  20270567.867                    20270574.316
 11  8 13  2 23 30.0000000  0  9G30G29G26G25G10G02G04G12G05
 112601502.648 7  87741502.72046  21427355.664                    21427363.516
 121807079.247 7  94914589.052 6  23179102.219                    23179109.859
 128773875.498 7 100343182.37243  24504819.656                    24504828.707
 113913328.407 8  88763701.675 7  21676990.609                    21677000.656
 119545374.250 6  93152376.95444  22748715.883                    22748723.613
 112035930.076 7  87300866.74146  21319714.094                    21319719.129
 129142107.715 6 100630323.51442  24574906.406                    24574914.883
 110770127.372 8  86314483.050 7  21078858.766                    21078865.680
 106524170.219 8  83005973.427 8  20270869.938                    20270876.637
 11  8 13  2 24  0.0000000  0  9G30G29G26G25G10G02G04G12G05
 112607765.789 8  87746383.10245  21428547.344                    21428555.070
 121723912.917 7  94849784.271 6  23163275.531                    23163283.980
 128678770.180 7 100269074.40743  24486721.555                    24486730.043
 113890837.180 8  88746176.085 7  21672710.484                    21672720.199
 119639840.132 6  93225986.73044  22766692.719                    22766700.273
 112071112.275 7  87328281.45646  21326409.141                    21326413.992
 129221207.521 6 100691959.82642  24589957.531                    24589967.277
 110813962.411 8  86348640.238 7  21087200.305                    21087206.977
 106526326.513 8  83007653.673 8  20271280.070                    20271286.703
 11  8 13  2 24 30.0000000  0  9G30G29G26G25G10G02G04G12G05
 112614633.507 7  87751734.61245  21429854.594                    21429862.070
 121640764.209 7  94784993.221 6  23147452.438                    23147461.113
 128583589.033 7 100194907.27443  24468609.352                    24468616.797
 113868920.973 8  88729098.570 7  21668539.938                    21668549.660
 119734590.809 6  93299818.42444  22784722.898                    22784730.633
 112106401.902 7  87355779.86946  21333124.867                    21333129.633
 129300247.757 6 100753549.63542  24604998.578                    24605007.984
 110858313.514 8  86383199.575 7  21095639.953                    21095646.492
 106529051.105 8  83009776.748 8  20271798.781                    20271805.465
 11  8 13  2 25  0.0000000  0  9G30G29G26G25G10G02G04G12G05
 112622104.981 7  87757556.56445  21431276.141                    21431283.242
 121557634.522 7  94720216.971 6  23131633.766                    23131642.145
 128488334.838 6 100120683.28943  24450482.609                    24450490.926
 113847580.267 8  88712469.516 7  21664479.117                    21664488.527
 119829623.546 6  93373869.87944  22802806.813                    22802815.211
 112141798.472 7  87383361.62046  21339860.523                    21339865.563
 129379227.881 6 100815092.63742  24620027.594                    24620037.648
 110903178.570 8  86418159.392 7  21104177.477                    21104184.316
 106532342.900 8  83012341.804 8  20272425.008                    20272431.832
 11  8 13  2 25 30.0000000  0  9G30G29G26G25G10G02G04G12G05
 112630179.444 7  87763848.37845  21432812.883                    21432820.301
 121474525.181 7  94655456.554 6  23115818.422                    23115826.348
 128393011.058 6 100046405.00543  24432343.281                    24432351.301
 113826815.693 8  88696289.374 7  21660527.992                    21660537.340
 119924935.443 6  93448138.87044  22820944.000                    22820951.988
 112177301.264 7  87411026.14646  21346616.250                    21346621.516
 129458148.010 6 100876588.91643  24635045.805                    24635055.457
 110948555.837 8  86453518.312 7  21112812.602                    21112819.422
 106536201.342 7  83015348.396 8  20273159.195                    20273166.172
 11  8 13  2 26  0.0000000  0  9G30G29G26G25G10G02G04G12G05
 112638856.233 7  87770609.53145  21434464.109                    21434471.652
 121391438.008 6  94590713.394 6  23100007.500                    23100015.898
 128297620.639 6  99972074.87843  24414190.781                    24414199.188
 113806627.889 8  88680558.679 7  21656685.953                    21656695.668
 120020523.803 7  93522623.30544  22839134.273                    22839141.379
 112212909.832 8  87438773.09046  21353392.797                    21353397.535
 129537007.841 6 100938038.16343  24650052.906                    24650061.652
 110994444.124 8  86489275.404 7  21121544.820                    21121551.516
 106540625.841 8  83018796.082 8  20274001.039                    20274007.703
 11  8 13  2 26 30.0000000  0  9G30G29G26G25G10G02G04G12G05
 112648134.393 8  87777839.29745  21436229.438                    21436236.848
 121308374.355 6  94525988.578 6  23084200.570                    23084209.613
 128202166.767 6  99897695.19942  24396026.508                    24396034.086
 113787017.282 8  88665277.747 7  21652954.258                    21652963.445
 120116385.591 7  93597320.81244  22857375.820                    22857383.746
 112248623.853 8  87466602.21446  21360188.805                    21360194.160
 129615807.180 6 100999440.27142  24665047.922                    24665056.367
 111040840.508 8  86525428.391 7  21130374.039                    21130380.664
 106545615.576 8  83022684.211 8  20274950.648                    20274957.219
 11  8 13  2 27  0.0000000  0  8G30G29G26G25G10G02G12G05
 112658012.979 8  87785536.88845  21438109.453                    21438116.984
 121225335.814 7  94461283.312 6  23068398.492                    23068407.238
 128106652.463 6  99823268.53643  24377850.859                    24377859.219
 113767984.366 8  88650446.967 7  21649332.430                    21649341.832
 120212517.990 7  93672229.16444  22875669.477                    22875677.898
 112284443.006 8  87494513.24546  21367004.656                    21367009.484
 111087743.701 8  86561976.329 7  21139299.430                    21139305.887
 106551169.638 8  83027012.069 8  20276007.742                    20276014.551
 11  8 13  2 27 30.0000000  0  8G30G29G26G25G10G02G12G05
 112668491.527 8  87793702.05845  21440103.273                    21440110.906
 121142323.979 7  94396598.825 6  23052602.672                    23052610.586
 128011080.911 6  99748797.23043  24359664.359                    24359673.086
 113749529.723 8  88636066.772 7  21645820.492                    21645829.930
 120308918.067 7  93747346.09644  22894013.688                    22894021.762
 112320366.852 8  87522505.85546  21373840.883                    21373845.473
 111135151.508 8  86598917.474 7  21148320.469                    21148327.113
 106557287.483 8  83031779.253 8  20277171.625                    20277178.523
 11  8 13  2 28  0.0000000  0  8G30G29G26G25G10G02G12G05
 112679568.533 7  87802333.49346  21442211.672                    21442219.027
 121059339.959 7  94331936.029 6  23036810.656                    23036818.730
 127915455.114 6  99674283.71743  24341466.758                    24341476.320
 113731653.472 8  88622137.278 7  21642418.680                    21642428.258
 120405582.601 7  93822669.10744  22912408.133                    22912416.500
 112356394.507 8  87550579.34846  21380696.531                    21380701.402
 111183061.999 8  86636250.325 7  21157437.633                    21157444.168
 106563967.933 8  83036984.835 8  20278442.648                    20278449.781
 11  8 13  2 28 30.0000000  0  8G30G29G26G25G10G02G12G05
 112691242.862 8  87811430.42545  21444432.492                    21444440.203
 120976385.415 7  94267296.198 6  23021024.891                    23021033.207
 127819777.758 6  99599729.95743  24323259.938                    24323269.273
 113714355.741 8  88608658.587 7  21639127.063                    21639136.488
 120502508.363 7  93898195.66244  22930852.078                    22930860.566
 112392525.202 7  87578733.14446  21387571.781                    21387577.348
 111231473.212 8  86673973.400 7  21166649.891                    21166656.625
 106571209.240 8  83042627.431 8  20279821.000                    20279827.391
 11  8 13  2 29  0.0000000  0  8G30G29G26G25G10G02G12G05
 112703514.099 8  87820992.49345  21446767.836                    21446775.289
 120893462.025 7  94202680.653 6  23005245.086                    23005253.582
 127724052.574 6  99525138.96143  24305044.469                    24305053.258
 113697637.417 8  88595631.361 7  21635945.992                    21635954.945
 120599693.189 7  93973924.08844  22949345.680                    22949354.121
 112428759.087 8  87606967.35046  21394466.844                    21394472.453
 111280383.203 8  86712085.107 7  21175956.859                    21175963.977
 106579011.882 8  83048707.447 8  20281305.766                    20281312.277
 11  8 13  2 29 30.0000000  0  8G30G29G26G25G10G02G12G05
 112716381.064 8  87831018.73245  21449216.500                    21449223.344
 120810571.381 7  94138090.633 6  22989471.789                    22989479.301
 127628282.664 6  99450513.13843  24286819.453                    24286828.094
 113681498.856 8  88583055.902 7  21632874.703                    21632884.090
 120697134.279 7  94049852.18044  22967888.594                    22967896.473
 112465095.724 7  87635281.63546  21401381.664                    21401386.727
 111329789.688 8  86750583.686 7  21185358.664                    21185365.133
 106587374.899 8  83055224.112 8  20282897.102                    20282903.801
 11  8 13  2 30  0.0000000  0  8G30G29G26G25G10G02G12G05
 112729842.410 8  87841508.09645  21451777.992                    21451785.473
 120727714.579 7  94073526.976 6  22973704.781                    22973712.480
 127532470.780 6  99375854.55843  24268587.680                    24268596.629
 113665939.955 8  88570932.118 7  21629913.820                    21629923.488
 120794828.311 6  94125977.42943  22986478.711                    22986487.027
 112501534.269 7  87663675.32046  21408315.578                    21408320.777
 111379690.619 8  86789467.532 7  21194854.539                    21194861.484
 106596296.367 8  83062175.925 8  20284594.859                    20284601.828
 11  8 13  2 30 30.0000000  0  8G30G29G26G25G10G02G12G05
 112743897.327 8  87852459.97345  21454452.445                    21454459.957
 120644893.389 7  94008991.072 6  22957943.977                    22957951.926
 127436620.425 6  99301165.99343  24250347.063                    24250356.738
 113650961.323 8  88559260.496 7  21627063.070                    21627072.488
 120892772.581 7  94202297.62643  23005117.781                    23005125.426
 112538074.538 8  87692148.28745  21415269.313                    21415273.953
 111430084.455 8  86828735.473 7  21204444.484                    21204451.160
 106605775.913 8  83069562.608 8  20286398.656                    20286405.273
 11  8 13  2 31  0.0000000  0  8G30G29G26G25G10G02G12G05
 112758545.126 8  87863873.90946  21457239.789                    21457247.438
 120562109.586 7  93944484.290 6  22942190.875                    22942198.469
 127340734.912 7  99226450.01743  24232101.586                    24232110.449
 113636563.387 8  88548041.366 7  21624323.250                    21624333.000
 120990964.475 6  94278810.79843  23023802.070                    23023810.285
 112574716.551 8  87720700.52645  21422242.031                    21422246.602
 111480969.309 8  86868386.018 7  21214126.992                    21214134.117
 106615812.735 8  83077383.531 8  20288308.602                    20288315.219
 11  8 13  2 31 30.0000000  0  8G30G29G26G25G10G02G12G05
 112773784.144 8  87875748.52145  21460139.734                    21460147.027
 120479364.729 7  93880007.862 6  22926445.141                    22926452.988
 127244817.187 6  99151709.02143  24213849.063                    24213857.793
 113622746.142 8  88537274.717 7  21621694.477                    21621703.516
 121089400.847 6  94355514.44243  23042534.180                    23042542.156
 112611459.384 8  87749331.33845  21429233.820                    21429238.727
 111532342.475 8  86908417.051 7  21223903.289                    21223910.266
 106626405.640 8  83085637.763 8  20290324.125                    20290330.684
 11  8 13  2 32  0.0000000  0  8G30G29G26G25G10G02G12G05
 112789613.431 8  87888083.05946  21463151.625                    21463159.594
 120396660.297 7  93815562.942 6  22910706.820                    22910714.879
 127148870.384 6  99076945.31844  24195590.664                    24195599.945
 113609509.801 8  88526960.725 7  21619174.961                    21619184.688
 121188078.735 6  94432406.28644  23061312.281                    23061320.020
 112648302.694 8  87778040.43646  21436244.789                    21436249.691
 111584201.615 8  86948826.767 7  21233771.742                    21233778.723
 106637553.466 8  83094324.399 8  20292445.383                    20292452.863
 11  8 13  2 32 30.0000000  0  8G30G29G26G25G10G02G12G05
 112806031.815 8  87900876.65346  21466275.859                    21466283.383
 120313997.870 7  93751150.752 6  22894975.906                    22894983.871
 127052897.897 7  99002161.62244  24177328.188                    24177336.363
 113596854.645 8  88517099.596 7  21616767.203                    21616776.234
 121286995.261 6  94509484.08444  23080135.156                    23080143.156
 112685246.086 8  87806827.53446  21443275.055                    21443280.012
 111636545.357 8  86989614.103 7  21243732.609                    21243739.418
 106649255.222 8  83103442.665 8  20294672.469                    20294678.926
 11  8 13  2 33  0.0000000  0  8G30G29G26G25G10G02G12G05
 112823038.180 8  87914128.39846  21469512.023                    21469519.582
 120231379.089 7  93686772.570 6  22879254.695                    22879262.488
 126956903.068 7  98927360.49443  24159060.883                    24159068.805
 113584780.949 8  88507691.544 7  21614469.594                    21614478.965
 121386147.824 6  94586745.80044  23099003.461                    23099011.348
 112722289.368 8  87835692.45046  21450324.156                    21450328.629
 111689371.513 8  87030777.367 7  21253784.844                    21253791.551
 106661510.100 8  83112991.940 8  20297004.266                    20297011.695
 11  8 13  2 33 30.0000000  0  8G30G29G26G25G10G02G12G05
 112840631.221 8  87927837.29645  21472860.305                    21472867.809
 120148805.622 7  93622429.695 6  22863541.227                    22863548.785
 126860888.821 6  98852544.27243  24140789.234                    24140797.738
 113573288.693 8  88498736.563 7  21612282.469                    21612291.824
 121485533.465 6  94664189.13643  23117915.938                    23117923.762
 112759431.893 8  87864634.71846  21457391.906                    21457397.141
 111742677.720 8  87072314.731 7  21263928.836                    21263935.473
 106674316.716 8  83122971.137 8  20299441.469                    20299447.988
 11  8 13  2 34  0.0000000  0  8G30G29G26G25G10G02G12G05
 112858809.739 8  87942002.41545  21476319.422                    21476327.406
 120066279.148 7  93558123.411 6  22847836.727                    22847844.059
 126764858.568 6  98777715.51943  24122516.094                    24122523.492
 113562378.115 8  88490234.851 7  21610206.367                    21610216.277
 121585149.291 7  94741811.83944  23136872.398                    23136880.137
 112796673.455 8  87893654.15645  21464478.703                    21464483.395
 111796461.699 8  87114224.393 7  21274163.398                    21274170.199
 106687674.092 8  83133379.506 8  20301983.117                    20301989.828
 11  8 13  2 34 30.0000000  0  8G30G29G26G25G10G02G12G05
 112877572.508 8  87956622.78746  21479889.820                    21479897.172
 119983801.173 7  93493854.933 7  22832142.031                    22832149.813
 126668815.801 6  98702877.06443  24104239.109                    24104247.238
 113552049.290 8  88482186.442 7  21608240.750                    21608250.313
 121684992.468 6  94819611.68244  23155872.406                    23155879.742
 112834013.786 8  87922750.54646  21471584.531                    21471589.219
 111850721.446 8  87156504.773 7  21284488.633                    21284495.199
 106701581.220 8  83144216.263 8  20304629.680                    20304636.063
 11  8 13  2 35  0.0000000  0  8G30G29G26G25G10G02G12G05
 112896918.226 8  87971697.42145  21483571.352                    21483578.512
 119901373.637 7  93429625.763 6  22816455.891                    22816464.371
 126572763.415 6  98628031.08443  24085961.078                    24085969.293
 113542302.367 8  88474591.468 7  21606385.555                    21606395.410
 121785060.123 7  94897586.47744  23174914.578                    23174922.105
 112871452.558 8  87951923.64046  21478708.578                    21478713.875
 111905454.963 8  87199154.316 7  21294903.992                    21294910.797
 106716036.839 8  83155480.408 8  20307380.352                    20307387.184
 11  8 13  2 35 30.0000000  0  8G30G29G26G25G10G02G12G05
 112916845.582 8  87987225.25646  21487363.297                    21487370.934
 119818997.955 7  93365436.989 6  22800780.930                    22800788.789
 126476704.950 6  98553180.41543  24067680.969                    24067690.188
 113533137.296 8  88467449.888 7  21604642.031                    21604651.258
 121885349.538 7  94975734.06244  23193998.414                    23194006.547
 112908989.198 8  87981172.98745  21485851.836                    21485856.934
 111960659.312 8  87242170.728 7  21305409.195                    21305415.793
 106731039.830 8  83167171.080 8  20310235.180                    20310242.035
 11  8 13  2 36  0.0000000  0  8G30G29G26G25G10G02G12G05
 112937353.234 8  88003205.27145  21491265.359                    21491272.938
 119736675.970 7  93301290.072 6  22785115.422                    22785123.094
 126380643.546 6  98478327.42343  24049401.117                    24049409.891
 113524554.145 8  88460761.749 7  21603008.313                    21603017.578
 121985857.897 6  95054052.24144  23213125.023                    23213133.148
 112946623.563 8  88010498.49045  21493013.156                    21493018.199
 112016332.720 8  87285552.619 7  21316003.328                    21316010.105
 106746588.801 8  83179287.201 8  20313194.141                    20313201.078
 11  8 13  2 36 30.0000000  0  8G30G29G26G25G10G02G12G05
 112958439.447 8  88019636.11846  21495278.078                    21495285.160
 119654409.132 7  93237186.115 7  22769460.219                    22769468.520
 126284582.369 6  98403474.59343  24031120.836                    24031129.813
 113516552.560 8  88454526.786 7  21601485.539                    21601495.105
 122086582.117 6  95132538.63044  23232292.367                    23232299.699
 112984354.786 8  88039899.44446  21500193.398                    21500198.551
 112072472.704 8  87329298.085 7  21326686.453                    21326692.922
 106762682.401 8  83191827.702 8  20316256.609                    20316263.367
 11  8 13  2 37  0.0000000  0  8G30G29G26G25G10G02G12G05
 112980103.376 8  88036517.13645  21499400.422                    21499408.320
 119572199.388 7  93173126.657 7  22753816.883                    22753824.309
 126188524.967 6  98328624.71043  24012842.484                    24012850.773
 113509133.024 8  88448745.359 7  21600073.680                    21600083.195
 122187519.917 7  95211191.45543  23251499.813                    23251507.863
 113022183.259 8  88069376.18546  21507391.742                    21507396.762
 112129077.589 8  87373405.808 7  21337458.000                    21337464.914
 106779319.980 8  83204792.082 8  20319422.773                    20319429.355
 11  8 13  2 37 30.0000000  0  8G30G29G26G25G10G02G12G05
 113002343.432 8  88053847.07546  21503632.852                    21503639.980
 119490048.375 7  93109112.989 7  22738183.719                    22738191.621
 126092474.568 6  98253780.33343  23994564.172                    23994573.129
 113502295.249 8  88443417.251 7  21598772.352                    21598782.238
 122288668.185 7  95290008.25444  23270747.492                    23270755.270
 113060108.526 8  88098928.34846  21514608.328                    21514613.484
 112186144.644 8  87417873.662 7  21348317.492                    21348324.090
 106796499.892 8  83218179.060 8  20322691.805                    20322698.086
 11  8 13  2 38  0.0000000  0  8G30G29G26G25G10G02G12G05
 113025157.957 8  88071624.65246  21507974.133                    21507981.785
 119407957.617 7  93045146.262 7  22722561.711                    22722569.848
 125996434.513 6  98178943.94643  23976289.055                    23976297.770
 113496039.113 8  88438542.380 7  21597582.148                    21597591.531
 122390023.878 7  95368986.73643  23290035.039                    23290042.887
 113098130.026 8  88128555.50345  21521844.203                    21521849.105
 112243671.459 7  87462699.777 7  21359264.266                    21359270.930
 106814220.880 8  83231987.652 8  20326064.000                    20326070.746
 11  8 13  2 38 30.0000000  0  8G30G29G26G25G10G02G12G05
 113048545.614 8  88089848.82446  21512424.461                    21512432.059
 119325928.907 7  92981227.898 6  22706952.219                    22706959.773
 125900408.217 6  98104118.34643  23958015.047                    23958024.164
 113490364.504 8  88434120.630 7  21596502.469                    21596511.465
 122491584.330 7  95448124.72143  23309361.102                    23309368.848
 113136247.454 8  88158257.39946  21529097.586                    21529102.039
 112301655.840 7  87507882.440 7  21370298.867                    21370305.465
 106832481.703 8  83246216.896 8  20329538.688                    20329545.855
 11  8 13  2 39  0.0000000  0  8G30G29G26G25G10G02G12G05
 113072505.057 8  88108518.55445  21516983.914                    21516991.305
 119243964.048 7  92917359.276 7  22691355.148                    22691362.949
 125804398.778 6  98029305.84243  23939745.391                    23939753.914
 113485271.355 8  88430151.989 7  21595533.219                    21595542.676
 122593346.833 7  95527420.17243  23328726.711                    23328734.000
 113174460.780 8  88188034.02045  21536369.422                    21536374.207
 112360095.682 7  87553420.016 7  21381419.172                    21381425.828
 106851280.964 8  83260865.695 8  20333116.086                    20333122.762
 11  8 13  2 39 30.0000000  0  8G30G29G26G25G10G02G12G05
 113097034.261 8  88127632.22445  21521651.844                    21521659.199
 119162064.624 7  92853541.636 7  22675769.672                    22675778.043
 125708409.636 6  97954509.19443  23921479.648                    23921487.738
 113480759.207 8  88426636.067 7  21594674.336                    21594683.578
 122695308.244 7  95606870.61943  23348128.602                    23348136.363
 113212769.448 8  88217884.94645  21543659.039                    21543663.848
 112418988.077 8  87599310.232 7  21392625.664                    21392632.555
 106870617.088 8  83275932.832 8  20336795.883                    20336802.188
 11  8 13  2 40  0.0000000  0  8G30G29G26G25G10G02G12G05
 113122132.005 7  88147188.92246  21526427.688                    21526434.891
 119080232.549 7  92789776.477 7  22660197.828                    22660205.672
 125612443.997 6  97879730.85144  23903217.719                    23903226.578
 113476828.053 8  88423572.863 7  21593926.063                    21593935.484
 122797466.036 7  95686474.09444  23367568.383                    23367576.270
 113251173.049 8  88247809.83145  21550967.078                    21550971.859
 112478331.012 7  87645551.499 7  21403918.625                    21403925.301
 106890488.802 8  83291417.302 8  20340576.984                    20340584.109
 11  8 13  2 40 30.0000000  0  8G30G29G26G25G10G02G12G05
 113147796.778 7  88167187.47245  21531311.469                    21531318.563
 118998469.625 7  92726065.193 7  22644638.883                    22644646.555
 125516505.534 6  97804973.66143  23884961.148                    23884970.020
 113473477.734 8  88420962.258 7  21593288.828                    21593297.898
 122899817.452 7  95766228.45943  23387046.148                    23387054.070
 113289671.605 8  88277808.70845  21558293.039                    21558297.711
 112538121.941 7  87692141.834 7  21415296.859                    21415303.410
 106910895.079 8  83307318.320 8  20344460.406                    20344467.199
 11  8 13  2 41  0.0000000  0  8G30G29G26G25G10G02G12G05
 113174027.040 8  88187626.67345  21536302.883                    21536309.711
 118916777.576 7  92662409.122 6  22629093.023                    22629100.938
 125420597.567 6  97730240.30544  23866710.195                    23866719.305
 113470708.082 7  88418804.132 7  21592761.641                    21592770.949
 123002359.672 7  95846131.46843  23406559.016                    23406566.633
 113328265.203 8  88307881.63945  21565637.242                    21565641.879
 112598358.797 8  87739079.638 7  21426759.047                    21426766.086
 106931834.460 8  83323634.740 8  20348444.891                    20348452.016
 11  8 13  2 41 30.0000000  0  8G30G29G26G25G10G02G12G05
 113200821.125 7  88208505.19345  21541401.758                    21541408.832
 118835158.294 7  92598809.767 7  22613561.430                    22613568.793
 125324723.517 6  97655533.32643  23848465.875                    23848475.188
 113468518.787 8  88417098.220 7  21592344.836                    21592353.938
 123105089.948 7  95926181.04943  23426107.820                    23426115.137
 113366953.212 8  88338028.14045  21572999.023                    21573003.996
 112659039.034 7  87786362.928 7  21438306.195                    21438313.172
 106953305.648 8  83340365.556 8  20352531.281                    20352537.699
 11  8 13  2 42  0.0000000  0  8G30G29G26G25G10G02G12G05
 113228177.457 7  88229821.83445  21546607.563                    21546614.648
 118753613.384 7  92535268.363 7  22598043.656                    22598051.836
 125228886.661 6  97580855.31944  23830229.500                    23830237.652
 113466909.540 8  88415844.294 7  21592038.859                    21592048.223
 123208005.601 7  96006375.06143  23445692.211                    23445699.477
 113405735.373 8  88368247.99746  21580378.789                    21580384.125
 112720160.238 8  87833989.811 7  21449937.320                    21449943.816
 106975306.976 8  83357509.473 8  20356717.523                    20356724.301
 11  8 13  2 42 30.0000000  0  8G30G29G26G25G10G02G12G05
 113256094.095 7  88251575.07545  21551919.758                    21551927.113
 118672144.744 7  92471786.380 7  22582540.625                    22582548.621
 125133090.199 6  97506208.80143  23811998.688                    23812008.023
 113465879.877 8  88415041.991 7  21591842.797                    21591852.074
 123311103.773 7  96086711.30043  23465310.945                    23465318.574
 113444611.283 8  88398540.91945  21587777.219                    21587782.180
 112781719.791 7  87881958.264 7  21461651.719                    21461658.219
 106997836.925 8  83375065.293 8  20361005.109                    20361011.328
 11  8 13  2 43  0.0000000  0  8G30G29G26G25G10G02G12G05
 113284569.393 7  88273763.64345  21557338.438                    21557345.605
 118590753.947 7  92408365.053 7  22567052.594                    22567060.539
 125037337.897 6  97431596.66443  23793777.438                    23793786.582
 113465429.415 8  88414691.012 7  21591757.000                    21591766.258
 123414381.707 7  96167187.58744  23484964.500                    23484972.102
 113483580.865 8  88428906.84545  21595192.484                    21595197.641
 112843715.256 7  87930266.380 7  21473448.945                    21473455.445
 107020894.050 8  83393031.906 8  20365392.367                    20365399.152
 11  8 13  2 43 30.0000000  0  8G30G29G26G25G10G02G12G05
 113313601.863 7  88296386.36945  21562863.039                    21562870.375
 118509443.099 7  92345006.021 7  22551579.477                    22551587.840
 124941633.112 6  97357021.55043  23775566.328                    23775574.344
 113465558.042 8  88414791.266 7  21591781.711                    21591790.512
 123517836.803 7  96247801.92443  23504651.219                    23504659.008
 113522644.020 8  88459345.65946  21602625.953                    21602631.066
 112906144.209 7  87978912.299 7  21485328.820                    21485335.703
 107044476.998 8  83411408.261 8  20369880.148                    20369887.098
 11  8 13  2 44  0.0000000  0  8G30G29G26G25G10G02G12G05
 113343189.361 7  88319441.57345  21568493.281                    21568501.008
 118428213.902 7  92281710.601 7  22536122.352                    22536129.996
 124845978.929 6  97282485.86143  23757363.742                    23757372.000
 113466264.969 8  88415342.141 7  21591915.758                    21591925.277
 123621465.783 7  96328551.76843  23524370.625                    23524379.074
 113561800.230 8  88489856.99845  21610077.125                    21610082.199
 112969004.140 7  88027894.047 7  21497290.656                    21497297.289
 107068583.952 8  83430192.907 8  20374467.773                    20374474.387
 11  8 13  2 44 30.0000000  0  8G30G29G26G25G10G02G12G05
 113373330.396 8  88342928.12445  21574228.859                    21574236.426
 118347068.416 7  92218480.406 7  22520680.445                    22520688.117
 124750379.121 6  97207992.53443  23739171.000                    23739180.055
 113467549.854 8  88416343.385 7  21592160.523                    21592169.809
 123725266.039 7  96409435.09443  23544123.172                    23544131.121
 113601049.346 8  88520440.72345  21617546.172                    21617551.246
 113032292.371 7  88077209.557 7  21509334.203                    21509340.984
 107093213.528 8  83449384.806 8  20379154.031                    20379160.715
 11  8 13  2 45  0.0000000  0  8G30G29G26G25G10G02G12G05
 113404023.399 7  88366844.76245  21580069.398                    21580077.199
 118266008.042 7  92155316.526 7  22505255.625                    22505263.098
 124654837.089 6  97133544.25543  23720990.461                    23720998.902
 113469412.601 8  88417794.901 7  21592514.758                    21592523.902
 123829235.401 6  96490450.19243  23563907.773                    23563916.008
 113640391.193 8  88551096.71545  21625032.703                    21625037.973
 113096007.260 7  88126857.521 7  21521458.508                    21521465.313
 107118364.335 8  83468982.861 8  20383940.344                    20383947.086
 11  8 13  2 45 30.0000000  0  9G30G29G26G25G10G15G02G12G05
 113435266.487 7  88391190.05845  21586015.289                    21586022.512
 118185034.905 7  92092220.630 7  22489846.766                    22489853.926
 124559356.582 7  97059143.92443  23702821.398                    23702829.297
 113471852.703 7  88419696.290 7  21592979.172                    21592988.512
 123933370.925 7  96571594.79343  23583724.602                    23583731.859
 129455924.08716 100874820.88616  24634653.289                    24634660.863
 113679825.988 8  88581825.14145  21632537.172                    21632541.973
 113160145.624 7  88176835.474 7  21533663.516                    21533670.441
 107144035.190 8  83488986.134 8  20388825.508                    20388831.891
 11  8 13  2 46  0.0000000  0  9G30G29G26G25G10G15G02G12G05
 113467057.474 8  88415962.26945  21592064.438                    21592071.977
 118104150.870 7  92029194.150 7  22474455.117                    22474462.305
 124463940.547 6  96984793.79743  23684664.297                    23684672.008
 113474869.268 8  88422046.882 7  21593553.188                    21593562.203
 124037669.817 7  96652866.63043  23603572.125                    23603579.789
 129362085.387 6 100801699.900 6  24616795.344                    24616804.477
 113719353.136 8  88612625.52545  21640058.750                    21640064.016
 113224704.771 8  88227141.315 7  21545948.836                    21545955.727
 107170223.762 8  83509392.830 8  20393808.813                    20393815.438
 11  8 13  2 46 30.0000000  0  9G30G29G26G25G10G15G02G12G05
 113499394.753 7  88441160.16345  21598218.000                    21598225.238
 118023357.896 7  91966238.658 6  22459080.461                    22459088.094
 124368592.665 6  96910496.75243  23666520.445                    23666527.945
 113478461.888 8  88424846.351 7  21594236.609                    21594245.898
 124142129.236 7  96734263.59543  23623449.906                    23623457.750
 129268120.022 6 100728480.226 6  24598915.070                    24598923.902
 113758972.337 8  88643497.65345  21647597.555                    21647603.098
 113289682.236 7  88277773.108 7  21558313.648                    21558320.852
 107196928.235 8  83530201.530 8  20398890.813                    20398896.973
 11  8 13  2 47  0.0000000  0  9G30G29G26G25G10G15G02G12G05
 113532276.562 7  88466782.36545  21604474.867                    21604482.473
 117942657.749 7  91903355.489 7  22443723.508                    22443731.063
 124273316.816 7  96836255.88643  23648389.859                    23648397.539
 113482630.225 8  88428094.422 7  21595030.008                    21595039.277
 124246746.604 7  96815783.63243  23643356.984                    23643366.043
 129174030.673 6 100655163.977 6  24581009.234                    24581018.563
 113798683.988 8  88674441.81645  21655155.227                    21655160.031
 113355075.630 7  88328729.005 7  21570757.773                    21570764.406
 107224148.120 8  83551411.845 8  20404070.148                    20404076.883
 11  8 13  2 47 30.0000000  0  9G30G29G26G25G10G15G02G12G05
 113565700.805 7  88492827.23445  21610835.984                    21610843.113
 117862052.469 7  91840546.266 7  22428384.930                    22428392.449
 124178115.710 7  96762073.23543  23630273.891                    23630281.371
 113487373.529 8  88431790.532 7  21595932.391                    21595941.934
 124351519.311 7  96897424.75243  23663295.617                    23663303.316
 129079819.597 6 100581752.861 6  24563082.180                    24563090.723
 113838487.559 8  88705457.61345  21662729.211                    21662734.301
 113420882.058 7  88380006.741 7  21583280.047                    21583287.012
 107251881.367 8  83573022.183 8  20409347.453                    20409354.484
 11  8 13  2 48  0.0000000  0  9G30G29G26G25G10G15G02G12G05
 113599665.317 7  88519293.12045  21617299.195                    21617306.078
 117781543.576 7  91777812.136 7  22413064.375                    22413071.785
 124082993.158 7  96687951.82743  23612172.047                    23612180.355
 113492690.881 8  88435933.942 7  21596944.578                    21596953.527
 124456444.151 6  96979184.36943  23683261.484                    23683270.641
 128985489.062 6 100508248.633 6  24545131.492                    24545139.762
 113878382.519 7  88736544.61445  21670321.086                    21670326.012
 113487098.958 7  88431604.335 7  21595880.617                    21595887.594
 107280125.598 8  83595030.703 8  20414722.672                    20414728.996
 11  8 13  2 48 30.0000000  0  9G30G29G26G25G10G15G02G12G05
 113634168.252 7  88546178.54245  21623864.594                    21623871.949
 117701133.005 7  91715154.618 7  22397762.781                    22397770.488
 123987952.614 7  96613894.27944  23594086.266                    23594094.375
 113498581.785 8  88440524.272 7  21598065.484                    21598074.930
 124561518.560 7  97061060.54043  23703257.203                    23703264.828
 128891041.850 6 100434653.526 6  24527159.180                    24527167.898
 113918369.004 7  88767702.94845  21677930.172                    21677935.383
 113553723.872 7  88483519.869 7  21608559.070                    21608565.992
 107308879.413 8  83617436.286 8  20420193.945                    20420200.563
 11  8 13  2 49  0.0000000  0  9G30G29G26G25G10G15G02G12G05
 113669207.813 7  88573482.12445  21630532.523                    21630539.563
 117620822.952 7  91652575.436 7  22382480.359                    22382487.891
 123892997.573 7  96539903.41643  23576017.375                    23576024.914
 113505045.618 8  88445561.054 7  21599295.438                    21599304.563
 124666740.171 6  97143051.39843  23723279.578                    23723287.695
 128796480.335 7 100360969.310 6  24509164.086                    24509172.461
 113958446.740 8  88798932.37645  21685557.016                    21685561.461
 113620754.121 7  88535751.227 7  21621314.758                    21621321.383
 107338141.361 8  83640237.817 8  20425762.766                    20425769.488
 11  8 13  2 49 30.0000000  0  9G30G29G26G25G10G15G02G12G05
 113704781.737 7  88601202.07945  21637301.961                    21637309.496
 117540615.135 7  91590075.925 7  22367217.109                    22367224.785
 123798131.547 7  96465981.91144  23557964.211                    23557972.137
 113512081.614 8  88451043.669 7  21600634.570                    21600643.590
 124772105.914 6  97225154.55343  23743329.508                    23743338.656
 128701807.095 7 100287198.046 6  24491148.047                    24491156.523
 113998615.563 7  88830232.77845  21693200.297                    21693205.313
 113688186.803 7  88588296.178 7  21634146.625                    21634153.715
 107367909.585 8  83663433.868 8  20431427.203                    20431433.402
 11  8 13  2 50  0.0000000  0  9G30G29G26G25G10G15G02G12G05
 113740888.372 7  88629337.14745  21644172.875                    21644180.035
 117460511.644 7  91527657.705 7  22351974.047                    22351981.848
 123703358.164 7  96392132.58043  23539929.875                    23539937.570
 113519689.238 8  88456971.713 7  21602081.938                    21602091.137
 124877613.515 7  97307368.23243  23763407.414                    23763415.750
 128607024.895 7 100213341.874 6  24473112.320                    24473120.781
 114038875.645 7  88861604.29445  21700862.063                    21700866.574
 113756019.763 8  88641153.041 7  21647054.578                    21647060.930
 107398182.675 8  83687023.306 8  20437187.953                    20437194.547
 11  8 13  2 50 30.0000000  0  9G30G29G26G25G10G15G02G12G05
 113777525.519 7  88657885.59745  21651144.664                    21651151.898
 117380514.280 7  91465322.183 7  22336750.484                    22336758.172
 123608680.988 7  96318358.26643  23521913.750                    23521921.125
 113527867.694 8  88463344.555 7  21603638.469                    21603647.340
 124983260.319 6  97389690.39043  23783510.656                    23783520.207
 128512136.014 7 100139402.552 5  24455055.328                    24455063.777
 114079226.556 7  88893046.57245  21708540.398                    21708545.137
 113824249.973 7  88694319.431 7  21660038.492                    21660045.438
 107428958.674 8  83711004.617 8  20443044.484                    20443051.148
 11  8 13  2 51  0.0000000  0  9G30G29G26G25G10G15G02G12G05
 113814690.850 7  88686845.60945  21658217.133                    21658223.992
 117300624.748 7  91403070.677 7  22321548.578                    22321556.191
 123514103.170 7  96244661.36643  23503915.227                    23503923.262
 113536615.876 8  88470161.343 7  21605303.281                    21605312.070
 125089043.248 6  97472118.61843  23803641.141                    23803649.699
 128417143.218 6 100065382.313 5  24436978.727                    24436987.168
 114119668.260 7  88924559.60645  21716235.914                    21716240.699
 113892875.044 8  88747793.512 7  21673097.500                    21673104.266
 107460235.286 8  83735376.013 8  20448995.789                    20449002.801
 11  8 13  2 51 30.0000000  0  9G30G29G26G25G10G15G02G12G05
 113852382.614 7  88716215.83445  21665389.742                    21665396.797
 117220845.363 7  91340904.989 7  22306367.156                    22306374.125
 123419628.602 7  96171044.92644  23485938.023                    23485945.711
 113545933.290 8  88477421.692 7  21607076.000                    21607085.340
 125194959.935 6  97554651.06643  23823796.641                    23823805.016
 128322048.958 6  99991282.987 5  24418882.273                    24418890.965
 114160200.581 7  88956143.24645  21723948.719                    21723954.070
 113961891.941 8  88801572.917 7  21686230.844                    21686237.504
 107492011.284 8  83760136.551 8  20455042.938                    20455049.414
 11  8 13  2 52  0.0000000  0  9G30G29G26G25G10G15G02G12G05
 113890598.816 8  88745994.72045  21672661.969                    21672668.551
 117141178.047 7  91278826.636 7  22291206.867                    22291214.082
 123325260.700 7  96097511.56144  23467981.156                    23467987.828
 113555819.329 8  88485125.125 7  21608957.398                    21608966.902
 125301007.923 6  97637285.84143  23843977.383                    23843985.578
 128226856.075 6  99917106.838 5  24400767.383                    24400777.254
 114200823.793 7  88987797.71945  21731679.813                    21731683.969
 114031298.394 8  88855655.877 7  21699438.742                    21699445.223
 107524285.207 8  83785285.085 8  20461184.586                    20461190.895
 11  8 13  2 52 30.0000000  0  9G30G29G26G25G10G15G02G12G05
 113929337.197 7  88776180.48445  21680033.266                    21680040.875
 117061624.816 7  91216837.179 7  22276067.992                    22276075.523
 123231003.258 7  96024064.29044  23450043.242                    23450051.160
 113566272.894 8  88493270.793 7  21610946.758                    21610956.340
 125407184.389 6  97720020.74143  23864182.234                    23864189.402
 128131567.153 6  99842855.832 5  24382634.375                    24382642.727
 114241537.391 8  89019522.61045  21739427.227                    21739431.301
 114101091.540 8  88910040.171 7  21712719.953                    21712726.418
 107557055.109 8  83810820.088 8  20467420.398                    20467426.609
 11  8 13  2 53  0.0000000  0  9G30G29G26G25G10G15G02G12G05
 113968595.712 7  88806771.55945  21687504.117                    21687511.207
 116982187.782 7  91154938.258 7  22260951.094                    22260958.816
 123136859.852 7  95950705.85544  23432128.039                    23432135.563
 113577293.320 8  88501858.160 7  21613043.898                    21613052.699
 125513486.930 7  97802853.89343  23884411.008                    23884418.156
 128036184.765 6  99768531.981 5  24364484.078                    24364491.875
 114282341.562 8  89051318.07045  21747191.602                    21747196.527
 114171268.588 8  88964723.597 7  21726073.977                    21726081.125
 107590319.017 8  83836740.037 8  20473750.313                    20473756.742
 11  8 13  2 53 30.0000000  0  9G30G29G26G25G10G15G02G12G05
 114008372.677 7  88837766.61845  21695073.375                    21695080.422
 116902869.519 7  91093131.886 7  22245858.016                    22245865.512
 123042834.238 7  95877439.18944  23414235.836                    23414243.531
 113588879.940 8  88510886.711 7  21615248.570                    21615257.945
 125619913.097 7  97885783.33043  23904662.750                    23904670.105
 127940711.798 6  99694137.550 6  24346316.125                    24346323.664
 114323236.536 8  89083184.29945  21754973.734                    21754979.328
 114241827.490 7  89019704.569 7  21739500.734                    21739507.430
 107624075.444 8  83863043.763 8  20480173.633                    20480180.207
 11  8 13  2 54  0.0000000  0  9G30G29G26G25G10G15G02G12G05
 114048664.785 8  88869163.09346  21702740.633                    21702747.496
 116823670.563 7  91031418.470 7  22230786.914                    22230794.242
 122948929.143 6  95804266.46144  23396366.195                    23396374.273
 113601030.942 8  88520355.059 7  21617560.758                    21617570.156
 125726459.744 6  97968806.65443  23924938.000                    23924945.746
 127845150.117 6  99619674.011 6  24328131.156                    24328139.387
 114364221.331 7  89115120.51145  21762772.641                    21762777.414
 114312764.373 8  89074980.093 7  21752999.836                    21753006.605
 107658321.284 8  83889728.855 8  20486690.648                    20486696.945
 11  8 13  2 54 30.0000000  0  9G30G29G26G25G10G15G02G12G05
 114089470.535 8  88900959.81345  21710505.570                    21710512.730
 116744593.750 7  90969800.237 7  22215738.898                    22215746.363
 122855148.724 7  95731190.87144  23378520.219                    23378528.531
 113613746.058 8  88530262.967 7  21619980.500                    21619989.922
 125833124.549 6  98051922.13243  23945234.891                    23945243.215
 127749502.839 7  99545143.793 6  24309930.516                    24309937.969
 114405296.585 7  89147127.21045  21770589.523                    21770594.195
 114384077.324 8  89130548.643 7  21766570.180                    21766576.582
 107693056.258 8  83916795.090 8  20493300.266                    20493306.809
 11  8 13  2 55  0.0000000  0  9G30G29G26G25G10G15G02G12G05
 114130787.519 8  88933154.88245  21718367.977                    21718375.137
 116665640.836 7  90908278.542 7  22200714.750                    22200721.762
 122761496.461 7  95658215.14144  23360698.922                    23360706.645
 113627024.013 8  88540609.443 7  21622506.688                    21622516.590
 125939904.746 6  98135127.47043  23965555.391                    23965562.160
 127653772.526 7  99470548.866 6  24291713.586                    24291721.449
 114446461.876 7  89179204.06045  21778422.781                    21778427.344
 114455763.071 8  89186407.688 7  21780211.305                    21780217.762
 107728277.618 8  83944240.318 8  20500002.781                    20500009.309
 11  8 13  2 55 30.0000000  0  9G30G29G26G25G10G15G02G12G05
 114172613.307 8  88965746.42945  21726327.008                    21726334.641
 116586813.902 7  90846855.009 7  22185714.148                    22185721.340
 122667975.773 6  95585341.94844  23342902.555                    23342910.590
 113640863.734 8  88551393.671 7  21625140.695                    21625149.934
 126046797.422 6  98218420.43743  23985896.180                    23985903.805
 127557961.742 6  99395891.237 6  24273480.867                    24273489.332
 114487716.938 7  89211350.86045  21786273.195                    21786277.852
 114527818.805 7  89242555.054 7  21793923.023                    21793929.285
 107763983.381 8  83972063.010 8  20506797.438                    20506804.047
 11  8 13  2 56  0.0000000  0  9G30G29G26G25G10G15G02G12G05
 114214945.654 7  88998732.69245  21734382.641                    21734390.285
 116508114.846 7  90785531.112 7  22170737.961                    22170745.496
 122574590.239 7  95512574.07344  23325131.328                    23325138.844
 113655264.062 8  88562614.732 7  21627880.938                    21627890.266
 126153800.309 6  98301799.31543  24006257.258                    24006266.691
 127462073.136 7  99321172.973 6  24255234.008                    24255242.113
 114529061.484 7  89243567.41045  21794140.703                    21794145.820
 114600241.733 7  89298988.527 7  21807704.656                    21807711.246
 107800171.662 8  84000261.689 8  20513683.617                    20513689.977
 11  8 13  2 56 30.0000000  0  9G30G29G26G25G10G15G02G12G05
 114257782.501 7  89032112.06445  21742534.328                    21742541.402
 116429546.053 7  90724308.734 7  22155786.969                    22155794.480
 122481343.578 7  95439914.41043  23307386.820                    23307394.547
 113670224.231 7  88574272.036 7  21630727.586                    21630736.836
 126260911.151 6  98385262.29142  24026640.063                    24026648.715
 127366109.349 7  99246396.112 6  24236972.328                    24236980.781
 114570496.374 7  89275854.34745  21802025.617                    21802030.547
 114673029.409 7  89355706.229 7  21821556.219                    21821562.441
 107836840.950 8  84028835.169 8  20520661.469                    20520668.129
 11  8 13  2 57  0.0000000  0  9G30G29G26G25G10G15G02G12G05
 114301121.359 7  89065882.61545  21750781.484                    21750788.645
 116351109.388 7  90663189.315 7  22140861.375                    22140868.094
 122388239.295 7  95367365.64544  23289670.328                    23289677.961
 113685743.023 8  88586364.619 7  21633681.016                    21633690.219
 126368127.232 6  98468807.28442  24047043.133                    24047050.637
 127270072.902 7  99171562.671 6  24218697.219                    24218705.160
 114612021.079 7  89308211.26345  21809927.523                    21809932.813
 114746178.593 7  89412705.612 7  21835475.734                    21835481.953
 107873988.972 8  84057781.685 8  20527730.711                    20527736.973
 11  8 13  2 57 30.0000000  0  9G30G29G26G25G10G15G02G12G05
 114344960.064 7  89100042.64545  21759123.617                    21759130.586
 116272806.885 7  90602174.419 7  22125960.320                    22125967.738
 122295281.058 6  95294930.71344  23271981.039                    23271988.590
 113701819.483 8  88598891.737 7  21636739.750                    21636749.691
 126475445.839 6  98552432.13043  24067464.867                    24067473.332
 127173966.666 7  99096674.818 6  24200408.719                    24200416.746
 114653635.588 7  89340638.15745  21817846.461                    21817851.254
 114819686.775 7  89469984.726 7  21849463.781                    21849470.395
 107911613.967 8  84087099.860 8  20534890.586                    20534896.957
 11  8 13  2 58  0.0000000  0  9G30G29G26G25G10G15G02G12G05
 114389296.012 7  89134590.15645  21767560.320                    21767567.527
 116194640.393 7  90541265.515 7  22111085.750                    22111093.020
 122202472.172 7  95222612.12644  23254319.484                    23254328.262
 113718452.135 8  88611852.267 7  21639905.242                    21639914.387
 126582864.113 6  98636134.73443  24087905.500                    24087914.438
 127077793.253 6  99021734.594 6  24182106.953                    24182115.547
 114695339.593 7  89373134.79845  21825782.258                    21825787.176
 114893550.674 7  89527541.029 7  21863519.352                    21863526.086
 107949713.220 8  84116787.595 8  20542140.328                    20542146.906
 11  8 13  2 58 30.0000000  0  9G30G29G26G25G10G15G02G12G05
 114434127.163 7  89169523.53545  21776091.531                    21776099.363
 116116612.021 7  90480464.242 7  22096237.492                    22096244.883
 122109816.766 7  95150413.06244  23236688.133                    23236696.191
 113735640.228 8  88625245.604 7  21643175.945                    21643185.012
 126690379.932 6  98719913.28643  24108365.750                    24108373.738
 126981555.752 6  98946744.433 6  24163793.813                    24163801.457
 114737133.808 7  89405701.72545  21833735.266                    21833740.520
 114967768.180 7  89585372.858 7  21877642.539                    21877648.598
 107988285.673 8  84146844.063 8  20549480.555                    20549486.840
 11  8 13  2 59  0.0000000  0  9G30G29G26G25G10G15G02G12G05
 114479451.284 7  89204841.03645  21784716.023                    21784723.832
 116038724.324 7  90419772.578 7  22081415.813                    22081423.324
 122017318.392 7  95078336.34044  23219085.922                    23219093.934
 113753382.650 8  88639070.882 7  21646552.438                    21646561.680
 126797990.936 6  98803765.97443  24128843.047                    24128851.723
 126885256.870 6  98871706.442 5  24145468.742                    24145476.016
 114779017.718 7  89438338.54645  21841706.227                    21841710.465
 115042336.776 7  89643478.262 7  21891832.789                    21891839.328
 108027329.455 8  84177267.806 8  20556910.297                    20556916.684
 11  8 13  2 59 30.0000000  0  9G30G29G26G25G10G15G02G12G05
 114525265.429 7  89240540.38245  21793434.344                    21793441.746
 115960979.064 7  90359191.903 7  22066621.359                    22066628.781
 121924980.260 7  95006384.50144  23201514.898                    23201523.191
 113771677.687 8  88653326.761 7  21650033.375                    21650042.770
 126905694.230 6  98887690.61643  24149338.875                    24149347.152
 126788898.664 6  98796622.192 5  24127131.406                    24127139.105
 114820990.989 7  89471044.98745  21849693.133                    21849698.125
 115117252.720 7  89701854.338 7  21906088.516                    21906095.090
 108066841.825 8  84208056.669 7  20564429.406                    20564435.836
 11  8 13  3  0  0.0000000  0  9G30G29G26G25G10G15G02G12G05
 114571567.688 7  89276620.07445  21802245.625                    21802252.898
 115883378.477 7  90298723.967 7  22051854.391                    22051861.738
 121832806.569 6  94934560.83644  23183975.281                    23183983.512
 113790524.627 8  88668012.711 7  21653620.008                    21653629.523
 127013487.851 6  98971685.63043  24169851.344                    24169858.871
 126692484.416 6  98721494.259 5  24108784.219                    24108791.879
 114863054.289 8  89503821.59045  21857697.617                    21857702.895
 115192513.239 7  89760498.893 7  21920410.586                    21920416.633
 108106821.557 8  84239209.723 8  20572037.023                    20572043.535
 11  8 13  3  0 30.0000000  0  9G30G29G26G25G10G15G02G12G05
 114618355.334 7  89313078.00045  21811149.055                    21811156.086
 115805924.370 7  90238370.162 7  22037115.594                    22037122.973
 121740800.805 7  94862868.12044  23166467.156                    23166475.328
 113809921.881 8  88683127.462 7  21657311.070                    21657320.039
 127121368.781 6  99055748.68043  24190380.867                    24190388.457
 126596016.610 6  98646324.593 6  24090427.734                    24090434.625
 114905207.404 8  89536668.18445  21865718.859                    21865723.953
 115268115.458 7  89819409.725 7  21934796.672                    21934803.090
 108147266.061 8  84270724.918 8  20579733.797                    20579739.875
 11  8 13  3  1  0.0000000  0  9G30G29G26G25G10G15G02G12G05
 114665625.894 7  89349912.22445  21820144.242                    21820151.465
 115728619.016 7  90178132.278 7  22022404.883                    22022411.945
 121648966.418 7  94791308.92744  23148991.555                    23148999.301
 113829868.201 8  88698670.053 7  21661107.211                    21661116.223
 127229334.598 6  99139877.91943  24210925.992                    24210933.105
 126499497.883 6  98571115.264 6  24072061.070                    24072068.215
 114947450.085 7  89569584.54545  21873757.141                    21873762.402
 115344056.730 7  89878584.743 7  21949247.867                    21949254.316
 108188173.355 8  84302600.743 8  20587518.023                    20587524.332
 11  8 13  3  1 30.0000000  0  9G30G29G26G25G10G15G02G12G05
 114713376.819 7  89387120.75445  21829230.742                    21829238.219
 115651464.374 7  90118011.845 7  22007722.656                    22007730.246
 121557306.956 7  94719886.05444  23131549.039                    23131556.852
 113850362.154 8  88714639.379 7  21665006.945                    21665015.895
 127337382.667 6  99224071.24843  24231486.617                    24231493.906
 126402931.168 6  98495868.528 6  24053685.344                    24053693.004
 114989782.323 7  89602570.68045  21881813.391                    21881818.223
 115420333.982 8  89938021.556 7  21963763.188                    21963769.563
 108229541.152 8  84334835.394 8  20595389.891                    20595396.430
 11  8 13  3  2  0.0000000  0  9G30G29G26G25G10G15G02G12G05
 114761605.672 7  89424701.69245  21838408.688                    21838416.297
 115574462.488 7  90058010.428 7  21993069.633                    21993076.660
 121465826.259 7  94648602.53144  23114141.031                    23114148.805
 113871402.451 8  88731034.428 7  21669010.461                    21669019.660
 127445510.761 6  99308326.92043  24252062.945                    24252069.992
 126306318.944 6  98420586.337 6  24035299.961                    24035307.855
 115032204.221 7  89635626.69245  21889885.609                    21889890.953
 115496944.419 8  89997718.011 7  21978341.625                    21978347.957
 108271367.339 8  84367427.225 8  20603349.289                    20603355.598
 11  8 13  3  2 30.0000000  0  9G30G29G26G25G10G15G02G12G05
 114810310.066 7  89462653.18445  21847676.680                    21847683.598
 115497615.598 7  89998129.783 7  21978446.164                    21978452.988
 121374527.739 7  94577460.92944  23096767.641                    23096775.137
 113892987.913 8  88747854.281 7  21673118.148                    21673127.445
 127553716.340 6  99392642.94843  24272653.242                    24272660.789
 126209664.337 7  98345271.166 6  24016907.938                    24016914.969
 115074715.896 7  89668752.65045  21897975.633                    21897980.500
 115573885.246 7  90057671.914 7  21992982.938                    21992989.520
 108313650.096 8  84400374.838 8  20611395.023                    20611401.387
 11  8 13  3  3  0.0000000  0  9G30G29G26G25G10G15G02G12G05
 114859487.574 7  89500973.33145  21857035.008                    21857041.988
 115420925.898 7  89938371.624 7  21963852.680                    21963859.652
 121283415.300 7  94506464.30344  23079428.828                    23079436.969
 113915117.173 8  88765097.880 7  21677329.117                    21677338.168
 127661996.975 6  99477017.49342  24293257.875                    24293265.828
 126112969.960 7  98269924.945 6  23998506.828                    23998514.383
 115117317.371 7  89701948.60645  21906082.156                    21906086.957
 115651153.734 8  90117881.145 7  22007686.508                    22007693.195
 108356387.350 8  84433676.608 8  20619527.906                    20619534.020
 11  8 13  3  3 30.0000000  0  9G30G29G26G25G10G15G02G12G05
 114909135.328 7  89539659.90745  21866482.352                    21866489.535
 115344395.649 7  89878737.711 7  21949289.391                    21949296.426
 121192492.263 7  94435615.25444  23062126.680                    23062134.469
 113937788.677 8  88782764.006 7  21681643.188                    21681652.172
 127770350.544 6  99561448.86843  24313877.023                    24313885.293
 126016238.662 7  98194550.000 6  23980099.406                    23980107.625
 115160008.725 7  89735214.60445  21914205.875                    21914211.145
 115728746.505 7  90178343.047 7  22022452.289                    22022458.492
 108399577.088 8  84467330.942 8  20627746.836                    20627753.023
 11  8 13  3  4  0.0000000  0  9G30G29G26G25G10G15G02G12G05
 114959251.309 7  89578711.35245  21876019.266                    21876026.258
 115268026.964 7  89819229.684 7  21934756.844                    21934763.785
 121101762.791 7  94364916.98844  23044862.102                    23044869.652
 113961001.354 8  88800851.815 7  21686060.555                    21686069.551
 127878774.398 6  99645935.01242  24334509.227                    24334517.301
 125919473.335 7  98119148.534 6  23961686.117                    23961693.742
 115202790.186 7  89768550.80545  21922347.242                    21922351.910
 115806660.925 8  90239055.602 7  22037278.500                    22037284.832
 108443217.296 8  84501336.314 7  20636051.398                    20636057.754
 11  8 13  3  4 30.0000000  0  9G30G29G26G25G10G15G02G12G05
 115009832.358 7  89618125.14245  21885644.305                    21885651.438
 115191821.836 8  89759849.117 7  21920255.172                    21920262.484
 121011229.954 7  94294371.93344  23027633.484                    23027641.363
 113984753.280 8  88819359.835 7  21690580.641                    21690589.816
 127987265.920 6  99730473.89942  24355154.016                    24355163.051
 125822676.630 6  98043722.636 6  23943265.859                    23943273.434
 115245661.448 7  89801956.97245  21930505.234                    21930509.836
 115884893.748 7  90300016.264 7  22052165.703                    22052172.063
 108487305.460 8  84535690.727 7  20644440.789                    20644447.125
 11  8 13  3  5  0.0000000  0  9G30G29G26G25G10G15G02G12G05
 115060876.400 7  89657899.73745  21895357.930                    21895365.012
 115115782.528 8  89700597.761 7  21905785.727                    21905792.465
 120920898.097 7  94223983.50744  23010443.727                    23010452.160
 114009043.343 8  88838287.173 7  21695202.555                    21695211.773
 128095823.026 5  99815063.84742  24375811.852                    24375820.016
 125725851.281 6  97968274.409 6  23924841.125                    23924848.520
 115288622.841 8  89835433.38645  21938680.594                    21938685.289
 115963442.372 7  90361222.999 7  22067112.961                    22067119.520
 108531839.786 8  84570392.801 8  20652915.656                    20652921.824
 11  8 13  3  5 30.0000000  0 10G30G29G26G25G10G15G21G02G12G05
 115112380.676 7  89698032.95345  21905159.156                    21905165.504
 115039911.224 8  89641477.322 7  21891347.719                    21891354.805
 120830770.570 7  94153754.32844  22993293.219                    22993300.914
 114033870.030 8  88857632.661 7  21699926.719                    21699936.293
 128204442.914 6  99899702.73142  24396481.727                    24396490.125
 125629000.499 6  97892806.341 6  23906410.750                    23906418.094
 132307508.09116 103096816.65552  25177287.609                    25177295.898
 115331674.429 7  89868980.07145  21946872.844                    21946877.988
 116042304.399 7  90422673.947 7  22082119.828                    22082126.492
 108576818.005 8  84605440.768 8  20661474.688                    20661480.797
 11  8 13  3  6  0.0000000  0 10G30G29G26G25G10G15G21G02G12G05
 115164342.675 7  89738522.83445  21915046.852                    21915053.973
 114964210.244 7  89582489.580 7  21876942.625                    21876948.938
 120740851.128 7  94083687.29944  22976182.023                    22976189.816
 114059231.832 8  88877395.114 7  21704753.438                    21704762.016
 128313123.362 6  99984388.82242  24417163.305                    24417171.309
 125532126.941 6  97817320.494 6  23887976.172                    23887983.652
 132250061.804 6 103052053.45443  25166356.469                    25166364.297
 115374816.229 7  89902597.05645  21955082.242                    21955087.598
 116121475.874 7  90484366.019 7  22097185.961                    22097192.047
 108622238.002 8  84640832.981 8  20670118.141                    20670124.070
 11  8 13  3  6 30.0000000  0 10G30G29G26G25G10G15G21G02G12G05
 115216760.041 7  89779367.54545  21925021.422                    21925028.934
 114888681.931 8  89523636.394 7  21862569.555                    21862576.461
 120651143.706 7  94013785.48444  22959111.508                    22959118.926
 114085127.515 8  88897573.582 7  21709680.930                    21709690.293
 128421862.392 6 100069120.50742  24437855.453                    24437864.426
 125435233.842 6  97741819.486 6  23869537.641                    23869545.207
 132192627.581 6 103007299.53043  25155427.047                    25155434.758
 115418048.648 7  89936284.65645  21963309.484                    21963314.301
 116200954.849 7  90546297.708 7  22112310.445                    22112316.543
 108668098.200 8  84676568.209 7  20678844.531                    20678850.918
 11  8 13  3  7  0.0000000  0 10G30G29G26G25G10G15G21G02G12G05
 115269629.567 7  89820564.57945  21935082.172                    21935088.930
 114813327.942 7  89464919.049 7  21848230.219                    21848236.648
 120561651.828 7  93944051.64144  22942080.977                    22942088.801
 114111555.048 8  88918166.479 7  21714710.117                    21714719.023
 128530657.343 6 100153895.86042  24458558.352                    24458567.176
 125338323.219 6  97666304.814 6  23851095.609                    23851103.613
 132135204.633 6 102962554.43243  25144500.289                    25144508.680
 115461371.369 7  89970042.62845  21971553.398                    21971558.465
 116280737.765 7  90608466.226 7  22127492.664                    22127498.984
 108714395.736 8  84712644.224 7  20687654.938                    20687661.008
 11  8 13  3  7 30.0000000  0 10G30G29G26G25G10G15G21G02G12G05
 115322948.673 7  89862111.95045  21945228.258                    21945235.320
 114738150.702 7  89406339.428 7  21833924.563                    21833931.516
 120472378.845 7  93874488.37444  22925093.570                    22925100.895
 114138512.822 8  88939172.545 7  21719839.750                    21719849.188
 128639505.400 6 100238712.56243  24479271.383                    24479280.090
 125241398.114 6  97590778.834 6  23832652.070                    23832659.625
 132077792.667 6 102917817.93943  25133574.891                    25133582.852
 115504784.420 7  90003870.98445  21979814.695                    21979819.422
 116360821.618 7  90670869.249 7  22142732.078                    22142738.320
 108761128.285 8  84749059.201 7  20696547.602                    20696553.961
 11  8 13  3  8  0.0000000  0 10G30G29G26G25G10G15G21G02G12G05
 115376714.707 7  89904007.57145  21955459.820                    21955467.066
 114663152.279 7  89347899.156 7  21819652.828                    21819659.598
 120383328.499 7  93805098.57644  22908147.336                    22908154.492
 114165999.293 8  88960590.585 7  21725070.234                    21725079.121
 128748404.434 6 100323568.96143  24499994.992                    24500002.574
 125144461.592 6  97515243.903 6  23814205.086                    23814213.328
 132020391.037 6 102873089.45443  25122651.281                    25122660.008
 115548287.968 7  90037769.85745  21988093.242                    21988097.992
 116441203.461 7  90733504.463 7  22158027.953                    22158034.094
 108808293.726 8  84785811.511 7  20705522.711                    20705529.012
 11  8 13  3  8 30.0000000  0 10G30G29G26G25G10G15G21G02G12G05
 115430924.896 7  89946249.28945  21965775.961                    21965783.043
 114588334.902 7  89289599.949 7  21805415.180                    21805422.320
 120294504.389 7  93735885.05444  22891244.875                    22891252.398
 114194012.732 8  88982419.245 7  21730401.102                    21730410.242
 128857352.192 6 100408463.36843  24520727.195                    24520734.258
 125047516.289 6  97439702.179 6  23795756.703                    23795764.973
 131962998.954 6 102828368.40043  25111730.148                    25111738.191
 115591881.866 7  90071739.12345  21996388.898                    21996393.852
 116521880.086 7  90796369.387 7  22173380.195                    22173386.840
 108855889.538 8  84822899.153 8  20714580.359                    20714586.609
 11  8 13  3  9  0.0000000  0 10G30G29G26G25G10G15G21G02G12G05
 115485576.547 7  89988835.00245  21976175.547                    21976182.551
 114513700.879 7  89231443.611 7  21791212.961                    21791219.582
 120205910.285 7  93666850.79144  22874385.719                    22874393.141
 114222551.595 8  89004657.323 7  21735831.938                    21735841.141
 128966346.602 6 100493394.07643  24541467.656                    24541475.637
 124950564.972 6  97364155.742 6  23777308.617                    23777315.535
 131905616.040 6 102783654.53543  25100810.797                    25100818.305
 115635566.442 7  90105779.04745  22004701.875                    22004706.738
 116602848.965 7  90859462.012 7  22188788.422                    22188794.297
 108903914.081 8  84860320.896 7  20723718.609                    20723724.563
 11  8 13  3  9 30.0000000  0 10G30G29G26G25G10G15G21G02G12G05
 115540666.936 7  90031762.57445  21986658.539                    21986665.828
 114439252.287 7  89173431.761 7  21777045.758                    21777053.250
 120117549.883 7  93597998.58744  22857571.117                    22857578.535
 114251614.102 8  89027303.443 7  21741362.016                    21741371.305
 129075384.907 6 100578359.01443  24562217.117                    24562225.086
 124853610.818 6  97288607.118 6  23758857.984                    23758865.566
 131848241.932 6 102738947.48443  25089892.719                    25089900.730
 115679341.727 7  90139889.67545  22013031.781                    22013036.730
 116684106.846 7  90922779.864 7  22204250.938                    22204257.172
 108952365.220 8  84898075.039 8  20732938.828                    20732944.871
 11  8 13  3 10  0.0000000  0 10G30G29G26G25G10G15G21G02G12G05
 115596193.412 7  90075029.95245  21997225.406                    21997232.422
 114364991.210 7  89115566.037 7  21762914.375                    21762921.496
 120029426.657 7  93529331.20944  22840802.195                    22840809.461
 114281198.604 8  89050356.314 7  21746991.695                    21747001.191
 129184464.903 6 100663356.41843  24582974.633                    24582982.418
 124756656.463 7  97213058.320 6  23740408.914                    23740416.008
 131790876.110 6 102694246.91443  25078976.313                    25078983.855
 115723207.845 7  90174071.06045  22021379.469                    22021384.352
 116765650.717 7  90986320.550 7  22219768.203                    22219774.707
 109001240.371 8  84936159.587 7  20742239.609                    20742245.875
 11  8 13  3 10 30.0000000  0  9G30G29G26G25G15G21G02G12G05
 115652154.024 7  90118635.62145  22007874.313                    22007881.117
 114290921.044 7  89057849.073 7  21748819.258                    21748826.461
 119941545.545 7  93460852.47144  22824079.422                    22824086.145
 114311304.290 8  89073815.281 7  21752721.148                    21752729.867
 124659705.854 7  97137512.454 6  23721959.164                    23721966.434
 131733518.381 6 102649552.66943  25068061.352                    25068069.262
 115767165.831 7  90208324.04845  22029744.313                    22029748.934
 116847478.502 7  91050082.473 7  22235339.266                    22235346.168
 109050538.019 8  84974573.358 7  20751620.656                    20751627.047
 11  8 13  3 11  0.0000000  0  9G30G29G26G25G15G21G02G12G05
 115708545.108 7  90162576.73145  22018605.117                    22018612.199
 114217042.864 7  89000281.706 7  21734760.820                    21734767.762
 119853909.280 7  93392564.55344  22807402.445                    22807409.410
 114341928.434 8  89097678.252 7  21758548.641                    21758557.648
 124562760.802 7  97061970.895 6  23703511.547                    23703518.133
 131676167.455 6 102604863.70343  25057147.445                    25057155.855
 115811215.044 7  90242648.12045  22038126.563                    22038131.574
 116929586.183 7  91114062.497 7  22250963.961                    22250970.371
 109100255.099 8  85013313.946 7  20761080.922                    20761087.316
 11  8 13  3 11 30.0000000  0  9G30G29G26G25G15G21G02G12G05
 115765363.738 7  90206850.99845  22029417.313                    22029424.500
 114143358.673 7  88942865.506 7  21720739.203                    21720746.133
 119766520.947 7  93324469.77544  22790773.188                    22790779.855
 114373069.097 8  89121943.712 7  21764474.617                    21764483.594
 124465824.148 6  96986435.909 6  23685064.484                    23685071.516
 131618822.687 6 102560179.56843  25046235.617                    25046243.535
 115855355.541 7  90277043.31045  22046526.078                    22046531.047
 117011970.367 7  91178257.954 7  22266641.094                    22266647.336
 109150389.099 8  85052379.416 8  20770621.297                    20770627.906
 11  8 13  3 12  0.0000000  0  9G30G29G26G25G15G21G02G12G05
 115822607.312 7  90251456.37945  22040310.414                    22040317.258
 114069871.360 8  88885602.701 7  21706754.719                    21706761.609
 119679384.739 7  93256571.42544  22774191.273                    22774198.301
 114404724.842 8  89146610.525 7  21770498.219                    21770507.031
 124368898.999 6  96910909.885 6  23666620.375                    23666627.313
 131561483.855 6 102515500.01043  25035323.484                    25035332.238
 115899587.480 7  90311509.74945  22054943.664                    22054948.266
 117094628.769 7  91242667.119 7  22282370.539                    22282377.012
 109200938.295 8  85091768.424 8  20780240.531                    20780246.789
 11  8 13  3 12 30.0000000  0  9G30G29G26G25G15G21G02G12G05
 115880273.047 7  90296390.72245  22051284.102                    22051290.859
 113996582.796 7  88828494.778 7  21692808.477                    21692815.160
 119592504.166 7  93188872.28844  22757658.758                    22757666.137
 114436893.683 8  89171677.161 7  21776619.953                    21776629.012
 124271988.213 6  96835395.053 6  23648178.805                    23648185.941
 131504150.562 6 102470824.75942  25024413.820                    25024421.852
 115943910.700 7  90346047.34245  22063377.633                    22063382.395
 117177558.295 7  91307287.525 7  22298151.438                    22298157.941
 109251900.139 8  85131478.964 7  20789938.211                    20789944.945
 11  8 13  3 13  0.0000000  0  9G30G29G26G25G15G21G02G12G05
 115938358.095 7  90341651.79645  22062336.641                    22062343.887
 113923495.071 8  88771543.351 7  21678900.281                    21678907.289
 119505883.174 7  93121375.39645  22741175.508                    22741182.691
 114469573.845 8  89197142.226 7  21782838.719                    21782847.910
 124175094.722 6  96759893.691 6  23629739.836                    23629747.316
 131446821.934 6 102426153.23743  25013505.055                    25013511.691
 115988325.462 7  90380656.23445  22071829.813                    22071834.020
 117260755.731 7  91372116.693 7  22313983.563                    22313990.027
 109303272.251 8  85171509.195 7  20799713.813                    20799720.348
 11  8 13  3 13 30.0000000  0  9G30G29G26G25G15G21G02G12G05
 115996859.776 7  90387237.51645  22073469.508                    22073476.383
 113850610.969 8  88714750.582 7  21665030.844                    21665037.918
 119419525.289 7  93054083.54944  22724741.477                    22724749.777
 114502763.651 8  89223004.417 7  21789154.688                    21789163.512
 124078221.458 6  96684408.126 6  23611305.844                    23611313.082
 131389497.547 6 102381485.00243  25002596.594                    25002604.141
 116032832.245 7  90415336.87145  22080299.133                    22080303.645
 117344218.147 7  91437152.340 7  22329865.648                    22329872.512
 109355052.619 8  85211857.547 7  20809567.367                    20809573.715
 11  8 13  3 14  0.0000000  0  9G30G29G26G25G15G21G02G12G05
 116055775.163 7  90433145.61345  22084680.461                    22084687.949
 113777932.424 8  88658117.982 7  21651200.570                    21651207.180
 119333434.365 7  92986999.74244  22708358.461                    22708366.840
 114536461.169 8  89249262.215 7  21795567.031                    21795575.766
 123981371.391 7  96608940.635 6  23592876.250                    23592883.613
 131332176.908 6 102336819.67843  24991688.180                    24991695.336
 116077431.282 7  90450089.37845  22088785.461                    22088790.797
 117427942.516 7  91502392.105 7  22345798.242                    22345804.441
 109407238.872 8  85252522.164 7  20819498.273                    20819504.422
 11  8 13  3 14 30.0000000  0  9G30G29G26G25G15G21G02G12G05
 116115101.347 7  90479373.79845  22095970.016                    22095977.250
 113705461.593 8  88601647.245 7  21637410.102                    21637416.504
 119247614.076 7  92920126.82944  22692028.039                    22692035.332
 114570664.361 8  89275914.057 7  21802075.555                    21802084.813
 123884547.388 7  96533493.413 6  23574450.867                    23574458.285
 131274859.431 6 102292156.85342  24980780.156                    24980788.316
 116122122.383 7  90484913.60745  22097290.336                    22097295.301
 117511925.748 7  91567833.605 7  22361779.547                    22361785.938
 109459828.713 8  85293501.270 7  20829505.906                    20829511.676
 11  8 13  3 15  0.0000000  0  9G30G29G26G25G15G21G02G12G05
 116174835.640 7  90525920.00245  22107337.203                    22107344.406
 113633201.217 8  88545340.490 7  21623658.813                    21623665.523
 119162068.140 7  92853467.71744  22675748.961                    22675756.020
 114605371.540 8  89302958.623 7  21808680.078                    21808689.324
 123787752.502 7  96458068.866 6  23556031.844                    23556038.754
 131217544.620 6 102247496.04842  24969874.266                    24969881.684
 116166905.846 7  90519809.84445  22105812.133                    22105817.324
 117596165.174 7  91633474.716 7  22377809.414                    22377815.914
 109512819.854 8  85334793.076 7  20839589.430                    20839596.016
 11  8 13  3 15 30.0000000  0  9G30G29G26G25G15G21G02G12G05
 116234974.888 7  90572781.74245  22118781.461                    22118788.660
 113561152.902 8  88489198.973 7  21609948.836                    21609955.238
 119076800.148 7  92787025.20744  22659522.633                    22659530.168
 114640580.522 8  89330394.202 7  21815380.383                    21815389.504
 123690989.568 7  96382669.225 6  23537618.305                    23537625.781
 131160231.929 6 102202837.00742  24958967.516                    24958975.051
 116211781.871 7  90554778.19145  22114352.023                    22114357.082
 117680657.355 7  91699312.789 7  22393887.867                    22393894.309
 109566209.910 8  85376395.730 7  20849749.641                    20849755.695
 11  8 13  3 16  0.0000000  0  9G30G29G26G25G15G21G02G12G05
 116295516.301 7  90619956.86545  22130301.781                    22130309.109
 113489319.661 8  88433225.052 7  21596279.117                    21596285.563
 118991813.649 7  92720802.01244  22643350.508                    22643358.063
 114676289.439 8  89358219.327 7  21822175.398                    21822184.684
 123594261.503 7  96307296.738 6  23519211.656                    23519218.828
 131102920.683 6 102158179.02642  24948061.219                    24948069.414
 116256750.619 7  90589818.77545  22122909.406                    22122914.438
 117765399.160 7  91765345.363 7  22410013.984                    22410020.418
 109619996.356 8  85418307.247 7  20859984.445                    20859990.797
 11  8 13  3 16 30.0000000  0  9G30G29G26G25G15G21G02G12G05
 116356457.175 7  90667443.23145  22141898.711                    22141905.551
 113417703.534 8  88377420.308 7  21582650.844                    21582657.934
 118907112.417 7  92654801.05044  22627232.398                    22627239.828
 114712496.440 8  89386432.565 7  21829065.234                    21829074.500
 123497571.610 7  96231953.994 6  23500812.117                    23500818.934
 131045610.535 6 102113521.91543  24937155.305                    24937163.426
 116301812.299 7  90624931.77445  22131484.227                    22131489.047
 117850387.818 7  91831570.299 7  22426186.773                    22426193.043
 109674177.136 8  85460526.036 7  20870294.711                    20870301.656
 11  8 13  3 17  0.0000000  0  9G30G29G26G25G15G21G02G12G05
 116417794.318 7  90715238.39845  22153570.758                    22153577.715
 113346306.416 8  88321786.222 7  21569065.016                    21569070.996
 118822700.096 7  92589025.24544  22611169.234                    22611176.633
 114749199.311 8  89415032.212 7  21836049.875                    21836058.457
 123400922.284 7  96156642.858 6  23482420.195                    23482427.473
 130988300.593 6 102068864.97443  24926249.133                    24926257.711
 116346967.038 7  90660117.29245  22140076.898                    22140082.219
 117935619.935 7  91897984.933 7  22442406.234                    22442412.367
 109728749.351 8  85503049.843 7  20880679.797                    20880685.988
 11  8 13  3 17 30.0000000  0  9G30G29G26G25G15G21G02G12G05
 116479525.120 7  90763340.31445  22165317.500                    22165325.074
 113275131.128 8  88266324.986 7  21555520.508                    21555527.191
 118738580.499 7  92523477.55644  22595162.047                    22595169.016
 114786396.374 8  89444016.932 7  21843127.711                    21843137.059
 123304317.184 7  96081366.170 6  23464037.039                    23464043.668
 130930990.658 6 102024208.06343  24915344.289                    24915352.012
 116392215.416 7  90695375.77645  22148687.391                    22148692.195
 118021093.013 7  91964587.343 7  22458670.734                    22458677.352
 109783711.621 8  85545877.580 7  20891138.945                    20891145.199
 11  8 13  3 18  0.0000000  0  9G30G29G26G25G15G21G02G12G05
 116541646.690 7  90811746.72745  22177139.078                    22177146.379
 113204179.868 8  88211038.316 7  21542018.813                    21542025.840
 118654757.623 7  92458161.05644  22579210.570                    22579218.211
 114824085.627 8  89473385.178 7  21850300.031                    21850309.273
 123207758.839 7  96006125.922 6  23445661.898                    23445669.617
 130873680.362 6 101979550.82443  24904437.563                    24904445.715
 116437557.407 7  90730707.21945  22157315.688                    22157320.555
 118106803.914 7  92031375.059 7  22474980.961                    22474987.734
 109839061.395 8  85589007.267 7  20901671.531                    20901677.926
 11  8 13  3 18 30.0000000  0  9G30G29G26G25G15G21G02G12G05
 116604155.765 7  90860455.07745  22189033.727                    22189040.816
 113133454.729 8  88155927.837 7  21528560.148                    21528567.094
 118571234.582 7  92393078.19644  22563317.383                    22563324.539
 114862264.596 8  89503135.023 7  21857565.211                    21857574.867
 123111250.304 6  95930924.461 6  23427297.578                    23427304.387
 130816368.818 6 101934892.56942  24893533.102                    24893539.363
 116482992.889 7  90766111.49645  22165961.578                    22165966.457
 118192749.233 7  92098345.440 7  22491336.031                    22491342.664
 109894795.732 8  85632436.625 7  20912277.453                    20912283.844
 11  8 13  3 19  0.0000000  0  9G30G29G26G25G15G21G02G12G05
 116667049.484 7  90909463.17245  22201002.445                    22201009.742
 113062957.902 8  88100995.276 7  21515145.398                    21515152.188
 118488015.227 7  92328231.94744  22547481.023                    22547488.539
 114900931.521 8  89533265.095 7  21864923.008                    21864932.492
 123014794.721 7  95855764.284 6  23408942.141                    23408949.141
 130759055.541 6 101890233.05943  24882624.875                    24882632.332
 116528522.382 8  90801589.02945  22174625.633                    22174630.168
 118278926.105 7  92165496.247 7  22507734.875                    22507741.438
 109950912.648 8  85676164.086 7  20922955.688                    20922962.699
 11  8 13  3 19 30.0000000  0  9G30G29G26G25G15G21G02G12G05
 116730324.719 7  90958768.54945  22213043.016                    22213050.324
 112992691.677 8  88046242.406 7  21501773.531                    21501780.656
 118405102.954 7  92263625.00944  22531702.602                    22531710.648
 114940083.932 8  89563773.456 7  21872373.680                    21872383.055
 122918394.798 7  95780647.440 6  23390597.938                    23390604.664
 130701739.931 6 101845571.68743  24871718.273                    24871725.984
 116574146.057 7  90837139.94945  22183307.344                    22183312.191
 118365331.221 7  92232824.924 7  22524177.398                    22524183.707
 110007409.269 8  85720187.420 7  20933706.891                    20933712.785
 11  8 13  3 20  0.0000000  0  9G30G29G26G25G15G21G02G12G05
 116793979.083 7  91008369.34545  22225155.875                    22225163.383
 112922659.120 8  87991671.599 7  21488446.938                    21488453.867
 118322502.016 7  92199260.60545  22515985.016                    22515992.535
 114979720.374 8  89594658.987 7  21879915.992                    21879925.641
 122822053.948 7  95705576.658 6  23372265.211                    23372271.859
 130644421.931 6 101800908.44843  24860811.273                    24860818.348
 116619863.992 7  90872764.30945  22192007.016                    22192012.133
 118451961.907 7  92300329.342 7  22540662.430                    22540669.070
 110064283.943 8  85764505.350 7  20944529.938                    20944535.984
 11  8 13  3 20 30.0000000  0  9G30G29G26G25G15G21G02G12G05
 116858008.872 7  91058262.68645  22237340.930                    22237347.391
 112852861.607 8  87937283.953 7  21475164.945                    21475171.777
 118240215.488 7  92135141.20545  22500326.523                    22500333.223
 115019838.024 8  89625919.493 7  21887550.406                    21887559.801
 122725774.669 7  95630553.830 6  23353944.055                    23353951.328
 130587100.552 6 101756242.53543  24849903.906                    24849911.098
 116665676.417 7  90908462.30345  22200725.359                    22200730.023
 118538814.590 7  92368006.753 7  22557190.148                    22557196.148
 110121533.472 8  85809115.370 7  20955424.164                    20955430.191
 11  8 13  3 21  0.0000000  0  9G30G29G26G25G15G21G02G12G05
 116922411.624 7  91108446.65045  22249596.039                    22249603.156
 112783302.108 8  87883081.778 7  21461928.406                    21461935.141
 118158247.464 7  92071270.02745  22484728.383                    22484735.816
 115060435.268 8  89657553.703 7  21895275.828                    21895285.098
 122629560.410 7  95555581.689 6  23335634.508                    23335642.262
 130529775.384 6 101711573.71943  24838994.281                    24839002.188
 116711583.884 7  90944234.35445  22209460.352                    22209465.813
 118625886.717 7  92435855.167 7  22573759.500                    22573765.664
 110179156.280 8  85854016.249 7  20966389.141                    20966395.738
 11  8 13  3 21 30.0000000  0  9G30G29G26G25G15G21G02G12G05
 116987183.970 7  91158918.60345  22261921.891                    22261929.113
 112713982.364 8  87829066.411 7  21448736.945                    21448744.137
 118076601.272 7  92007649.63445  22469191.336                    22469198.852
 115101509.580 8  89689559.650 7  21903091.867                    21903100.910
 122533413.904 7  95480662.353 6  23317338.953                    23317345.875
 130472445.886 6 101666901.48543  24828085.578                    24828092.113
 116757586.532 7  90980080.56745  22218214.836                    22218219.391
 118713175.016 7  92503872.028 7  22590369.445                    22590376.023
 110237149.613 8  85899205.858 7  20977424.984                    20977431.367
 11  8 13  3 22  0.0000000  0  9G30G29G26G25G15G21G02G12G05
 117052323.066 7  91209676.34045  22274317.336                    22274324.348
 112644904.926 8  87775239.862 7  21435592.438                    21435599.207
 117995280.745 7  91944282.99545  22453716.750                    22453724.207
 115143058.873 8  89721935.719 7  21910998.648                    21911007.715
 122437338.341 7  95405798.309 6  23299055.813                    23299063.590
 130415111.460 6 101622225.38943  24817174.961                    24817181.875
 116803684.486 7  91016001.04245  22226987.328                    22226992.449
 118800676.458 7  92572054.972 7  22607020.508                    22607027.160
 110295511.021 8  85944682.276 7  20988530.609                    20988536.828
